     2.11           OBSERVATION DATA    G (GPS)             RINEX VERSION / TYPE
teqc 2010Oct21 OPUS Account 20111028 01:22:02UTC            PGM / RUN BY / DATE
Q 1382                                                      MARKER NAME
2093                                                        MARKER NUMBER
CSMIDDLETON NGS                                             OBSERVER / AGENCY
4624K01584 TRIMBLE NETR5 4.41                               REC # / TYPE / VERS
60177755 TRM41249.00 NONE                                   ANT # / TYPE
  -752431.7578 -5570601.2081  3003708.2632                  APPROX POSITION XYZ
        2.0000        0.0000        0.0000                  ANTENNA: DELTA H/E/N
     1     1                                                WAVELENGTH FACT L1/2
     5    L1    L2    C1    P1    P2                        # / TYPES OF OBSERV
    15                                                      LEAP SECONDS
  2011     8    21     0     0    0.0000000     GPS         TIME OF FIRST OBS
                                                            END OF HEADER
 11  8 21  0  0  0.0000000  0  7G04G10G09G12G17G05G02
 111659361.16918  87007404.39756  21248056.820                    21248066.469
 110096555.50518  85789625.68656  20950663.734                    20950672.547
 121843547.33417  94943096.30954  23186067.023                    23186078.887
 114957473.33318  89577297.93517  21875676.602                    21875684.934
 120191458.68617  93655780.52816  22871676.266                    22871686.082
 118531605.55617  92362420.10917  22555802.172                    22555813.516
 108561683.78218  84593622.60156  20658585.961                    20658592.098
 11  8 21  0  0 30.0000000  0  7G04G10G09G12G17G05G02
 111730595.325 8  87062911.50246  21261612.586                    21261622.074
 110076919.933 8  85774325.26046  20946927.172                    20946936.133
 121914037.167 7  94998023.33344  23199479.820                    23199492.910
 114884310.945 8  89520288.338 7  21861754.242                    21861762.969
 120238825.625 7  93692689.807 7  22880689.844                    22880700.203
 118433603.493 7  92286054.997 7  22537152.438                    22537163.965
 108551693.725 8  84585838.14746  20656684.750                    20656691.215
 11  8 21  0  1  0.0000000  0  7G04G10G09G12G17G05G02
 111802032.473 8  87118576.77446  21275206.617                    21275216.156
 110057891.516 8  85759497.94246  20943306.219                    20943314.992
 121984804.445 7  95053166.53344  23212946.797                    23212959.277
 114811493.831 8  89463547.784 7  21847897.789                    21847906.559
 120286327.615 7  93729704.313 7  22889729.516                    22889739.426
 118335811.094 7  92209853.251 7  22518543.813                    22518554.871
 108542024.460 8  84578303.66546  20654844.797                    20654851.102
 11  8 21  0  1 30.0000000  0  7G04G10G09G12G17G05G02
 111873671.576 8  87174399.43546  21288839.211                    21288848.875
 110039472.207 8  85745145.26146  20939801.305                    20939809.781
 122055846.642 6  95108523.96044  23226465.602                    23226477.988
 114739025.843 8  89407079.277 7  21834107.086                    21834115.641
 120333966.085 7  93766825.176 7  22898793.945                    22898803.813
 118238232.209 7  92133817.881 7  22499974.594                    22499985.613
 108532676.733 8  84571019.72746  20653066.398                    20653072.598
 11  8 21  0  2  0.0000000  0  7G04G10G09G12G17G05G02
 111945509.901 8  87230377.31746  21302509.656                    21302519.430
 110021662.586 8  85731267.65446  20936412.359                    20936420.895
 122127159.894 7  95164092.56444  23240036.742                    23240048.594
 114666908.952 8  89350884.331 7  21820383.609                    21820392.078
 120381741.478 7  93804052.753 7  22907886.141                    22907895.379
 118140869.694 7  92057951.111 7  22481447.211                    22481458.395
 108523648.874 8  84563985.05046  20651348.242                    20651355.043
 11  8 21  0  2 30.0000000  0  8G04G10G09G12G17G05G30G02
 112017545.718 8  87286509.10546  21316217.695                    21316227.129
 110004464.429 8  85717866.53446  20933139.070                    20933147.855
 122198741.251 7  95219870.13844  23253658.477                    23253669.879
 114595145.712 8  89294964.967 7  21806727.859                    21806736.113
 120429654.871 7  93841387.806 6  22917003.250                    22917013.270
 118043726.656 7  91982255.365 7  22462961.625                    22462972.691
 128088730.86015                  24374483.594
 108514940.260 8  84557199.14246  20649690.727                    20649697.430
 11  8 21  0  3  0.0000000  0  8G04G10G09G12G17G05G30G02
 112089776.146 8  87342792.53046  21329962.453                    21329971.902
 109987878.047 8  85704942.11146  20929983.070                    20929991.461
 122270587.042 7  95275853.75344  23267330.406                    23267342.313
 114523738.467 8  89239323.004 7  21793139.547                    21793148.098
 120477706.470 7  93878830.566 6  22926147.773                    22926157.297
 117946805.868 7  91906732.808 7  22444518.211                    22444528.609
 127983536.668 5                  24354466.039
 108506549.426 8  84550660.84646  20648094.102                    20648100.988
 11  8 21  0  3 30.0000000  0  9G04G10G09G12G17G05G30G02G25
 112162199.770 8  87399226.50246  21343743.789                    21343753.793
 109971905.165 8  85692495.74246  20926943.352                    20926952.051
 122342694.184 7  95332040.98244  23281052.367                    23281064.242
 114452690.403 8  89183960.900 7  21779619.594                    21779627.957
 120525897.589 7  93916382.053 6  22935318.125                    22935327.691
 117850110.699 7  91831386.045 7  22426117.109                    22426127.930
 127878517.393 5                  24334481.234
 108498476.030 8  84544369.90746  20646557.961                    20646564.195
 129579487.82715 100971114.91515  24658162.781                    24658173.977
 11  8 21  0  4  0.0000000  0  9G04G10G09G12G17G05G30G02G25
 112234813.386 8  87455808.52346  21357562.359                    21357571.867
 109956545.985 8  85680527.59246  20924020.898                    20924029.316
 122415058.681 7  95388428.77444  23294822.547                    23294834.504
 114382002.958 7  89128879.809 7  21766167.898                    21766176.473
 120574227.877 7  93954041.962 7  22944515.648                    22944525.230
 117753643.551 7  91756216.980 7  22407760.117                    22407770.992
 127773674.838 5                  24314530.125
 108490717.912 8  84538324.64546  20645081.531                    20645088.047
 129476282.324 6 100890695.076 5  24638523.023                    24638535.738
 11  8 21  0  4 30.0000000  0  9G04G10G09G12G17G05G30G02G25
 112307615.235 8  87512537.23146  21371415.578                    21371425.020
 109941801.939 8  85669038.75646  20921215.008                    20921224.051
 122487677.423 7  95445014.67244  23308641.719                    23308654.008
 114311679.149 8  89074082.067 7  21752785.914                    21752794.668
 120622698.236 7  93991811.013 6  22953738.703                    22953749.023
 117657407.433 7  91681227.932 7  22389446.547                    22389457.340
 127669012.339 6                  24294613.297
 108483274.688 8  84532524.75446  20643664.961                    20643671.676
 129373182.565 6 100810357.643 5  24618903.383                    24618917.277
 11  8 21  0  5  0.0000000  0  9G04G10G09G12G17G05G30G02G25
 112380602.969 8  87569410.76046  21385305.008                    21385314.242
 109927673.479 8  85658029.61346  20918526.086                    20918535.211
 122560546.763 7  95501795.84144  23322508.672                    23322521.125
 114241721.560 7  89019569.700 7  21739473.477                    21739481.297
 120671309.296 7  94029689.716 7  22962988.922                    22962998.559
 117561404.996 7  91606420.967 7  22371177.984                    22371189.250
 127564532.543 6                  24274731.266
 108476144.924 8  84526969.10646  20642308.445                    20642314.918
 129270190.575 6 100730104.236 5  24599304.758                    24599318.910
 11  8 21  0  5 30.0000000  0  9G04G10G09G12G17G05G30G02G25
 112453774.615 8  87626427.61445  21399229.219                    21399238.824
 109914162.282 8  85647501.44146  20915955.047                    20915963.887
 122633663.378 7  95558769.70044  23336421.266                    23336434.543
 114172132.652 7  88965344.599 7  21726230.484                    21726239.059
 120720061.943 7  94067678.777 6  22972266.508                    22972275.996
 117465639.732 7  91531798.828 7  22352954.172                    22352965.500
 127460238.364 6  99319743.73852  24254884.977                    24254896.047
 108469328.342 8  84521657.50646  20641011.422                    20641017.355
 129167309.298 6 100649937.070 5  24579727.430                    24579740.621
 11  8 21  0  6  0.0000000  0  9G04G10G09G12G17G05G30G02G25
 112527128.007 8  87683586.08246  21413187.781                    21413197.363
 109901268.988 8  85637454.75746  20913501.766                    20913510.543
 122707024.279 7  95615933.88444  23350381.922                    23350394.574
 114102914.977 7  88911408.771 7  21713059.289                    21713067.398
 120768956.306 7  94105778.251 7  22981570.398                    22981580.938
 117370114.552 7  91457363.750 7  22334776.477                    22334787.242
 127356132.623 6  99238622.52342  24235074.617                    24235085.781
 108462823.913 8  84516589.13446  20639773.414                    20639779.992
 129064541.090 6 100569858.064 6  24560171.023                    24560184.469
 11  8 21  0  6 30.0000000  0  9G04G10G09G12G17G05G30G02G25
 112600660.950 8  87740884.46846  21427180.586                    21427190.559
 109888994.101 8  85627889.94446  20911165.586                    20911174.520
 122780625.519 7  95673285.34744  23364388.258                    23364400.621
 114034070.989 8  88857764.125 7  21699958.789                    21699967.207
 120817993.337 7  94143988.880 6  22990902.172                    22990912.246
 117274832.323 7  91383117.989 7  22316645.055                    22316655.594
 127252217.746 6  99157649.99942  24215299.867                    24215310.832
 108456630.161 8  84511762.85646  20638594.922                    20638601.395
 128961888.106 6 100489868.881 6  24540636.867                    24540650.020
 11  8 21  0  7  0.0000000  0  9G04G10G09G12G17G05G30G02G25
 112674371.187 8  87798321.00546  21441207.578                    21441216.719
 109877338.643 8  85618807.80146  20908947.773                    20908956.602
 122854463.941 7  95730821.66644  23378439.414                    23378450.742
 113965603.110 7  88804412.549 7  21686929.414                    21686938.316
 120867173.718 7  94182311.220 6  23000260.680                    23000270.313
 117179795.856 7  91309063.741 7  22298559.906                    22298570.457
 127148496.638 6  99076828.45643  24195562.750                    24195573.246
 108450746.132 8  84507177.91846  20637475.023                    20637481.461
 128859353.083 6 100409971.583 6  24521124.883                    24521137.688
 11  8 21  0  7 30.0000000  0  9G04G10G09G12G17G05G30G02G25
 112748256.641 8  87855894.07146  21455267.344                    21455276.660
 109866303.363 8  85610208.89546  20906847.719                    20906856.449
 122928536.151 7  95788540.14044  23392535.070                    23392547.008
 113897513.634 7  88751355.834 7  21673972.289                    21673981.066
 120916498.024 7  94220745.731 6  23009647.031                    23009655.914
 117085008.156 7  91235203.329 7  22280522.305                    22280533.141
 127044972.167 6  98996160.17843  24175862.289                    24175873.012
 108445170.800 8  84502833.52146  20636414.141                    20636420.828
 128756938.382 6 100330168.021 6  24501635.836                    24501648.914
 11  8 21  0  8  0.0000000  0  9G04G10G09G12G17G05G30G02G25
 112822314.981 8  87913601.85645  21469360.305                    21469369.352
 109855889.088 8  85602093.90146  20904866.086                    20904874.574
 123002838.824 7  95846438.17844  23406674.445                    23406687.141
 113829805.339 7  88698596.133 7  21661088.508                    21661096.809
 120965966.792 7  94259292.752 6  23019060.281                    23019069.332
 116990472.244 7  91161539.115 7  22262532.609                    22262543.219
 126941646.939 6  98915647.05843  24156200.406                    24156210.219
 108439903.066 8  84498728.80646  20635411.789                    20635418.066
 128654646.476 6 100250460.154 6  24482170.320                    24482183.262
 11  8 21  0  8 30.0000000  0  9G04G10G09G12G17G05G30G02G25
 112896544.097 8  87971442.71345  21483485.266                    21483494.559
 109846096.269 8  85594463.16746  20903002.594                    20903011.602
 123077368.492 7  95904513.07844  23420856.383                    23420869.813
 113762480.557 7  88646135.280 7  21648276.813                    21648284.934
 121015580.566 7  94297952.831 6  23028501.680                    23028510.289
 116896190.879 7  91088073.252 7  22244591.594                    22244602.500
 126838523.769 6  98835291.42443  24136577.078                    24136587.984
 108434941.597 8  84494862.74346  20634467.289                    20634473.762
 128552479.806 7 100170849.853 6  24462728.711                    24462741.754
 11  8 21  0  9  0.0000000  0  9G04G10G09G12G17G05G30G02G25
 112970941.775 8  88029414.90746  21497642.953                    21497652.316
 109836926.215 8  85587317.69146  20901257.102                    20901266.129
 123152121.873 7  95962762.31444  23435081.969                    23435095.000
 113695541.859 7  88593975.265 7  21635538.734                    21635546.906
 121065340.295 7  94336726.594 6  23037970.266                    23037979.988
 116802167.181 7  91014808.170 7  22226698.883                    22226709.813
 126735605.579 6  98755095.50343  24116991.797                    24117003.215
 108430285.909 8  84491234.95146  20633581.391                    20633587.781
 128450441.104 6 100091339.250 6  24443311.563                    24443324.539
 11  8 21  0  9 30.0000000  0  9G04G10G09G12G17G05G30G02G25
 113045506.289 8  88087517.10945  21511831.930                    21511841.348
 109828379.642 8  85580658.05546  20899631.070                    20899639.621
 123227095.378 7  96021183.06144  23449349.250                    23449362.512
 113628992.098 7  88542118.307 7  21622875.039                    21622883.195
 121115246.440 7  94375614.464 6  23047468.000                    23047477.410
 116708404.516 7  90941746.492 7  22208856.852                    22208866.980
 126632895.163 6  98675061.49643  24097446.414                    24097458.273
 108425934.833 8  84487844.52246  20632753.602                    20632760.133
 128348532.905 7 100011930.329 7  24423919.000                    24423932.328
 11  8 21  0 10  0.0000000  0  9G04G10G09G12G17G05G30G02G25
 113120235.301 8  88145747.48645  21526052.227                    21526061.766
 109820457.140 7  85574484.70446  20898123.086                    20898132.152
 123302285.724 7  96079772.80344  23463657.617                    23463670.055
 113562833.655 8  88490566.284 7  21610285.047                    21610293.289
 121165299.491 7  94414616.801 6  23056992.516                    23057002.301
 116614905.420 7  90868890.185 7  22191064.070                    22191074.457
 126530395.356 6  98595191.59043  24077941.320                    24077952.422
 108421887.237 8  84484690.56046  20631983.086                    20631989.512
 128246757.740 7  99932625.060 7  24404551.633                    24404565.277
 11  8 21  0 10 30.0000000  0  9G04G10G09G12G17G05G30G02G25
 113195126.809 8  88204104.48145  21540303.836                    21540312.902
 109813159.122 8  85568797.96246  20896734.617                    20896743.672
 123377689.441 7  96138528.79744  23478007.023                    23478019.176
 113497068.286 7  88439320.554 7  21597770.570                    21597779.242
 121215499.983 7  94453734.038 6  23066545.039                    23066554.586
 116521673.022 7  90796241.682 7  22173323.000                    22173332.816
 126428109.012 6  98515487.95943  24058476.844                    24058488.066
 108418142.058 8  84481772.25746  20631270.680                    20631277.227
 128145118.052 7  99853425.365 6  24385209.547                    24385222.988
 11  8 21  0 11  0.0000000  0  9G04G10G09G12G17G05G30G02G25
 113270178.496 8  88262586.28845  21554585.594                    21554595.289
 109806486.127 8  85563598.24146  20895464.789                    20895473.520
 123453303.093 7  96197448.38544  23492395.961                    23492407.879
 113431698.908 7  88388383.381 7  21585330.891                    21585339.574
 121265848.845 6  94492966.886 6  23076125.555                    23076136.008
 116428710.088 7  90723803.150 7  22155632.469                    22155642.785
 126326038.729 6  98435952.70743  24039053.688                    24039064.023
 108414698.076 8  84479088.65346  20630615.148                    20630621.867
 128043616.366 7  99774333.153 6  24365894.914                    24365907.395
 11  8 21  0 11 30.0000000  0  9G04G10G09G12G17G05G30G02G25
 113345388.451 8  88321191.42245  21568897.844                    21568907.078
 109800438.750 7  85558886.01046  20894314.203                    20894322.422
 123529123.148 7  96256528.79544  23506823.734                    23506836.707
 113366727.669 8  88337756.449 7  21572967.430                    21572975.477
 121316346.425 7  94532315.615 7  23085735.977                    23085745.699
 116336019.521 7  90651576.849 7  22137993.820                    22138004.020
 126224187.351 6  98356588.02943  24019671.328                    24019682.629
 108411554.138 8  84476638.84546  20630017.031                    20630023.527
 127942255.210 7  99695350.464 6  24346606.906                    24346618.719
 11  8 21  0 12  0.0000000  0  9G04G10G09G12G17G05G30G02G25
 113420754.493 8  88379918.19045  21583239.484                    21583248.707
 109795017.833 7  85554661.94546  20893282.383                    20893290.988
 123605146.601 7  96315767.69244  23521290.969                    23521303.332
 113302157.540 7  88287442.075 7  21560679.984                    21560688.414
 121366993.626 7  94571780.919 6  23095372.984                    23095384.023
 116243604.556 7  90579565.300 7  22120407.516                    22120417.840
 126122557.896 6  98277396.28643  24000332.844                    24000343.430
 108408709.646 7  84474422.37446  20629475.633                    20629482.336
 127841037.255 7  99616479.350 6  24327344.836                    24327357.293
 11  8 21  0 12 30.0000000  0  9G04G10G09G12G17G05G30G02G25
 113496274.406 8  88438764.85245  21597610.469                    21597619.199
 109790223.208 7  85550925.88346  20892370.227                    20892378.344
 123681369.686 7  96375162.14944  23535795.469                    23535808.055
 113237990.360 7  88237441.674 7  21548469.742                    21548477.938
 121417790.829 7  94611363.122 6  23105040.305                    23105050.105
 116151467.514 7  90507770.306 7  22102874.539                    22102884.738
 126021152.904 6  98198379.46843  23981035.773                    23981046.531
 108406162.788 7  84472437.82146  20628990.961                    20628997.660
 127739964.784 7  99537721.617 6  24308111.922                    24308124.418
 11  8 21  0 13  0.0000000  0  9G04G10G09G12G17G05G30G02G25
 113571946.402 8  88497730.02145  21612010.711                    21612019.516
 109786055.898 8  85547678.65246  20891576.766                    20891585.914
 123757789.134 7  96434709.64144  23550337.602                    23550350.453
 113174229.239 8  88187757.697 7  21536336.070                    21536344.113
 121468738.871 7  94651062.881 7  23114735.797                    23114745.160
 116059611.614 7  90436194.398 7  22085394.781                    22085404.820
 125919975.474 6  98119539.89543  23961782.344                    23961792.238
 108403913.114 8  84470684.83746  20628563.055                    20628569.508
 127639040.813 7  99459079.609 6  24288906.711                    24288919.480
 11  8 21  0 13 30.0000000  0  9G04G10G09G12G17G05G30G02G25
 113647768.582 8  88556812.21145  21626438.547                    21626448.543
 109782516.496 7  85544920.68946  20890903.211                    20890912.191
 123834401.694 7  96494407.58744  23564916.719                    23564930.125
 113110876.266 8  88138391.766 7  21524280.227                    21524288.832
 121519838.090 7  94690880.401 6  23124458.938                    23124468.926
 115968039.951 7  90364839.972 7  22067969.383                    22067979.594
 125819028.515 6  98040879.97643  23942572.203                    23942582.719
 108401959.456 7  84469162.51946  20628191.016                    20628197.406
 127538267.863 6  99380555.266 5  24269730.203                    24269742.066
 11  8 21  0 14  0.0000000  0  9G04G10G09G12G17G05G30G02G25
 113723738.634 8  88616009.63445  21640895.281                    21640905.000
 109779605.438 8  85542652.35646  20890349.664                    20890358.441
 123911203.820 7  96554253.23844  23579532.102                    23579544.590
 113047933.759 8  88089345.682 7  21512302.688                    21512311.531
 121571089.021 7  94730816.136 6  23134211.797                    23134221.645
 115876755.382 7  90293709.248 7  22050598.133                    22050608.355
 125718314.547 6  97962401.60943  23923406.992                    23923417.527
 108400300.460 8  84467869.80046  20627875.406                    20627881.734
 127437648.186 6  99302150.368 6  24250582.047                    24250594.488
 11  8 21  0 14 30.0000000  0  9G04G10G09G12G17G05G30G02G25
 113799854.635 8  88675320.78445  21655379.688                    21655389.418
 109777323.275 8  85540874.08046  20889915.438                    20889923.824
 123988192.106 7  96614243.94644  23594182.039                    23594195.398
 112985404.178 8  88040621.355 7  21500403.750                    21500412.063
 121622492.516 7  94770870.768 6  23143994.234                    23144003.301
 115785760.921 7  90222804.590 7  22033282.305                    22033292.805
 125617836.713 6  97884107.26043  23904286.813                    23904297.133
 108398935.097 8  84466805.89646  20627615.586                    20627622.051
 127337184.689 6  99223867.206 5  24231464.766                    24231477.238
 11  8 21  0 15  0.0000000  0  9G04G10G09G12G17G05G30G02G25
 113876114.190 8  88734743.81345  21669891.828                    21669900.922
 109775669.608 8  85539585.52146  20889600.516                    20889609.367
 124065363.012 7  96674376.95944  23608867.734                    23608880.730
 112923289.717 8  87992220.507 7  21488583.953                    21488592.219
 121674049.056 7  94811044.639 6  23153804.930                    23153814.617
 115695059.111 7  90152127.972 7  22016022.508                    22016032.434
 125517597.424 6  97805998.84443  23885212.508                    23885223.336
 108397862.032 8  84465969.75646  20627411.117                    20627417.754
 127236879.584 6  99145707.432 6  24212377.477                    24212389.969
 11  8 21  0 15 30.0000000  0  9G04G10G09G12G17G05G30G02G25
 113952515.368 8  88794277.20345  21684429.906                    21684439.813
 109774644.898 8  85538787.08246  20889405.539                    20889414.098
 124142713.102 7  96734649.60844  23623587.141                    23623600.418
 112861592.909 8  87944145.091 7  21476843.484                    21476851.676
 121725759.183 7  94851338.215 6  23163645.156                    23163654.578
 115604652.676 7  90081681.512 7  21998818.953                    21998828.852
 125417599.622 7  97728078.48643  23866183.758                    23866193.582
 108397080.041 8  84465360.43146  20627262.695                    20627269.094
 127136735.533 6  99067673.164 6  24193321.227                    24193333.543
 11  8 21  0 16  0.0000000  0  9G04G10G09G12G17G05G30G02G25
 114029056.416 8  88853919.58845  21698995.117                    21699005.113
 109774249.559 8  85538479.05046  20889330.383                    20889338.906
 124220239.104 7  96795059.30544  23638339.578                    23638352.875
 112800316.018 8  87896396.893 7  21465182.578                    21465191.039
 121777623.572 7  94891751.994 6  23173514.563                    23173524.453
 115514544.826 7  90011467.703 7  21981671.578                    21981681.422
 125317846.271 7  97650348.66143  23847200.648                    23847211.227
 108396588.543 8  84464977.46546  20627169.156                    20627175.223
 127036755.272 7  98989766.549 6  24174295.039                    24174308.250
 11  8 21  0 16 30.0000000  0  9G04G10G09G12G17G05G30G02G25
 114105735.476 8  88913669.51745  21713587.125                    21713596.605
 109774484.522 8  85538662.16546  20889375.047                    20889383.602
 124297937.746 7  96855603.56644  23653125.625                    23653138.109
 112739461.687 8  87848977.964 7  21453602.484                    21453610.629
 121829642.858 7  94932286.478 6  23183412.859                    23183423.898
 115424738.873 7  89941489.154 7  21964581.961                    21964591.566
 125218340.354 7  97572811.64943  23828265.766                    23828276.406
 108396386.582 8  84464820.12346  20627130.742                    20627136.840
 126936941.564 7  98911989.700 6  24155301.203                    24155314.188
 11  8 21  0 17  0.0000000  0  9G04G10G09G12G17G05G30G02G25
 114182550.075 8  88973525.05145  21728204.688                    21728213.945
 109775349.440 8  85539336.15646  20889539.297                    20889548.273
 124375805.386 7  96916279.50544  23667943.555                    23667955.926
 112679031.863 8  87801889.822 7  21442103.180                    21442111.719
 121881817.635 7  94972942.114 6  23193341.305                    23193351.543
 115335237.288 7  89871747.762 7  21947550.195                    21947560.371
 125119084.378 7  97495469.38743  23809377.648                    23809388.250
 108396472.408 8  84464887.02346  20627146.758                    20627153.957
 126837296.687 7  98834344.426 6  24136339.484                    24136352.691
 11  8 21  0 17 30.0000000  0  9G04G10G09G12G17G05G30G02G25
 114259498.600 8  89033484.94445  21742847.391                    21742856.410
 109776844.941 7  85540501.51546  20889824.078                    20889832.816
 124453838.883 7  96977084.70544  23682792.563                    23682806.227
 112619029.203 8  87755134.519 7  21430684.672                    21430693.645
 121934148.464 7  95013719.363 6  23203299.422                    23203309.625
 115246043.056 7  89802245.876 7  21930576.914                    21930587.117
 125020081.514 7  97418324.36844  23790538.078                    23790548.887
 108396845.427 8  84465177.72446  20627217.773                    20627224.395
 126737823.504 7  98756832.939 6  24117410.344                    24117423.457
 11  8 21  0 18  0.0000000  0  9G04G10G09G12G17G05G30G02G25
 114336579.020 8  89093547.61245  21757515.211                    21757524.305
 109778971.056 7  85542158.24546  20890228.711                    20890237.758
 124532034.743 7  97038016.37944  23697672.906                    23697686.496
 112559455.989 8  87708713.861 7  21419348.492                    21419356.754
 121986635.953 7  95054618.664 6  23213287.930                    23213298.008
 115157158.903 7  89732985.600 7  21913662.578                    21913672.938
 124921334.600 7  97341378.80144  23771746.961                    23771757.750
 108397504.315 8  84465691.16846  20627343.047                    20627349.316
 126638524.648 7  98679457.273 6  24098514.586                    24098526.961
 11  8 21  0 18 30.0000000  0  9G04G10G09G12G17G05G30G02G25
 114413789.322 8  89153711.49945  21772208.141                    21772217.336
 109781727.874 8  85544306.42046  20890753.500                    20890761.855
 124610389.583 6  97099071.94744  23712582.680                    23712596.457
 112500314.900 8  87662629.917 7  21408094.227                    21408102.840
 122039280.447 7  95095640.332 6  23223305.563                    23223316.898
 115068587.958 7  89663969.379 7  21896808.492                    21896818.094
 124822846.310 7  97264634.75744  23753004.922                    23753015.598
 108398447.728 8  84466426.32946  20627522.789                    20627528.504
 126539402.659 7  98602219.427 6  24079652.047                    24079664.949
 11  8 21  0 19  0.0000000  0  9G04G10G09G12G17G05G30G02G25
 114491127.463 8  89213974.99245  21786924.813                    21786934.449
 109785115.547 8  85546946.17646  20891397.922                    20891406.707
 124688900.220 7  97160248.91244  23727523.836                    23727536.375
 112441607.594 8  87616883.978 7  21396922.711                    21396931.016
 122092082.652 7  95136784.845 6  23233354.492                    23233364.512
 114980332.874 7  89595199.276 7  21880013.977                    21880023.938
 124724619.413 6  97188094.41944  23734312.656                    23734323.844
 108399674.586 8  84467382.34846  20627755.953                    20627762.504
 126440460.018 7  98525121.332 7  24060824.000                    24060836.625
 11  8 21  0 19 30.0000000  0  9G04G10G09G12G17G05G30G02G25
 114568591.374 8  89274336.50745  21801665.500                    21801675.094
 109789134.185 8  85550077.59546  20892162.398                    20892171.305
 124767562.987 7  97221544.42343  23742493.250                    23742505.742
 112383336.621 8  87571478.047 7  21385834.125                    21385842.328
 122145043.168 7  95178052.748 6  23243432.289                    23243442.359
 114892396.419 8  89526677.473 7  21863280.242                    21863290.039
 124626656.850 7  97111760.02044  23715671.922                    23715681.770
 108401183.630 8  84468558.25646  20628043.297                    20628049.473
 126341699.356 7  98448165.067 7  24042029.875                    24042043.184
 11  8 21  0 20  0.0000000  0  9G04G10G09G12G17G05G30G02G25
 114646179.394 8  89334794.71145  21816430.102                    21816439.848
 109793783.465 7  85553700.43846  20893047.047                    20893055.914
 124846374.809 7  97282956.11444  23757490.797                    23757503.465
 112325504.113 8  87526413.768 7  21374828.719                    21374837.039
 122198162.600 7  95219444.471 6  23253540.250                    23253549.926
 114804781.433 7  89458406.151 7  21846607.836                    21846617.219
 124528961.235 7  97035633.63844  23697079.914                    23697090.836
 108402973.952 8  84469953.34246  20628383.984                    20628390.613
 126243123.294 7  98371352.635 7  24023271.539                    24023284.758
 11  8 21  0 20 30.0000000  0  9G04G10G09G12G17G05G30G02G25
 114723889.021 8  89395347.69445  21831217.570                    21831226.785
 109799063.649 7  85557814.87746  20894052.289                    20894060.816
 124925331.973 6  97344481.04544  23772514.938                    23772528.508
 112268112.277 8  87481692.885 7  21363907.805                    21363916.176
 122251441.517 7  95260960.440 6  23263678.844                    23263688.617
 114717490.775 7  89390387.555 7  21829996.750                    21830006.234
 124431535.499 7  96959717.55544  23678541.672                    23678551.469
 108405043.943 7  84471566.35247  20628777.813                    20628784.449
 126144734.360 6  98294686.041 6  24004548.625                    24004561.410
 11  8 21  0 21  0.0000000  0  9G04G10G09G12G17G05G30G02G25
 114801719.140 8  89455994.55045  21846028.500                    21846037.805
 109804975.321 7  85562421.37746  20895177.141                    20895185.391
 125004431.453 6  97406116.87144  23787566.906                    23787581.090
 112211163.842 7  87437317.504 7  21353070.586                    21353079.059
 122304880.399 7  95302601.079 6  23273847.852                    23273857.570
 114630527.574 7  89322624.105 7  21813448.211                    21813457.305
 124334382.800 7  96884014.22844  23660053.367                    23660063.820
 108407393.113 8  84473396.90446  20629224.945                    20629231.387
 126046535.587 7  98218167.616 6  23985862.180                    23985874.512
 11  8 21  0 21 30.0000000  0  9G04G10G09G12G17G05G30G02G25
 114879667.330 7  89516733.40945  21860861.508                    21860870.676
 109811517.974 8  85567519.55246  20896422.297                    20896430.453
 125083669.593 6  97467860.74243  23802646.344                    23802659.719
 112154660.856 8  87393289.221 7  21342318.398                    21342326.770
 122358479.664 7  95344366.703 6  23284047.500                    23284057.047
 114543894.323 7  89255117.775 7  21796962.023                    21796971.926
 124237505.744 7  96808525.70344  23641618.391                    23641628.461
 108410019.833 8  84475443.73046  20629724.563                    20629731.125
 125948529.337 6  98141799.192 6  23967211.711                    23967225.070
 11  8 21  0 22  0.0000000  0  9G04G10G09G12G17G05G30G02G25
 114957731.789 8  89577562.86845  21875716.250                    21875725.852
 109818691.659 8  85573109.45146  20897787.070                    20897795.613
 125163043.227 7  97529710.18544  23817751.297                    23817764.020
 112098605.667 8  87349609.877 7  21331651.547                    21331659.645
 122412240.037 7  95386257.883 6  23294278.406                    23294287.273
 114457594.366 8  89187871.142 7  21780539.797                    21780549.324
 124140907.190 7  96733254.17243  23623236.383                    23623246.055
 108412923.278 8  84477706.18246  20630276.992                    20630283.531
 125850718.271 6  98065582.875 6  23948598.656                    23948612.078
 11  8 21  0 22 30.0000000  0  9G04G10G09G12G17G05G30G02G25
 115035910.674 8  89638481.47645  21890593.625                    21890602.891
 109826496.338 8  85579191.01746  20899272.477                    20899280.555
 125242548.692 7  97591662.34444  23832879.984                    23832893.777
 112043000.439 8  87306281.155 7  21321070.078                    21321078.461
 122466162.410 7  95428275.293 6  23304538.789                    23304549.555
 114371629.919 8  89120885.958 7  21764181.109                    21764190.750
 124044590.160 6  96658201.95943  23604907.609                    23604917.215
 108416102.163 8  84480183.26746  20630882.000                    20630888.156
 125753105.173 7  97989520.804 6  23930024.102                    23930037.020
 11  8 21  0 23  0.0000000  0  9G04G10G09G12G17G05G30G02G25
 115114201.921 8  89699487.62945  21905492.094                    21905501.457
 109834931.491 8  85585763.87546  20900877.211                    20900886.188
 125322182.545 6  97653714.55244  23848034.602                    23848047.652
 111987846.989 8  87263304.470 7  21310574.570                    21310583.195
 122520246.690 7  95470418.847 6  23314831.328                    23314841.605
 114286004.039 8  89054164.590 7  21747886.938                    21747896.918
 123948557.062 7  96583371.01343  23586632.633                    23586642.852
 108419554.860 8  84482873.69346  20631539.086                    20631545.379
 125655692.384 7  97913614.764 6  23911486.438                    23911499.379
 11  8 21  0 23 30.0000000  0  9G04G10G09G12G17G05G30G02G25
 115192603.652 8  89760579.85945  21920411.273                    21920420.379
 109843997.282 8  85592828.13346  20902602.445                    20902611.406
 125401941.851 6  97715864.54144  23863211.539                    23863225.215
 111933147.810 8  87220681.764 7  21300166.102                    21300174.375
 122574493.785 7  95512689.268 7  23325154.391                    23325165.043
 114200719.175 8  88987708.946 7  21731657.961                    21731667.035
 123852811.047 7  96508763.79143  23568413.133                    23568422.789
 108423280.763 8  84485777.00946  20632247.836                    20632254.219
 125558482.774 7  97837867.043 6  23892989.016                    23893000.457
 11  8 21  0 24  0.0000000  0  9G04G10G09G12G17G05G30G02G25
 115271114.096 8  89821756.81545  21935351.133                    21935360.699
 109853693.443 8  85600383.60246  20904447.602                    20904456.820
 125481823.138 7  97778109.53444  23878412.891                    23878426.547
 111878905.247 8  87178414.862 7  21289843.797                    21289851.699
 122628904.092 7  95555086.854 6  23335507.180                    23335518.676
 114115778.204 8  88921521.262 7  21715493.922                    21715503.352
 123757354.721 7  96434382.25343  23550248.352                    23550258.375
 108427278.291 8  84488891.97646  20633008.828                    20633014.820
 125461478.759 7  97762279.493 6  23874529.422                    23874541.523
 11  8 21  0 24 30.0000000  0  9G04G10G09G12G17G05G30G02G25
 115349731.232 8  89883016.90545  21950311.477                    21950320.895
 109864019.743 8  85608430.09346  20906412.586                    20906421.520
 125561822.766 7  97840446.80544  23893636.945                    23893649.758
 111825121.428 8  87136505.429 7  21279609.219                    21279616.797
 122683478.253 7  95597612.164 6  23345893.453                    23345903.520
 114031184.126 8  88855603.899 7  21699396.086                    21699405.961
 123662191.090 7  96360228.81143  23532139.227                    23532149.652
 108431546.348 8  84492217.74846  20633821.141                    20633827.180
 125364683.136 7  97686854.364 6  23856109.203                    23856122.191
 11  8 21  0 25  0.0000000  0  9G04G10G09G12G17G05G30G02G25
 115428453.459 7  89944358.86945  21965292.086                    21965301.449
 109874976.033 8  85616967.47946  20908497.570                    20908506.402
 125641937.820 6  97902873.98644  23908881.930                    23908895.238
 111771798.526 8  87094955.153 7  21269461.961                    21269469.934
 122738216.601 7  95640265.391 6  23356309.648                    23356320.137
 113946939.520 7  88789958.862 7  21683364.813                    21683374.391
 123567323.150 7  96286305.75143  23514086.055                    23514096.734
 108436084.011 8  84495753.58846  20634684.195                    20634690.836
 125268098.722 7  97611593.797 6  23837730.156                    23837742.020
 11  8 21  0 25 30.0000000  0  9G04G10G09G12G17G05G30G02G25
 115507278.820 8  90005781.19945  21980292.070                    21980301.301
 109886562.058 8  85625995.56646  20910702.258                    20910711.367
 125722164.401 7  97965388.04544  23924148.688                    23924161.805
 111718938.419 8  87053765.503 7  21259403.008                    21259411.379
 122793119.921 7  95683047.153 7  23366757.648                    23366768.148
 113863047.123 7  88724588.259 7  21667400.617                    21667410.078
 123472753.458 7  96212615.14743  23496089.898                    23496100.984
 108440889.928 8  84499498.45346  20635598.852                    20635605.180
 125171728.067 7  97536499.796 6  23819391.594                    23819403.789
 11  8 21  0 26  0.0000000  0  9G04G10G09G12G17G05G30G02G25
 115586205.589 7  90067282.55945  21995311.391                    21995320.691
 109898777.759 8  85635514.28946  20913027.195                    20913035.926
 125802499.663 6  98027986.80743  23939436.281                    23939449.465
 111666543.491 7  87012938.333 7  21249432.641                    21249440.914
 122848188.374 7  95725957.592 6  23377237.258                    23377247.121
 113779510.124 7  88659494.594 7  21651503.688                    21651513.469
 123378485.115 7  96139159.38744  23478151.766                    23478161.906
 108445963.016 8  84503451.49446  20636564.430                    20636570.352
 125075573.915 7  97461574.563 6  23801093.406                    23801106.715
 11  8 21  0 26 30.0000000  0  9G04G10G09G12G17G05G30G02G25
 115665231.823 8  90128861.42845  22010349.836                    22010359.293
 109911622.540 8  85645523.22046  20915471.109                    20915480.344
 125882940.059 7  98090667.49443  23954743.016                    23954756.699
 111614615.948 8  86972475.369 7  21239550.852                    21239559.207
 122903422.789 7  95768997.375 6  23387747.813                    23387757.695
 113696330.831 7  88594679.639 7  21635675.313                    21635684.977
 123284520.783 6  96065940.48744  23460270.742                    23460281.059
 108451301.936 8  84507611.67546  20637580.430                    20637586.637
 124979638.792 7  97386819.991 6  23782837.422                    23782850.496
 11  8 21  0 27  0.0000000  0  9G04G10G09G12G17G05G30G02G25
 115744355.653 8  90190516.34845  22025406.156                    22025415.543
 109925096.182 8  85656022.17646  20918034.758                    20918043.574
 125963482.357 7  98153427.59644  23970070.313                    23970083.773
 111563157.802 8  86932378.145 7  21229759.023                    21229766.531
 122958823.590 7  95812166.797 7  23398289.625                    23398300.406
 113613512.053 8  88530145.616 7  21619915.555                    21619924.840
 123190863.185 6  95992960.63744  23442447.469                    23442459.145
 108456905.414 8  84511978.00646  20638646.703                    20638652.953
 124883925.335 7  97312238.151 7  23764624.641                    23764637.012
 11  8 21  0 27 30.0000000  0  9G04G10G09G12G17G05G30G02G25
 115823575.368 8  90252245.96945  22040481.547                    22040490.809
 109939198.130 8  85667010.73246  20920718.352                    20920727.121
 126044123.203 7  98216264.48044  23985415.945                    23985429.859
 111512171.389 8  86892648.503 7  21220056.586                    21220064.391
 123014391.293 7  95855466.284 6  23408863.867                    23408874.371
 113531056.536 8  88465894.669 7  21604224.672                    21604234.148
 123097515.332 6  95920222.16244  23424684.477                    23424695.063
 108462772.507 8  84516549.75746  20639762.938                    20639768.980
 124788436.382 7  97237831.262 7  23746452.922                    23746465.738
 11  8 21  0 28  0.0000000  0  9G04G10G09G12G17G05G30G02G25
 115902889.125 8  90314048.89245  22055574.258                    22055583.324
 109953928.382 8  85678488.87746  20923521.234                    20923530.391
 126124859.203 7  98279175.49043  24000779.781                    24000793.145
 111461658.407 8  86853287.776 7  21210443.883                    21210451.813
 123070126.423 7  95898896.216 6  23419469.648                    23419480.301
 113448967.217 8  88401929.054 7  21588603.211                    21588613.238
 123004480.111 6  95847727.27344  23406980.000                    23406991.176
 108468902.030 8  84521325.99246  20640929.719                    20640935.859
 124693174.531 7  97163601.346 7  23728325.172                    23728338.332
 11  8 21  0 28 30.0000000  0  9G04G10G09G12G17G05G30G02G25
 115982295.120 8  90375923.67745  22070684.680                    22070693.191
 109969286.404 8  85690456.19446  20926443.820                    20926452.605
 126205687.188 7  98342158.21043  24016160.961                    24016173.805
 111411620.970 8  86814297.607 7  21200922.250                    21200930.301
 123126029.149 7  95942456.750 6  23430108.031                    23430117.863
 113367246.606 8  88338250.746 7  21573052.711                    21573061.965
 122911760.176 6  95775478.09044  23389336.305                    23389346.969
 108475292.605 8  84526305.65646  20642145.570                    20642151.914
 124598142.380 7  97089550.433 7  23710241.445                    23710254.363
 11  8 21  0 29  0.0000000  0  9G04G10G09G12G17G05G30G02G25
 116061791.713 7  90437869.04645  22085812.648                    22085820.859
 109985271.264 8  85702911.94846  20929485.844                    20929494.703
 126286603.674 7  98405209.86543  24031558.672                    24031571.328
 111362061.095 8  86775679.549 7  21191491.391                    21191499.484
 123182100.182 7  95986148.437 6  23440777.766                    23440787.355
 113285897.236 7  88274861.700 7  21557572.398                    21557581.430
 122819358.343 6  95703476.75244  23371753.063                    23371763.242
 108481942.906 8  84531487.70046  20643411.383                    20643417.535
 124503342.632 7  97015680.602 7  23692201.242                    23692214.539
 11  8 21  0 29 30.0000000  0  9G04G10G09G12G17G05G30G02G25
 116141376.832 8  90499883.41345  22100956.852                    22100965.746
 110001882.614 8  85715855.87646  20932647.055                    20932655.566
 126367605.383 7  98468327.98243  24046972.969                    24046985.914
 111312981.035 8  86737435.382 7  21182151.563                    21182160.059
 123238340.240 7  96029971.836 6  23451480.125                    23451489.555
 113204921.749 8  88211764.007 7  21542163.164                    21542172.527
 122727277.396 7  95631725.48544  23354230.398                    23354241.352
 108488851.914 8  84536871.35446  20644725.711                    20644731.980
 124408777.920 7  96941993.937 7  23674206.016                    23674219.531
 11  8 21  0 30  0.0000000  0  9G04G10G09G12G17G05G30G02G25
 116221048.936 7  90561965.55845  22116117.852                    22116126.836
 110019120.033 8  85729287.64646  20935926.953                    20935935.938
 126448689.250 7  98531510.07543  24062402.492                    24062416.219
 111264382.790 8  86699566.650 7  21172903.570                    21172911.855
 123294749.505 7  96073927.061 6  23462214.586                    23462224.438
 113124323.022 8  88148959.895 7  21526825.609                    21526834.645
 122635520.239 7  95560226.53544  23336769.523                    23336780.133
 108496018.307 8  84542455.56146  20646089.555                    20646095.984
 124314450.892 7  96868492.502 7  23656256.234                    23656268.941
 11  8 21  0 30 30.0000000  0  9G04G10G09G12G17G05G30G02G25
 116300806.104 7  90624114.01045  22131295.070                    22131304.160
 110036983.220 8  85743207.03246  20939326.438                    20939334.809
 126529851.701 6  98594753.42343  24077847.859                    24077861.340
 111216268.267 8  86662074.834 7  21163747.813                    21163756.488
 123351328.813 7  96118014.835 6  23472980.648                    23472991.539
 113044103.650 8  88086451.376 7  21511559.938                    21511569.410
 122544089.604 7  95488981.99144  23319371.195                    23319381.609
 108503441.055 8  84548239.53446  20647502.047                    20647508.320
 124220364.300 7  96795178.385 7  23638351.672                    23638364.180
 11  8 21  0 31  0.0000000  0  9G04G10G09G12G17G05G30G02G25
 116380647.071 7  90686327.72545  22146488.414                    22146497.613
 110055471.609 8  85757613.60546  20942844.813                    20942853.012
 126611089.606 6  98658055.57343  24093307.109                    24093320.965
 111168639.717 8  86624961.687 7  21154684.563                    21154692.445
 123408078.438 7  96162235.267 7  23483780.055                    23483791.211
 112964266.458 7  88024240.654 7  21496367.656                    21496376.762
 122452988.583 7  95417994.27344  23302035.023                    23302044.602
 108511119.120 8  84554222.44646  20648963.383                    20648969.461
 124126521.004 7  96722053.846 7  23620493.859                    23620507.375
 11  8 21  0 31 30.0000000  0  9G04G10G09G12G17G05G30G02G25
 116460569.661 7  90748605.03545  22161697.555                    22161706.324
 110074584.500 8  85772506.78646  20946481.680                    20946490.113
 126692399.630 6  98721413.86043  24108779.734                    24108793.238
 111121498.890 8  86588228.568 7  21145713.516                    21145721.422
 123464998.640 7  96206588.649 6  23494611.500                    23494621.980
 112884814.066 8  87962329.781 7  21481248.094                    21481257.500
 122362219.669 7  95347265.32644  23284761.773                    23284772.246
 108519050.929 8  84560403.09746  20650472.586                    20650479.313
 124032923.399 7  96649120.766 7  23602682.969                    23602695.590
 11  8 21  0 32  0.0000000  0  9G04G10G09G12G17G05G30G02G25
 116540572.228 7  90810944.66345  22176921.375                    22176930.285
 110094321.320 8  85787886.15746  20950237.508                    20950246.242
 126773778.553 7  98784825.85643  24124265.352                    24124279.262
 111074847.914 8  86551877.154 7  21136836.414                    21136844.465
 123522090.082 6  96251075.469 6  23505475.430                    23505485.715
 112805749.118 7  87900720.810 7  21466202.734                    21466212.059
 122271785.813 7  95276797.45244  23267553.320                    23267562.746
 108527235.549 8  84566780.74646  20652029.984                    20652036.477
 123939574.303 7  96576381.306 6  23584919.172                    23584931.504
 11  8 21  0 32 30.0000000  0  9G04G10G09G12G17G05G30G02G25
 116620653.100 7  90873345.31345  22192160.211                    22192169.352
 110114681.199 8  85803751.00946  20954111.727                    20954120.465
 126855222.710 7  98848288.69543  24139764.219                    24139777.477
 111028688.689 7  86515908.924 7  21128052.484                    21128060.625
 123579353.213 6  96295696.030 6  23516372.484                    23516383.176
 112727074.339 7  87839415.862 7  21451231.469                    21451240.590
 122181689.716 7  95206592.78644  23250408.461                    23250418.039
 108535671.519 8  84573354.25746  20653635.000                    20653641.805
 123846476.300 7  96503837.489 6  23567203.484                    23567215.293
 11  8 21  0 33  0.0000000  0  9G04G10G09G12G17G05G30G02G25
 116700810.548 7  90935805.61545  22207413.914                    22207422.813
 110135663.445 8  85820100.82046  20958104.195                    20958113.156
 126936729.245 7  98911800.16943  24155274.375                    24155287.500
 110983023.147 8  86480325.383 7  21119362.992                    21119370.855
 123636788.590 6  96340450.826 6  23527302.375                    23527312.922
 112648791.632 8  87778416.434 7  21436334.531                    21436344.012
 122091934.140 7  95136653.45944  23233327.734                    23233338.027
 108544357.633 8  84580122.69146  20655288.086                    20655294.453
 123753632.074 7  96431491.437 7  23549535.539                    23549547.809
 11  8 21  0 33 30.0000000  0  9G04G10G09G12G17G05G30G02G25
 116781043.067 7  90998324.42545  22222681.547                    22222690.750
 110157267.347 8  85836935.03146  20962215.781                    20962224.477
 127018294.904 6  98975357.61843  24170796.281                    24170809.098
 110937853.314 8  86445128.113 7  21110767.508                    21110775.188
 123694396.408 6  96385340.034 6  23538264.688                    23538275.246
 112570904.119 8  87717724.923 7  21421512.672                    21421522.281
 122002522.029 7  95066981.73944  23216313.453                    23216323.809
 108553292.807 8  84587085.18446  20656988.234                    20656994.570
 123661044.385 7  96359345.252 7  23531917.000                    23531928.996
 11  8 21  0 34  0.0000000  0  9G04G10G09G12G17G05G30G02G25
 116861348.737 7  91060900.22645  22237963.172                    22237972.711
 110179492.074 8  85854253.01746  20966444.820                    20966453.609
 127099916.271 6  99038958.46343  24186327.234                    24186342.172
 110893180.814 8  86410318.362 7  21102266.156                    21102274.328
 123752177.267 7  96430364.102 6  23549259.547                    23549270.660
 112493414.473 8  87657343.456 7  21406767.453                    21406776.406
 121913455.982 7  94997579.69944  23199364.570                    23199374.645
 108562475.725 8  84594240.72246  20658735.758                    20658742.313
 123568715.855 7  96287401.019 6  23514346.906                    23514359.188
 11  8 21  0 34 30.0000000  0  9G04G10G09G12G17G05G30G02G25
 116941726.004 7  91123531.83245  22253258.453                    22253268.258
 110202336.927 8  85872054.20946  20970791.930                    20970800.656
 127181590.243 6  99102600.30743  24201870.641                    24201883.563
 110849007.981 8  86375897.972 7  21093860.648                    21093868.734
 123810131.837 7  96475523.476 6  23560288.688                    23560299.434
 112416325.215 8  87597273.989 7  21392097.570                    21392106.938
 121824739.080 7  94928449.70044  23182482.461                    23182492.594
 108571905.577 8  84601588.67146  20660530.406                    20660536.906
 123476649.292 7  96215660.918 6  23496827.344                    23496839.176
 11  8 21  0 35  0.0000000  0  9G04G10G09G12G17G05G30G02G25
 117022173.398 7  91186218.06545  22268566.773                    22268576.945
 110225801.607 8  85890338.38346  20975257.148                    20975265.938
 127263313.552 6  99166280.62543  24217421.914                    24217435.488
 110805336.480 8  86341868.221 7  21085549.969                    21085558.270
 123868260.346 6  96520818.398 6  23571349.664                    23571360.395
 112339638.779 7  87537518.398 7  21377504.617                    21377513.617
 121736374.059 7  94859593.90244  23165666.938                    23165676.801
 108581581.276 8  84609128.19446  20662371.672                    20662377.918
 123384847.433 7  96144127.071 6  23479358.148                    23479370.492
 11  8 21  0 35 30.0000000  0  9G04G10G09G12G17G05G30G02G25
 117102688.822 7  91248957.34145  22283888.523                    22283898.527
 110249884.581 8  85909104.33646  20979840.391                    20979848.797
 127345082.608 6  99229996.58543  24232981.945                    24232995.813
 110762167.872 8  86308230.337 7  21077335.719                    21077343.262
 123926562.803 7  96566248.817 6  23582444.836                    23582454.664
 112263357.685 8  87478078.664 7  21362988.484                    21362997.637
 121648363.308 7  94791014.17044  23148919.141                    23148929.039
 108591500.354 8  84616857.35446  20664259.055                    20664265.504
 123293312.486 7  96072801.210 6  23461939.031                    23461951.215
 11  8 21  0 36  0.0000000  0  9G04G10G09G12G17G05G30G02G25
 117183270.864 7  91311748.50045  22299223.141                    22299232.512
 110274584.956 8  85928351.38446  20984540.500                    20984548.871
 127426894.608 6  99293745.96643  24248550.281                    24248564.680
 110719504.148 8  86274985.869 7  21069216.719                    21069224.637
 123985039.986 7  96611815.384 6  23593572.844                    23593582.082
 112187484.341 7  87418956.654 7  21348550.336                    21348559.668
 121560709.717 6  94722712.75543  23132238.797                    23132249.039
 108601662.257 8  84624775.73046  20666192.750                    20666199.090
 123202047.396 7  96001685.611 6  23444572.523                    23444584.070
 11  8 21  0 36 30.0000000  0  9G04G10G09G12G17G05G30G02G25
 117263918.020 7  91374590.41244  22314569.477                    22314578.855
 110299902.551 8  85948079.38046  20989358.258                    20989366.918
 127508746.371 6  99357526.33843  24264125.891                    24264141.078
 110677347.354 8  86242136.416 7  21061194.648                    21061202.625
 124043692.443 7  96657518.568 6  23604734.883                    23604743.781
 112112021.613 8  87360154.610 7  21334190.148                    21334199.207
 121473416.264 7  94654691.94044  23115627.563                    23115637.230
 108612066.333 8  84632882.80746  20668172.805                    20668178.711
 123111054.938 7  95930782.491 7  23427256.797                    23427269.215
 11  8 21  0 37  0.0000000  0  9G04G10G09G12G17G05G30G02G25
 117344628.614 7  91437481.71745  22329928.336                    22329937.781
 110325836.140 8  85968287.38646  20994293.227                    20994301.742
 127590634.550 6  99421335.03643  24279709.211                    24279723.852
 110635699.294 8  86209683.384 7  21053269.383                    21053277.410
 124102520.539 6  96703358.656 6  23615929.094                    23615938.617
 112036971.873 8  87301674.378 7  21319908.609                    21319917.566
 121386485.719 7  94586953.93644  23099085.164                    23099094.867
 108622710.915 8  84641177.29546  20670198.320                    20670204.422
 123020337.811 7  95860093.903 7  23409993.570                    23410006.160
 11  8 21  0 37 30.0000000  0  9G04G10G09G12G17G05G30G02G25
 117425400.681 7  91500420.94945  22345298.938                    22345308.254
 110352384.285 8  85988974.27646  20999344.461                    20999353.184
 127672555.738 6  99485169.49443  24295298.516                    24295313.109
 110594561.597 8  86177628.039 7  21045441.070                    21045449.480
 124161524.602 7  96749335.875 6  23627156.977                    23627166.680
 111962337.561 8  87243517.849 7  21305705.789                    21305714.996
 121299920.605 7  94519500.66244  23082612.133                    23082623.016
 108633594.651 8  84649658.11946  20672269.344                    20672275.695
 122929898.531 7  95789621.810 7  23392783.555                    23392796.098
 11  8 21  0 38  0.0000000  0  9G04G10G09G12G17G05G30G02G25
 117506232.999 7  91563407.12845  22360680.828                    22360690.180
 110379546.257 8  86010139.46546  21004513.922                    21004522.516
 127754506.759 6  99549027.20943  24310892.602                    24310907.559
 110553935.839 8  86145971.618 7  21037710.375                    21037718.313
 124220704.868 6  96795450.374 6  23638417.836                    23638428.480
 111888121.198 8  87185686.989 7  21291583.305                    21291592.008
 121213723.588 7  94452334.24344  23066209.719                    23066219.707
 108644716.219 8  84658324.27946  20674385.703                    20674392.008
 122839739.677 7  95719368.238 7  23375627.500                    23375638.945
 11  8 21  0 38 30.0000000  0  9G04G10G09G12G17G05G30G02G25
 117587124.000 7  91626439.05245  22376074.164                    22376083.203
 110407321.368 8  86031782.42346  21009799.336                    21009808.031
 127836484.576 6  99612905.81543  24326493.172                    24326508.004
 110513824.383 8  86114715.956 7  21030077.000                    21030085.457
 124280061.988 6  96841702.658 6  23649712.453                    23649724.063
 111814325.372 8  87128183.821 7  21277540.281                    21277549.109
 121127897.750 7  94385457.03844  23049877.570                    23049887.031
 108656074.919 8  84667175.21546  20676547.172                    20676553.789
 122749864.361 7  95649335.590 7  23358524.648                    23358536.883
 11  8 21  0 39  0.0000000  0  9G04G10G09G12G17G05G30G02G25
 117668072.031 7  91689515.41845  22391477.883                    22391487.262
 110435708.436 8  86053902.23246  21015201.039                    21015209.660
 127918486.333 6  99676803.10843  24342097.680                    24342113.395
 110474228.726 8  86083862.208 7  21022542.688                    21022550.738
 124339596.142 6  96888092.877 6  23661041.766                    23661053.207
 111740952.415 8  87071010.154 7  21263577.766                    21263587.156
 121042445.750 7  94318871.11944  23033617.203                    23033626.438
 108667669.462 8  84676209.93346  20678753.547                    20678760.105
 122660275.016 7  95579525.784 7  23341476.242                    23341488.230
 11  8 21  0 39 30.0000000  0  9G04G10G09G12G17G05G30G02G25
 117749075.596 7  91752635.06545  22406892.414                    22406901.559
 110464706.546 8  86076498.18046  21020718.930                    21020728.172
 128000508.412 6  99740716.17443  24357706.930                    24357721.727
 110435150.592 8  86053411.738 7  21015105.867                    21015114.098
 124399307.889 6  96934621.439 6  23672405.195                    23672416.293
 111668005.219 8  87014168.270 7  21249696.273                    21249705.355
 120957370.332 7  94252578.63145  23017427.469                    23017437.133
 108679498.392 8  84685427.28846  20681004.461                    20681010.973
 122570974.374 7  95509940.955 7  23324482.328                    23324494.688
 11  8 21  0 40  0.0000000  0  9G04G10G09G12G17G05G30G02G25
 117830132.877 7  91815796.56045  22422316.852                    22422326.641
 110494314.595 8  86099569.41946  21026352.945                    21026362.172
 128082547.405 6  99804642.44043  24373317.773                    24373333.746
 110396591.167 8  86023365.439 7  21007768.648                    21007776.598
 124459197.507 6  96981288.641 6  23683801.133                    23683812.941
 111595485.536 8  86957659.501 7  21235896.109                    21235905.254
 120872673.873 7  94186581.45844  23001309.719                    23001320.309
 108691560.299 8  84694826.18946  20683300.102                    20683306.281
 122481964.888 7  95440582.984 7  23307544.477                    23307556.605
 11  8 21  0 40 30.0000000  0  9G04G10G09G12G17G05G30G02G25
 117911242.665 7  91878998.99344  22437751.539                    22437761.277
 110524531.309 8  86123114.93846  21032103.266                    21032111.770
 128164600.377 6  99868579.61843  24388932.531                    24388947.695
 110358552.631 8  85993725.039 7  21000530.359                    21000538.074
 124519265.494 7  97028094.841 6  23695232.867                    23695242.965
 111523396.048 8  86901485.946 7  21222178.000                    21222186.730
 120788359.433 7  94120881.95144  22985264.914                    22985275.242
 108703854.326 8  84704405.95946  20685639.227                    20685645.527
 122393249.380 7  95371454.075 7  23290662.344                    23290674.699
 11  8 21  0 41  0.0000000  0  9G04G10G09G12G17G05G30G02G25
 117992403.510 7  91942241.19444  22453196.563                    22453205.543
 110555355.601 8  86147133.89546  21037968.805                    21037977.691
 128246664.200 6  99932525.28443  24404548.227                    24404563.910
 110321036.827 8  85964491.968 7  20993390.500                    20993398.742
 124579512.254 7  97075040.370 6  23706696.797                    23706706.395
 111451739.267 8  86845649.567 7  21208541.672                    21208550.750
 120704429.806 7  94055482.30844  22969294.047                    22969304.344
 108716379.470 8  84714165.82446  20688022.945                    20688028.879
 122304830.692 7  95302556.447 7  23273836.508                    23273848.352
 11  8 21  0 41 30.0000000  0  9G04G10G09G12G17G05G30G02G25
 118073613.354 7  92005521.59145  22468650.039                    22468659.117
 110586785.947 8  86171625.10846  21043949.898                    21043958.898
 128328735.906 6  99996477.09743  24420166.906                    24420181.594
 110284044.793 8  85935667.018 7  20986351.648                    20986359.809
 124639937.814 7  97122125.218 6  23718196.133                    23718206.648
 111380517.264 8  86790151.974 7  21194988.875                    21194997.934
 120620887.339 7  93990384.35544  22953396.383                    22953406.016
 108729133.898 8  84724104.35446  20690450.227                    20690456.246
 122216711.116 7  95233891.919 7  23257068.195                    23257080.949
 11  8 21  0 42  0.0000000  0  9G04G10G09G12G17G05G30G02G25
 118154870.908 7  92068839.12245  22484113.055                    22484121.719
 110618821.356 8  86196587.77146  21050045.836                    21050054.926
 128410812.305 6 100060432.58443  24435785.180                    24435800.539
 110247578.646 8  85907251.859 7  20979411.992                    20979420.328
 124700542.640 6  97169349.742 6  23729728.875                    23729739.332
 111309732.458 8  86734995.061 7  21181518.844                    21181527.918
 120537734.734 7  93925590.16044  22937573.039                    22937582.383
 108742116.591 8  84734220.75146  20692920.281                    20692926.313
 122128893.370 7  95165462.561 7  23240357.164                    23240369.672
 11  8 21  0 42 30.0000000  0  9G04G10G09G12G17G05G30G02G25
 118236174.583 7  92132192.60345  22499584.594                    22499593.855
 110651460.814 8  86222021.13746  21056257.523                    21056266.414
 128492890.002 6 100124389.07243  24451404.727                    24451419.188
 110211639.554 8  85879247.397 7  20972573.406                    20972581.438
 124761327.071 6  97216714.212 6  23741295.906                    23741306.320
 111239387.463 8  86680180.843 7  21168132.664                    21168141.574
 120454974.695 7  93861101.86444  22921824.063                    22921833.844
 108755326.113 8  84744513.89946  20695434.148                    20695440.164
 122041380.084 7  95097270.437 6  23223703.586                    23223715.664
 11  8 21  0 43  0.0000000  0  9G04G10G09G12G17G05G30G02G25
 118317523.069 7  92195581.00644  22515064.602                    22515073.777
 110684703.498 8  86247924.55146  21062583.281                    21062591.980
 128574965.997 6 100188344.26843  24467023.219                    24467038.664
 110176229.347 8  85851655.039 7  20965834.977                    20965843.152
 124822291.670 6  97264219.064 6  23752897.023                    23752906.883
 111169484.685 8  86625711.218 7  21154830.422                    21154839.539
 120372610.149 7  93796921.76544  22906150.484                    22906160.254
 108768761.868 8  84754983.33146  20697990.727                    20697996.730
 121954174.222 7  95029317.847 6  23207108.703                    23207121.016
 11  8 21  0 43 30.0000000  0  9G04G10G09G12G17G05G30G02G25
 118398914.665 7  92259002.99844  22530552.664                    22530561.484
 110718547.632 8  86274296.63146  21069023.641                    21069032.180
 128657037.337 6 100252295.82743  24482641.266                    24482656.730
 110141349.641 8  85824476.072 7  20959197.516                    20959205.516
 124883436.591 6  97311864.395 6  23764532.531                    23764542.348
 111100026.369 8  86571587.931 7  21141612.844                    21141621.855
 120290643.595 7  93733051.76744  22890552.320                    22890562.238
 108782422.275 8  84765627.82446  20700590.477                    20700596.262
 121867278.303 7  94961606.759 6  23190573.273                    23190586.035
 11  8 21  0 44  0.0000000  0  9G04G10G09G12G17G05G30G02G25
 118480348.260 7  92322457.76544  22546049.016                    22546057.980
 110752992.045 8  86301136.46646  21075578.164                    21075586.695
 128739100.791 6 100316241.19843  24498257.656                    24498272.734
 110107002.121 8  85797711.805 7  20952661.438                    20952669.207
 124944762.153 7  97359650.551 6  23776202.594                    23776211.531
 111031014.843 8  86517812.781 7  21128480.484                    21128489.660
 120209077.877 7  93669494.15944  22875031.016                    22875041.234
 108796306.432 8  84776446.66246  20703232.805                    20703238.648
 121780694.971 7  94894139.278 6  23174096.891                    23174108.883
 11  8 21  0 44 30.0000000  0  9G04G10G09G12G17G05G30G02G25
 118561822.386 7  92385944.07944  22561553.539                    22561562.332
 110788035.064 8  86328442.72746  21082246.469                    21082254.867
 128821153.183 6 100380178.01643  24513871.586                    24513886.457
 110073188.269 8  85771363.368 7  20946226.570                    20946234.375
 125006268.785 7  97407577.806 6  23787906.516                    23787916.594
 110962452.360 8  86464387.530 7  21115433.070                    21115442.453
 120127915.515 7  93606250.80944  22859586.711                    22859596.168
 108810412.813 8  84787438.68046  20705916.820                    20705923.043
 121694426.855 7  94826917.433 7  23157680.438                    23157692.469
 11  8 21  0 45  0.0000000  0  9G04G10G09G12G17G05G30G02G25
 118643335.176 7  92449460.52544  22577064.422                    22577073.609
 110823675.452 8  86356214.48146  21089028.023                    21089036.941
 128903191.322 6 100444103.73343  24529482.867                    24529497.188
 110039909.523 8  85745431.906 7  20939894.000                    20939901.965
 125067956.675 6  97455646.291 6  23799645.352                    23799655.344
 110894340.874 8  86411313.704 7  21102472.336                    21102481.457
 120047158.987 7  93543323.69844  22844219.305                    22844229.195
 108824740.199 8  84798602.89746  20708643.273                    20708649.645
 121608476.539 7  94759943.211 6  23141325.281                    23141337.016
 11  8 21  0 45 30.0000000  0  9G04G10G09G12G17G05G30G02G25
 118724885.326 7  92513006.09844  22592583.172                    22592591.512
 110859912.048 8  86384450.81346  21095923.852                    21095932.949
 128985212.217 6 100508015.95143  24545090.453                    24545106.309
 110007167.283 8  85719918.494 7  20933663.352                    20933671.410
 125129826.115 6  97503856.251 6  23811417.422                    23811428.078
 110826683.169 8  86358593.480 7  21089597.227                    21089606.125
 119966811.156 7  93480715.05544  22828929.242                    22828939.137
 108839287.397 8  84809938.41046  20711411.234                    20711417.684
 121522846.759 7  94693218.754 6  23125030.148                    23125041.438
 11  8 21  0 46  0.0000000  0  9G04G10G09G12G17G05G30G02G25
 118806471.747 7  92576579.90144  22608108.773                    22608118.055
 110896743.893 7  86413150.95246  21102932.984                    21102941.938
 129067212.935 6 100571912.46743  24560694.594                    24560711.020
 109974963.163 8  85694824.409 7  20927535.273                    20927543.320
 125191877.580 6  97552208.007 6  23823226.016                    23823236.262
 110759481.482 8  86306228.586 7  21076809.031                    21076817.965
 119886874.697 7  93418426.97044  22813718.047                    22813727.418
 108854053.323 8  84821444.36246  20714220.734                    20714227.254
 121437540.274 7  94626746.162 6  23108796.703                    23108807.898
 11  8 21  0 46 30.0000000  0  9G04G10G09G12G17G05G30G02G25
 118888092.739 7  92640180.64145  22623640.961                    22623649.973
 110934169.314 8  86442313.61046  21110055.328                    21110063.918
 129149190.337 6 100635790.77743  24576294.086                    24576310.906
 109943298.624 8  85670150.773 7  20921509.469                    20921517.258
 125254111.255 6  97600701.805 5  23835069.273                    23835078.742
 110692737.648 8  86254220.464 8  21064108.070                    21064117.227
 119807352.182 7  93356461.43244  22798585.305                    22798594.902
 108869036.919 8  84833119.92346  20717072.648                    20717078.328
 121352559.661 7  94560527.563 6  23092625.633                    23092637.328
 11  8 21  0 47  0.0000000  0  9G04G10G09G12G17G05G30G02G25
 118969746.984 7  92703807.30844  22639178.891                    22639187.996
 110972186.449 8  86471937.33846  21117289.242                    21117298.188
 129231141.189 6 100699648.42243  24591890.109                    24591905.953
 109912174.906 8  85645898.559 7  20915586.953                    20915594.281
 125316527.654 6  97649338.018 6  23846946.688                    23846955.688
 110626454.207 8  86202571.093 7  21051495.180                    21051504.020
 119728246.215 7  93294820.46645  22783532.102                    22783541.875
 108884236.952 8  84844964.14046  20719964.984                    20719970.875
 121267907.553 7  94494564.938 6  23076516.680                    23076527.605
 11  8 21  0 47 30.0000000  0  9G04G10G09G12G17G05G30G02G25
 119051433.156 7  92767458.88244  22654722.891                    22654732.281
 111010794.063 8  86502021.18046  21124635.836                    21124645.039
 129313062.631 6 100763483.15643  24607480.070                    24607494.895
 109881594.119 8  85622069.418 7  20909767.516                    20909775.125
 125379126.878 6  97698116.684 6  23858858.969                    23858869.281
 110560633.440 8  86151282.246 7  21038969.695                    21038978.441
 119649559.415 7  93233506.12944  22768558.406                    22768568.160
 108899652.173 8  84856976.04546  20722898.297                    20722904.289
 121183586.565 7  94428860.320 6  23060471.180                    23060481.883
 11  8 21  0 48  0.0000000  0  9G04G10G09G12G17G05G30G02G25
 119133149.489 7  92831133.93044  22670273.195                    22670282.777
 111049990.449 8  86532563.82046  21132095.000                    21132103.801
 129394951.419 6 100827292.42043  24623062.164                    24623078.059
 109851556.274 8  85598663.334 7  20904051.609                    20904059.711
 125441908.971 6  97747037.811 6  23870806.070                    23870817.273
 110495277.547 8  86100355.638 7  21026532.977                    21026541.750
 119571294.048 7  93172520.15544  22753664.695                    22753674.508
 108915280.878 8  84869154.28946  20725872.109                    20725877.891
 121099598.972 7  94363415.489 6  23044488.445                    23044499.992
 11  8 21  0 48 30.0000000  0  9G04G10G09G12G17G05G30G02G25
 119214895.007 7  92894831.72044  22685828.930                    22685838.633
 111089774.744 8  86563564.57045  21139665.305                    21139673.742
 129476804.674 6 100891073.99343  24638638.563                    24638654.547
 109822063.768 8  85575682.183 7  20898439.320                    20898447.027
 125504874.417 6  97796101.806 6  23882788.180                    23882798.723
 110430388.547 8  86049792.839 7  21014184.477                    21014193.480
 119493453.087 7  93111864.88044  22738852.133                    22738861.008
 108931122.432 8  84881498.38746  20728886.836                    20728893.211
 121015947.878 7  94298232.849 6  23028569.773                    23028581.090
 11  8 21  0 49  0.0000000  0  9G04G10G09G12G17G05G30G02G25
 119296668.310 7  92958551.18944  22701389.492                    22701399.180
 111130145.364 8  86595022.20045  21147347.609                    21147356.246
 129558619.236 6 100954825.42043  24654208.008                    24654223.555
 109793117.801 8  85553126.927 7  20892930.922                    20892938.992
 125568023.544 6  97845308.920 6  23894805.063                    23894816.016
 110365968.541 8  85999595.495 7  21001926.219                    21001934.641
 119416038.979 7  93051542.22544  22724120.945                    22724129.516
 108947175.480 8  84894007.29046  20731941.727                    20731947.582
 120932635.715 7  94233314.323 6  23012716.688                    23012727.746
 11  8 21  0 49 30.0000000  0  9G04G10G09G12G17G05G30G02G25
 119378467.626 7  93022290.91744  22716955.328                    22716965.480
 111171100.055 7  86626934.94645  21155141.141                    21155149.625
 129640392.018 6 101018544.28543  24669769.266                    24669784.363
 109764719.331 7  85530998.273 7  20887526.750                    20887534.750
 125631356.570 6  97894659.317 6  23906856.586                    23906867.246
 110302019.269 7  85949764.955 7  20989756.930                    20989765.383
 119339054.013 7  92991553.95644  22709470.789                    22709480.230
 108963438.343 7  84906679.68346  20735035.883                    20735042.219
 120849664.913 7  94168661.789 6  22996927.711                    22996939.016
 11  8 21  0 50  0.0000000  0  9G04G10G09G12G17G05G30G02G25
 119460291.883 7  93086050.06644  22732526.266                    22732536.402
 111212637.609 8  86659301.86146  21163045.914                    21163054.969
 129722120.265 7 101082228.42943  24685322.367                    24685337.410
 109736870.025 8  85509297.547 7  20882227.219                    20882235.254
 125694873.679 6  97944153.134 6  23918943.930                    23918953.750
 110238543.634 8  85900303.476 7  20977678.133                    20977686.480
 119262501.222 7  92931902.48344  22694903.945                    22694913.230
 108979910.801 8  84919515.39946  20738170.484                    20738176.563
 120767038.465 7  94104277.560 6  22981204.531                    22981215.668
 11  8 21  0 50 30.0000000  0  9G04G10G09G12G17G05G30G02G25
 119542140.298 7  93149828.04145  22748101.547                    22748111.121
 111254756.424 8  86692121.72946  21171060.641                    21171069.156
 129803800.840 7 101145875.46644  24700865.078                    24700880.930
 109709571.181 8  85488025.763 7  20877032.234                    20877040.344
 125758575.011 6  97993790.534 6  23931065.875                    23931075.508
 110175543.539 8  85851212.550 7  20965689.250                    20965698.027
 119186382.889 7  92872589.51045  22680418.586                    22680428.277
 108996591.121 8  84932513.07846  20741344.906                    20741350.914
 120684758.726 7  94040163.534 7  22965546.633                    22965558.773
 11  8 21  0 51  0.0000000  0  9G04G10G09G12G17G05G30G02G25
 119624010.747 7  93213623.18445  22763681.508                    22763691.023
 111297454.768 8  86725393.17446  21179186.203                    21179194.605
 129885430.614 6 101209482.93643  24716398.156                    24716414.504
 109682824.002 8  85467183.830 7  20871942.617                    20871950.449
 125822460.981 6  98043571.813 6  23943222.352                    23943232.395
 110113020.766 8  85802493.568 7  20953791.641                    20953800.414
 119110701.534 7  92813617.05444  22666016.539                    22666025.969
 109013478.016 8  84945671.71746  20744558.156                    20744564.113
 120602828.315 7  93976321.708 7  22949955.977                    22949968.129
 11  8 21  0 51 30.0000000  0  9G04G10G09G12G17G05G30G02G25
 119705902.217 7  93277434.71445  22779264.680                    22779274.844
 111340731.093 7  86759115.01546  21187420.891                    21187429.398
 129967006.825 6 101273048.56444  24731921.805                    24731938.676
 109656629.619 8  85446772.661 7  20866957.805                    20866965.988
 125886531.552 6  98093496.942 6  23955415.242                    23955424.484
 110050977.605 8  85754148.310 7  20941985.016                    20941993.777
 119035459.740 7  92754987.12344  22651698.789                    22651707.938
 109030570.497 8  84958990.54546  20747810.883                    20747816.902
 120521249.893 7  93912754.142 7  22934432.594                    22934443.941
 11  8 21  0 52  0.0000000  0  9G04G10G09G12G17G05G30G02G25
 119787813.519 7  93341261.68144  22794852.039                    22794861.059
 111384584.107 7  86793286.22746  21195765.719                    21195774.535
 130048526.633 6 101336570.24043  24747434.305                    24747451.273
 109630990.009 8  85426793.772 7  20862079.008                    20862087.000
 125950787.341 7  98143566.403 6  23967642.469                    23967652.520
 109989416.415 8  85706178.610 7  20930270.336                    20930279.230
 118960660.260 7  92696701.83544  22637464.641                    22637474.063
 109047867.713 8  84972468.90846  20751102.719                    20751108.609
 120440026.224 7  93849463.018 7  22918975.695                    22918987.703
 11  8 21  0 52 30.0000000  0  9G04G10G09G12G17G05G30G02G25
 119869743.035 7  93405102.85944  22810442.398                    22810450.766
 111429011.626 7  86827905.10046  21204219.938                    21204228.523
 130129986.737 6 101400045.37143  24762936.477                    24762952.473
 109605905.219 8  85407247.204 7  20857305.266                    20857313.305
 126015228.425 6  98193780.200 6  23979904.766                    23979915.297
 109928339.176 8  85658586.023 8  20918647.680                    20918655.918
 118886305.309 7  92638762.93545  22623315.805                    22623325.652
 109065368.083 8  84986105.56246  20754432.859                    20754438.848
 120359159.653 8  93786450.142 7  22903587.180                    22903598.785
 11  8 21  0 53  0.0000000  0  9G04G10G09G12G17G05G30G02G25
 119951689.665 7  93468957.33844  22826036.094                    22826044.840
 111474012.087 7  86862970.42046  21212783.297                    21212791.688
 130211384.319 6 101463471.74543  24778425.945                    24778442.762
 109581376.637 8  85388134.052 7  20852638.000                    20852645.480
 126079854.744 6  98244138.336 6  23992202.023                    23992213.180
 109867747.306 8  85611371.644 7  20907117.438                    20907126.031
 118812397.170 7  92581172.21544  22609251.711                    22609260.980
 109083070.087 8  84999899.33346  20757801.547                    20757806.953
 120278652.541 7  93723717.369 7  22888267.258                    22888279.148
 11  8 21  0 53 30.0000000  0  9G04G10G09G12G17G05G30G02G25
 120033652.154 7  93532824.17744  22841633.023                    22841642.480
 111519583.779 7  86898480.86045  21221455.227                    21221463.613
 130292716.285 6 101526847.08443  24793902.438                    24793919.441
 109557405.959 8  85369455.635 7  20848076.414                    20848084.145
 126144666.787 6  98294641.185 6  24004535.484                    24004547.070
 109807643.089 8  85564537.245 7  20895679.977                    20895688.469
 118738938.578 7  92523931.79344  22595272.680                    22595281.789
 109100972.911 8  85013849.57546  20761208.125                    20761213.945
 120198507.776 7  93661266.948 7  22873016.266                    22873028.148
 11  8 21  0 54  0.0000000  0  9G04G10G09G12G17G05G30G02G25
 120115629.157 7  93596702.29344  22857233.367                    22857242.063
 111565724.750 7  86934434.89745  21230235.469                    21230244.375
 130373979.841 6 101590169.12943  24809367.234                    24809383.262
 109533993.772 8  85351212.405 7  20843621.273                    20843628.426
 126209664.584 6  98345288.767 6  24016905.148                    24016915.871
 109748028.541 8  85518084.411 7  20884335.461                    20884344.059
 118665931.939 7  92467043.51245  22581379.953                    22581389.930
 109119075.331 8  85027955.34546  20764652.859                    20764658.578
 120118727.803 7  93599100.790 7  22857834.656                    22857846.520
 11  8 21  0 54 30.0000000  0  9G04G10G09G12G17G05G30G02G25
 120197619.318 7  93660590.69844  22872835.305                    22872845.160
 111612433.288 7  86970831.19246  21239123.781                    21239133.113
 130455172.073 6 101653435.56543  24824818.734                    24824834.656
 109511141.144 8  85333405.173 7  20839272.164                    20839280.184
 126274848.385 6  98396081.317 6  24029309.523                    24029319.961
 109688905.633 8  85472014.669 8  20873084.648                    20873093.035
 118593379.537 7  92410509.22944  22567573.406                    22567583.508
 109137376.134 8  85042215.69146  20768135.758                    20768141.105
 120039315.111 7  93537220.829 7  22842723.234                    22842734.121
 11  8 21  0 55  0.0000000  0  9G04G10G09G12G17G05G30G02G25
 120279621.854 7  93724488.72644  22888439.992                    22888449.527
 111659707.633 8  87007668.37346  21248119.625                    21248128.813
 130536289.911 5 101716644.13243  24840254.289                    24840271.047
 109488849.590 8  85316035.155 7  20835030.336                    20835038.203
 126340218.471 6  98447019.055 6  24041748.195                    24041759.668
 109630276.336 8  85426329.564 7  20861927.914                    20861936.227
 118521284.170 7  92354331.04145  22553853.945                    22553864.074
 109155874.732 8  85056630.16546  20771655.641                    20771661.238
 119960272.524 7  93475629.222 7  22827681.000                    22827692.305
 11  8 21  0 55 30.0000000  0  9G04G10G09G12G17G05G30G02G25
 120361635.288 7  93788395.26444  22904046.391                    22904055.848
 111707546.036 8  87044945.06646  21257223.602                    21257232.023
 130617330.642 5 101779792.50443  24855675.086                    24855692.480
 109467120.383 8  85299103.309 7  20830895.289                    20830902.801
 126405774.998 6  98498102.108 6  24054223.828                    24054234.020
 109572142.703 8  85381030.684 7  20850865.492                    20850874.125
 118449648.189 7  92298510.85045  22540222.594                    22540232.629
 109174569.567 8  85071197.55146  20775213.633                    20775219.281
 119881602.550 7  93414327.984 7  22812711.008                    22812722.371
 11  8 21  0 56  0.0000000  0  8G04G10G12G17G05G30G02G25
 120443659.544 7  93852310.22144  22919655.367                    22919664.453
 111755947.753 8  87082660.69946  21266433.859                    21266442.418
 109445955.236 8  85282610.991 7  20826867.664                    20826875.523
 126471519.312 7  98549331.456 6  24066734.727                    24066744.934
 109514507.832 8  85336120.453 7  20839898.023                    20839906.199
 118378475.011 7  92243051.25844  22526678.273                    22526688.277
 109193460.396 8  85085917.66946  20778807.789                    20778813.520
 119803308.685 7  93353319.819 7  22797812.047                    22797823.473
 11  8 21  0 56 30.0000000  0  8G04G10G12G17G05G30G02G25
 120525693.161 7  93916232.45844  22935265.477                    22935275.066
 111804910.622 8  87120813.59845  21275751.031                    21275759.078
 109425354.818 8  85266558.720 7  20822947.789                    20822955.867
 126537451.298 6  98600707.071 6  24079280.398                    24079291.500
 109457373.021 8  85291599.874 7  20829025.344                    20829033.887
 118307766.813 7  92187954.00045  22513223.344                    22513232.648
 109212546.018 8  85100789.57946  20782439.906                    20782445.402
 119725393.331 7  93292606.593 7  22782985.578                    22782997.320
 11  8 21  0 57  0.0000000  0  8G04G10G12G17G05G30G02G25
 120607733.635 7  93980160.05444  22950877.930                    22950886.816
 111854431.290 7  87159401.13245  21285174.398                    21285182.684
 109405319.002 8  85250946.403 7  20819135.188                    20819142.906
 126603569.705 6  98652227.921 6  24091862.867                    24091872.996
 109400738.819 8  85247469.382 7  20818248.219                    20818256.484
 118237524.695 7  92133219.92045  22499856.531                    22499866.387
 109231823.899 8  85115811.30346  20786108.289                    20786114.453
 119647857.606 7  93232189.200 7  22768230.461                    22768242.508
 11  8 21  0 57 30.0000000  0  8G04G10G12G17G05G30G02G25
 120689779.979 7  94044092.21744  22966490.469                    22966500.125
 111904508.210 8  87198422.11346  21294703.867                    21294712.340
 109385849.348 8  85235775.238 7  20815429.891                    20815438.160
 126669874.824 6  98703894.272 6  24104480.398                    24104489.699
 109344607.583 8  85203730.809 7  20807566.852                    20807575.184
 118167751.318 7  92078851.09245  22486579.180                    22486589.113
 109251293.312 8  85130982.28746  20789813.148                    20789818.977
 119570704.371 7  93172069.848 7  22753548.789                    22753560.406
 11  8 21  0 58  0.0000000  0  8G04G10G12G17G05G30G02G25
 120771831.152 7  94108028.17744  22982103.719                    22982113.656
 111955139.616 7  87237875.14545  21304338.500                    21304347.727
 109366946.585 8  85221045.819 7  20811832.992                    20811840.961
 126736366.851 6  98755706.279 6  24117132.789                    24117142.691
 109288981.376 8  85160385.762 8  20796981.281                    20796990.258
 118098449.036 7  92024849.37745  22473391.344                    22473401.113
 109270953.092 8  85146301.60546  20793554.508                    20793559.984
 119493936.164 7  93112250.500 7  22738940.367                    22738951.965
 11  8 21  0 58 30.0000000  0  8G04G10G12G17G05G30G02G25
 120853885.617 7  94171966.67944  22997718.305                    22997728.395
 112006323.041 7  87277758.31646  21314078.445                    21314087.367
 109348610.990 8  85206758.339 7  20808343.953                    20808351.652
 126803045.894 6  98807663.978 6  24129821.969                    24129831.777
 109233861.219 8  85117435.059 8  20786492.586                    20786501.070
 118029619.840 7  91971216.28745  22460293.359                    22460302.273
 109290801.634 8  85161768.02746  20797331.383                    20797337.461
 119417555.065 7  93052732.817 7  22724405.805                    22724417.391
 11  8 21  0 59  0.0000000  0  8G04G10G12G17G05G30G02G25
 120935942.319 7  94235906.92144  23013333.305                    23013343.137
 112058056.732 8  87318070.25945  21323923.430                    21323932.090
 109330843.609 8  85192913.632 7  20804962.789                    20804970.555
 126869911.860 6  98859767.356 6  24142546.047                    24142555.613
 109179249.213 8  85074880.298 8  20776100.258                    20776108.551
 117961266.246 7  91917953.78845  22447286.508                    22447295.711
 109310837.888 8  85177380.72846  20801143.727                    20801150.191
 119341563.824 8  92993518.905 7  22709944.961                    22709955.891
 11  8 21  0 59 30.0000000  0  8G04G10G12G17G05G30G02G25
 121018000.468 7  94299848.29144  23028949.211                    23028958.852
 112110339.089 7  87358809.73345  21333872.227                    21333881.297
 109313645.913 8  85179512.825 7  20801690.141                    20801698.133
 126936965.382 6  98912016.895 6  24155305.469                    24155315.145
 109125147.324 8  85032723.032 8  20765804.500                    20765813.008
 117893390.843 7  91865063.92945  22434370.023                    22434378.953
 109331061.344 8  85193139.30446  20804992.328                    20804998.438
 119265965.130 7  92934610.885 7  22695558.828                    22695570.250
 11  8 21  1  0  0.0000000  0  8G04G10G12G17G05G30G02G25
 121100058.517 7  94363789.57344  23044564.078                    23044574.094
 112163167.684 7  87399974.86545  21343925.250                    21343933.816
 109297018.513 8  85166556.400 7  20798526.258                    20798534.223
 127004206.370 6  98964412.538 5  24168101.539                    24168110.852
 109071557.302 8  84990964.635 8  20755606.805                    20755615.367
 117825995.662 7  91812548.26245  22421544.953                    22421553.848
 109351470.391 8  85209042.50446  20808876.023                    20808882.148
 119190761.279 7  92876010.546 7  22681248.344                    22681259.359
 11  8 21  1  0 30.0000000  0  8G04G10G12G17G05G30G02G25
 121182115.785 7  94427730.25944  23060179.609                    23060188.652
 112216540.630 7  87441564.17845  21354081.492                    21354090.363
 109280962.316 8  85154045.080 7  20795470.797                    20795478.527
 127071634.769 6  99016954.241 5  24180931.211                    24180941.699
 109018480.961 8  84949606.510 8  20745506.555                    20745515.105
 117759083.085 7  91760408.66945  22408811.734                    22408821.492
 109372063.922 8  85225089.45346  20812794.680                    20812801.039
 119115954.786 7  92817719.827 7  22667012.883                    22667023.891
 11  8 21  1  1  0.0000000  0  8G04G10G12G17G05G30G02G25
 121264171.069 7  94491669.43344  23075793.961                    23075803.168
 112270456.284 8  87483576.40445  21364341.977                    21364349.910
 109265478.052 8  85141979.425 7  20792524.313                    20792532.070
 127139250.845 6  99069642.159 5  24193797.203                    24193808.082
 108965920.150 8  84908650.087 8  20735504.727                    20735513.332
 117692655.513 7  91708646.97645  22396171.234                    22396180.477
 109392841.006 8  85241279.42746  20816748.078                    20816754.551
 119041548.255 7  92759740.790 7  22652853.758                    22652865.469
 11  8 21  1  1 30.0000000  0  8G04G10G12G17G05G30G02G25
 121346223.455 7  94555606.36444  23091408.148                    23091417.766
 112324912.401 8  87526009.76545  21374704.070                    21374713.012
 109250566.867 8  85130360.327 7  20789686.734                    20789694.504
 127207054.71515  99122476.42415  24206699.422                    24206710.797
 108913876.405 8  84868096.583 8  20725601.008                    20725609.316
 117626715.297 7  91657265.07645  22383623.227                    22383632.719
 109413800.702 8  85257611.69146  20820737.164                    20820743.105
 118967544.265 7  92702075.425 7  22638771.180                    22638783.215
 11  8 21  1  2  0.0000000  0  8G04G10G12G17G05G30G02G25
 121428271.689 7  94619540.03944  23107020.984                    23107031.676
 112379906.908 7  87568862.65045  21385168.922                    21385178.164
 109236229.203 8  85119188.120 7  20786958.492                    20786966.434
 127275046.753 6  99175457.217 6  24219639.461                    24219650.238
 108862351.502 8  84827947.359 7  20715796.125                    20715804.523
 117561264.733 7  91606264.70845  22371167.984                    22371177.574
 109434941.868 8  85274085.36346  20824759.898                    20824766.020
 118893945.232 7  92644725.607 7  22624765.383                    22624776.902
 11  8 21  1  2 30.0000000  0  8G04G10G12G17G05G30G02G25
 121510314.592 7  94683469.57444  23122632.703                    23122642.945
 112435437.642 8  87612133.37445  21395736.813                    21395745.359
 109222466.003 8  85108463.556 7  20784339.344                    20784347.406
 127343226.455 6  99228584.245 6  24232613.570                    24232625.199
 108811347.077 8  84788203.706 8  20706090.227                    20706098.625
 117496305.818 7  91555647.43445  22358806.859                    22358815.898
 109456263.019 8  85290699.27546  20828817.383                    20828823.047
 118820753.432 8  92587693.114 7  22610838.039                    22610848.441
 11  8 21  1  3  0.0000000  0  8G04G10G12G17G05G30G02G25
 121592351.277 7  94747394.24344  23138244.500                    23138253.766
 112491502.465 8  87655820.26645  21406405.180                    21406413.660
 109209277.722 8  85098186.980 7  20781829.734                    20781837.250
 127411594.100 6  99281857.795 6  24245624.055                    24245634.289
 108760864.708 8  84748866.848 8  20696483.688                    20696491.602
 117431840.846 7  91505415.07545  22346539.563                    22346549.117
 109477763.492 8  85307452.92246  20832908.570                    20832914.488
 118747971.343 8  92530979.881 7  22596987.320                    22596998.668
 11  8 21  1  3 30.0000000  0  8G04G10G12G17G05G30G02G25
 121674380.556 7  94811313.13044  23153853.750                    23153862.637
 112548099.179 7  87699921.61845  21417175.102                    21417183.785
 109196664.859 8  85088358.779 7  20779429.391                    20779436.711
 127480149.730 6  99335277.807 6  24258669.961                    24258680.633
 108710906.134 8  84709938.139 8  20686976.805                    20686985.410
 117367871.886 7  91455569.20545  22334366.633                    22334375.691
 109499441.709 8  85324345.05946  20837033.984                    20837040.035
 118675601.288 7  92474587.711 7  22583216.016                    22583226.992
 11  8 21  1  4  0.0000000  0  8G04G10G12G17G05G30G02G25
 121756401.092 7  94875225.21143  23169461.898                    23169470.848
 112605225.409 8  87744435.60345  21428046.156                    21428054.473
 109184628.332 8  85078979.677 7  20777138.797                    20777146.863
 127548893.358 6  99388844.292 6  24271751.219                    24271761.703
 108661472.248 8  84671418.274 8  20677569.797                    20677578.570
 117304400.962 7  91406111.42745  22322288.219                    22322297.500
 109521296.554 8  85341374.83246  20841192.367                    20841198.840
 118603645.461 7  92418518.309 7  22569522.711                    22569534.180
 11  8 21  1  4 30.0000000  0  8G04G10G12G17G05G30G02G25
 121838412.096 6  94939129.81643  23185068.250                    23185077.609
 112662878.987 7  87789360.50645  21439016.984                    21439025.539
 109173168.879 8  85070050.242 7  20774958.055                    20774966.262
 127617825.068 6  99442557.342 6  24284868.766                    24284879.137
 108612565.153 8  84633308.900 8  20668263.242                    20668271.625
 117241430.555 7  91357043.65445  22310305.625                    22310314.793
 109543327.303 8  85358541.66846  20845384.641                    20845390.961
 118532106.485 7  92362773.745 7  22555909.438                    22555920.410
 11  8 21  1  5  0.0000000  0  8G04G10G12G17G05G30G02G25
 121920412.768 6  95003026.40244  23200672.133                    23200681.551
 112721058.281 8  87834695.04145  21450088.031                    21450096.652
 109162286.685 8  85061570.614 7  20772887.516                    20772895.398
 127686944.869 6  99496416.927 6  24298021.930                    24298031.559
 108564186.471 8  84595611.270 8  20659057.109                    20659065.406
 117178962.784 7  91308367.54145  22298418.070                    22298427.672
 109565532.727 8  85375844.61046  20849610.500                    20849616.492
 118460986.903 7  92307355.957 7  22542375.844                    22542386.898
 11  8 21  1  5 30.0000000  0  8G04G10G12G17G05G30G02G25
 122002402.057 6  95066914.18244  23216274.383                    23216283.246
 112779760.919 8  87880437.37945  21461259.109                    21461267.746
 109151982.695 8  85053541.542 7  20770926.820                    20770934.438
 127756252.781 6  99550423.137 6  24311210.445                    24311220.871
 108516337.528 8  84558326.428 8  20649951.461                    20649959.641
 117116999.877 7  91260084.83045  22286626.883                    22286636.109
 109587911.945 8  85393282.98046  20853868.922                    20853875.176
 118390289.053 7  92252266.819 7  22528923.164                    22528933.797
 11  8 21  1  6  0.0000000  0  9G04G10G29G12G17G05G30G02G25
 122084378.647 7  95130792.04744  23231873.773                    23231883.957
 112838984.138 8  87926585.35845  21472528.883                    21472537.316
 129619355.09916 101002146.45816  24665751.500                    24665762.730
 109142257.437 8  85045963.423 7  20769076.203                    20769084.113
 127825748.777 7  99604575.894 6  24324435.750                    24324445.543
 108469019.954 8  84521455.637 8  20640947.227                    20640955.563
 117055543.751 7  91212197.02445  22274931.648                    22274940.969
 109610463.711 8  85410855.79346  20858160.391                    20858166.520
 118320015.183 7  92197508.011 7  22515549.875                    22515560.684
 11  8 21  1  6 30.0000000  0  9G04G10G29G12G17G05G30G02G25
 122166341.487 7  95194659.17944  23247470.781                    23247481.711
 112898725.866 8  87973137.34045  21483897.227                    21483906.281
 129539946.220 6 100940269.386 5  24650641.016                    24650651.996
 109133111.150 8  85038836.447 7  20767335.664                    20767343.570
 127895432.600 7  99658875.066 6  24337696.086                    24337705.570
 108422234.986 8  84484999.854 8  20632044.422                    20632052.664
 116994596.296 7  91164705.56645  22263334.273                    22263343.160
 109633186.558 8  85428561.90946  20862484.531                    20862490.535
 118250167.383 8  92143081.222 6  22502258.891                    22502268.902
 11  8 21  1  7  0.0000000  0  9G04G10G29G12G17G05G30G02G25
 122248289.263 7  95258514.57644  23263065.383                    23263075.152
 112958983.399 8  88020091.25745  21495363.859                    21495372.867
 129460457.379 6 100878330.095 5  24635515.133                    24635526.082
 109124544.290 8  85032160.991 7  20765705.445                    20765713.195
 127965304.128 7  99713320.489 6  24350992.078                    24351001.176
 108375983.736 8  84448959.962 8  20623243.305                    20623251.414
 116934159.252 7  91117611.84745  22251833.305                    22251842.195
 109656079.252 8  85446400.37646  20866840.922                    20866847.230
 118180747.718 7  92088988.023 7  22489048.352                    22489058.316
 11  8 21  1  7 30.0000000  0  9G04G10G29G12G17G05G30G02G25
 122330221.552 7  95322357.87444  23278656.852                    23278666.164
 113019755.001 8  88067445.74745  21506928.438                    21506937.203
 129380889.506 6 100816329.216 5  24620374.289                    24620384.949
 109116557.543 8  85025937.558 7  20764185.563                    20764193.527
 128035363.749 7  99767912.470 6  24364323.375                    24364333.711
 108330268.300 8  84413337.591 8  20614543.438                    20614551.945
 116874235.381 7  91070917.99845  22240429.766                    22240439.258
 109679141.272 8  85464370.78246  20871229.336                    20871235.508
 118111759.162 7  92035230.774 7  22475919.758                    22475931.117
 11  8 21  1  8  0.0000000  0  9G04G10G29G12G17G05G30G02G25
 122412137.470 7  95386188.42044  23294244.281                    23294254.477
 113081038.430 7  88115199.05545  21518590.305                    21518598.383
 129301243.115 6 100754267.268 5  24605217.297                    24605228.551
 109109151.075 8  85020166.292 7  20762776.031                    20762783.641
 128105611.537 7  99822651.037 6  24377690.617                    24377700.992
 108285089.757 8  84378133.576 8  20605946.430                    20605954.688
 116814826.550 7  91024625.47345  22229125.180                    22229134.309
 109702371.642 8  85482472.37846  20875649.836                    20875656.211
 118043203.878 7  91981811.130 7  22462874.414                    22462885.484
 11  8 21  1  8 30.0000000  0  9G04G10G29G12G17G05G30G02G25
 122494035.939 7  95450005.40144  23309829.891                    23309839.395
 113142831.548 7  88163349.53245  21530348.852                    21530357.266
 129221518.812 6 100692144.616 5  24590046.531                    24590056.988
 109102325.634 8  85014847.774 7  20761477.023                    20761485.148
 128176047.392 6  99877536.159 6  24391094.500                    24391105.070
 108240449.810 8  84343349.243 8  20597451.656                    20597460.125
 116755934.830 7  90978735.88045  22217918.477                    22217927.023
 109725769.092 8  85500704.15446  20880102.516                    20880108.305
 117975084.281 7  91928730.992 7  22449911.461                    22449922.973
 11  8 21  1  9  0.0000000  0  9G04G10G29G12G17G05G30G02G25
 122575916.197 6  95513808.23844  23325410.406                    23325420.707
 113205132.107 7  88211895.40845  21542204.203                    21542212.867
 129141717.105 6 100629961.672 6  24574860.156                    24574871.176
 109096082.203 8  85009982.775 7  20760289.117                    20760297.176
 128246671.268 6  99932567.822 6  24404533.727                    24404544.363
 108196349.875 8  84308985.700 8  20589059.875                    20589068.160
 116697562.310 7  90933250.86545  22206810.258                    22206818.953
 109749332.631 8  85519065.37146  20884586.414                    20884592.875
 117907402.769 7  91875992.207 7  22437032.070                    22437042.723
 11  8 21  1  9 30.0000000  0  9G04G10G29G12G17G05G30G02G25
 122657777.166 7  95577596.01944  23340988.094                    23340998.301
 113267937.290 7  88260834.49145  21554155.422                    21554164.453
 129061838.551 6 100567718.857 6  24559659.164                    24559671.145
 109090420.389 8  85005570.991 7  20759211.539                    20759219.645
 128317483.152 6  99987745.953 6  24418008.234                    24418019.273
 108152791.019 8  84275043.775 8  20580770.898                    20580779.078
 116639710.898 7  90888171.89545  22195801.359                    22195810.219
 109773061.151 8  85537555.13146  20889101.680                    20889107.938
 117840161.413 7  91823596.399 7  22424236.188                    22424247.746
 11  8 21  1 10  0.0000000  0  9G04G10G29G12G17G05G30G02G25
 122739618.109 6  95641368.19644  23356561.953                    23356572.176
 113331245.208 7  88310165.31745  21566202.695                    21566211.504
 128981883.948 6 100505416.813 6  24544443.938                    24544456.332
 109085340.990 8  85001613.042 7  20758245.102                    20758253.078
 128388482.963 6 100043070.513 6  24431519.086                    24431530.629
 108109774.979 8  84241524.832 8  20572585.039                    20572593.148
 116582382.840 7  90843500.72245  22184892.242                    22184901.039
 109796954.063 8  85556173.00146  20893648.750                    20893654.785
 117773362.850 7  91771545.628 7  22411524.828                    22411536.059
 11  8 21  1 10 30.0000000  0  9G04G10G29G12G17G05G30G02G25
 122821437.887 7  95705123.87644  23372131.641                    23372141.477
 113395053.259 7  88359885.86745  21578345.500                    21578353.523
 128901853.616 6 100443055.766 5  24529215.008                    24529227.016
 109080844.030 8  84998108.946 7  20757389.211                    20757397.172
 128459670.820 6 100098541.634 6  24445065.375                    24445076.496
 108067303.046 8  84208429.872 8  20564502.961                    20564511.320
 116525579.841 7  90799238.67745  22174082.953                    22174091.969
 109821009.955 8  85574917.86746  20898226.273                    20898232.383
 117707009.020 7  91719841.370 7  22398897.828                    22398909.645
 11  8 21  1 11  0.0000000  0  9G04G10G29G12G17G05G30G02G25
 122903235.805 6  95768862.48944  23387697.391                    23387707.395
 113459359.195 8  88409994.38945  21590582.164                    21590591.027
 128821748.454 6 100380636.362 6  24513971.445                    24513983.172
 109076930.317 8  84995059.325 7  20756644.773                    20756652.281
 128531046.688 6 100154159.264 6  24458647.227                    24458658.094
 108025376.279 8  84175759.705 8  20556524.414                    20556532.523
 116469304.005 7  90755387.40445  22163373.727                    22163383.160
 109845228.277 8  85593789.29246  20902835.125                    20902841.012
 117641102.479 7  91668485.672 7  22386356.430                    22386368.207
 11  8 21  1 11 30.0000000  0  9G04G10G29G12G17G05G30G02G25
 122985010.774 6  95832583.22344  23403258.797                    23403268.914
 113524160.238 8  88460488.70745  21602913.867                    21602922.188
 128741568.567 6 100318158.732 6  24498714.078                    24498725.664
 109073599.563 8  84992463.964 7  20756010.625                    20756018.223
 128602610.170 6 100209923.113 5  24472266.406                    24472276.555
 107983995.711 8  84143515.151 8  20548649.578                    20548657.824
 116413557.000 7  90711948.21045  22152765.672                    22152774.371
 109869607.311 8  85612785.95446  20907473.945                    20907480.012
 117575645.082 7  91617479.948 7  22373900.500                    22373911.711
 11  8 21  1 12  0.0000000  0  9G04G10G29G12G17G05G30G02G25
 123066761.855 6  95896285.37243  23418815.078                    23418825.477
 113589453.999 8  88511366.95245  21615338.391                    21615346.855
 128661314.659 6 100255623.375 6  24483442.438                    24483453.191
 109070851.867 8  84990322.931 7  20755487.664                    20755495.551
 128674361.193 6 100265833.120 5  24485920.305                    24485929.582
 107943162.729 8  84111697.306 8  20540879.344                    20540887.527
 116358340.506 7  90668922.39745  22142258.305                    22142267.316
 109894146.069 8  85631907.07546  20912143.750                    20912149.574
 117510638.987 7  91566825.879 7  22361530.172                    22361541.324
 11  8 21  1 12 30.0000000  0  9G04G10G29G12G17G05G30G02G25
 123148488.093 6  95959968.13943  23434366.992                    23434377.602
 113655238.203 8  88562627.36845  21627857.367                    21627865.121
 128580987.142 7 100193030.648 6  24468156.078                    24468166.238
 109068687.595 7  84988636.520 7  20755075.828                    20755083.871
 128746299.819 6 100321889.267 6  24499609.563                    24499619.305
 107902878.319 8  84080306.910 8  20533213.883                    20533222.160
 116303656.624 7  90626311.60145  22131851.883                    22131861.027
 109918843.479 8  85651151.82746  20916843.297                    20916849.598
 117446086.442 7  91516525.222 7  22349246.227                    22349257.117
 11  8 21  1 13  0.0000000  0  8G04G10G29G12G05G30G02G25
 123230190.606 6  96023632.44843  23449914.133                    23449924.668
 113721512.249 7  88614269.48345  21640468.508                    21640476.602
 128500588.913 7 100130382.751 6  24452856.859                    24452867.422
 109067108.891 8  84987406.396 7  20754775.602                    20754783.543
 107863145.792 8  84049346.555 8  20525652.742                    20525660.789
 116249509.060 7  90584118.72645  22121548.516                    22121557.344
 109943700.567 8  85670520.99446  20921573.430                    20921579.551
 117381991.660 7  91466581.261 7  22337049.367                    22337060.336
 11  8 21  1 13 30.0000000  0  8G04G10G29G12G05G30G02G25
 123311866.912 6  96087276.30943  23465457.227                    23465467.004
 113788272.296 7  88666290.28945  21653172.219                    21653180.289
 128420118.856 6 100067678.875 6  24437544.250                    24437554.719
 109066114.277 8  84986631.414 7  20754586.367                    20754593.504
 107823964.372 8  84018815.637 8  20518196.508                    20518204.902
 116195898.103 7  90542343.98245  22111346.563                    22111355.586
 109968714.759 8  85690012.58446  20926333.438                    20926339.645
 117318355.104 7  91416994.370 7  22324940.047                    22324950.984
 11  8 21  1 14  0.0000000  0  8G04G10G29G12G05G30G02G25
 123393515.933 6  96150898.89543  23480994.508                    23481004.473
 113855515.358 7  88718687.48445  21665968.594                    21665976.891
 128339577.279 6 100004919.225 6  24422216.914                    24422227.672
 109065703.784 8  84986311.588 7  20754507.875                    20754515.836
 107785335.140 8  83988714.990 8  20510845.773                    20510854.047
 116142825.282 7  90500988.56845  22101247.188                    22101256.520
 109993884.893 8  85709625.69146  20931123.227                    20931129.039
 117255178.741 7  91367766.065 7  22312917.914                    22312929.098
 11  8 21  1 14 30.0000000  0  8G04G10G29G12G05G30G02G25
 123475136.384 7  96214499.23444  23496526.789                    23496536.027
 113923238.406 8  88771458.70945  21678855.523                    21678864.176
 128258964.430 7  99942104.010 6  24406877.008                    24406888.551
 109065876.958 8  84986446.571 7  20754540.977                    20754548.703
 107747258.909 8  83959045.252 8  20503600.211                    20503608.207
 116090291.936 7  90460053.54045  22091250.297                    22091259.500
 110019209.223 8  85729358.94446  20935942.180                    20935948.008
 117192464.338 7  91318897.730 7  22300983.844                    22300994.879
 11  8 21  1 15  0.0000000  0  8G04G10G29G12G05G30G02G25
 123556727.484 7  96278076.67444  23512052.297                    23512062.164
 113991438.777 8  88824601.86645  21691833.289                    21691842.410
 128178280.839 7  99879233.602 6  24391523.258                    24391534.797
 109066633.645 8  84987036.233 7  20754684.930                    20754692.578
 107709736.725 8  83929807.244 8  20496459.883                    20496468.012
 116038299.677 7  90419540.13545  22081355.703                    22081365.098
 110044686.616 8  85749211.46446  20940790.445                    20940796.582
 117130213.767 7  91270390.826 7  22289137.469                    22289148.547
 11  8 21  1 15 30.0000000  0  8G04G10G29G12G05G30G02G25
 123638289.078 7  96341631.13844  23527573.742                    23527583.402
 114060115.439 7  88878116.16145  21704902.211                    21704910.918
 128097528.548 7  99816309.677 6  24376157.078                    24376168.141
 109067975.363 8  84988081.762 7  20754940.008                    20754948.184
 107672770.224 8  83901002.223 8  20489425.445                    20489433.375
 115986851.431 7  90379450.63545  22071565.914                    22071575.578
 110070317.561 8  85769183.63846  20945667.898                    20945673.590
 117068430.469 7  91222248.049 7  22277380.641                    22277391.285
 11  8 21  1 16  0.0000000  0  8G04G10G29G12G05G30G02G25
 123719819.914 6  96405161.66544  23543087.914                    23543098.363
 114129264.813 7  88931998.78345  21718060.570                    21718069.707
 128016707.220 7  99753331.969 6  24360777.375                    24360788.234
 109069900.987 7  84989582.280 7  20755306.414                    20755314.391
 107636359.892 8  83872630.592 8  20482496.602                    20482504.660
 115935948.030 7  90339785.67445  22061879.945                    22061888.367
 110096100.011 8  85789273.86946  20950573.984                    20950580.285
 117007115.560 7  91174470.241 7  22265712.914                    22265723.715
 11  8 21  1 16 30.0000000  0  8G04G10G29G12G05G30G02G25
 123801319.053 7  96468667.47743  23558596.789                    23558607.488
 114198884.477 7  88986247.88645  21731308.969                    21731318.070
 127935817.643 6  99690301.105 6  24345384.578                    24345395.672
 109072410.750 8  84991537.975 7  20755784.266                    20755791.918
 107600506.832 8  83844693.189 8  20475673.789                    20475681.879
 115885591.196 8  90300546.60545  22052297.313                    22052306.352
 110122032.947 8  85809481.37246  20955508.758                    20955515.141
 116946271.123 7  91127059.028 7  22254134.633                    22254144.895
 11  8 21  1 17  0.0000000  0  8G04G10G29G12G05G30G02G25
 123882785.933 7  96532148.19743  23574100.023                    23574109.027
 114268971.776 7  89040861.38245  21744646.594                    21744654.934
 127854860.554 6  99627217.678 6  24329978.781                    24329989.336
 109075504.415 8  84993948.655 7  20756372.781                    20756380.563
 107565211.850 8  83817190.653 8  20468957.352                    20468965.488
 115835782.653 7  90261734.78145  22042818.984                    22042828.055
 110148115.423 8  85829805.39646  20960472.000                    20960478.496
 116885899.414 8  91080016.182 7  22242646.164                    22242656.504
 11  8 21  1 17 30.0000000  0  8G04G10G29G12G05G30G02G25
 123964219.540 7  96595602.93344  23589596.641                    23589605.875
 114339524.170 7  89095837.29345  21758072.133                    21758081.074
 127773836.674 6  99564082.239 6  24314560.727                    24314570.832
 109079181.943 8  84996814.274 7  20757072.688                    20757080.563
 107530476.093 8  83790123.873 8  20462347.477                    20462355.820
 115786524.063 7  90223351.50145  22033444.977                    22033454.473
 110174346.416 8  85850245.14146  20965463.867                    20965469.805
 116826002.341 7  91033343.175 7  22231248.023                    22231258.531
 11  8 21  1 18  0.0000000  0  8G04G10G29G12G05G30G02G25
 124045619.364 7  96659031.30944  23605086.195                    23605095.797
 114410539.315 7  89151173.77445  21771585.602                    21771594.254
 127692746.918 6  99500895.488 6  24299129.672                    24299140.500
 109083443.549 8  85000135.017 7  20757883.641                    20757891.336
 107496300.767 8  83763493.791 8  20455844.070                    20455852.113
 115737817.252 7  90185398.16445  22024176.594                    22024185.695
 110200725.259 8  85870800.09246  20970483.617                    20970489.488
 116766582.185 8  90987041.789 7  22219940.820                    22219951.703
 11  8 21  1 18 30.0000000  0  8G04G10G29G12G05G30G02G25
 124126984.790 7  96722432.91244  23620569.492                    23620579.484
 114482014.742 7  89206868.90545  21785186.828                    21785195.660
 127611592.369 6  99437658.312 6  24283686.031                    24283696.453
 109088289.476 8  85003911.081 7  20758805.578                    20758813.352
 107462686.725 8  83737301.065 8  20449447.742                    20449455.754
 115689664.039 7  90147876.19245  22015012.797                    22015021.395
 110227251.242 8  85891469.68546  20975531.234                    20975536.977
 116707641.129 7  90941113.732 7  22208724.484                    22208735.578
 11  8 21  1 19  0.0000000  0  8G04G10G29G12G05G30G02G25
 124208315.119 7  96785807.16243  23636045.117                    23636055.668
 114553947.924 7  89262920.72645  21798875.555                    21798884.598
 127530373.778 6  99374371.260 6  24268230.570                    24268241.004
 109093719.605 8  85008142.357 7  20759839.078                    20759846.695
 107429635.242 8  83711546.708 8  20443158.016                    20443166.371
 115642066.254 7  90110787.01445  22005955.453                    22005964.398
 110253923.619 8  85912253.36746  20980606.930                    20980612.719
 116649181.492 7  90895560.793 7  22197599.867                    22197610.754
 11  8 21  1 19 30.0000000  0  8G04G10G29G12G05G30G02G25
 124289609.684 7  96849153.56443  23651515.867                    23651524.836
 114626335.992 7  89319327.01145  21812650.563                    21812659.121
 127449091.467 6  99311034.529 6  24252762.711                    24252773.277
 109099733.438 8  85012828.466 7  20760983.250                    20760990.883
 107397146.712 8  83686231.017 8  20436975.539                    20436983.164
 115595025.049 7  90074131.54345  21997003.836                    21997012.465
 110280740.999 8  85933150.02646  20985710.367                    20985715.945
 116591204.799 7  90850384.182 7  22186567.039                    22186578.266
 11  8 21  1 20  0.0000000  0  8G04G10G29G12G05G30G02G25
 124370867.464 7  96912471.30044  23666978.461                    23666988.316
 114699176.330 7  89376085.71445  21826511.711                    21826520.043
 127367746.453 6  99247648.970 6  24237283.414                    24237293.926
 109106330.766 8  85017969.247 7  20762239.031                    20762246.668
 107365222.157 8  83661354.768 8  20430900.633                    20430908.836
 115548542.032 7  90037911.01845  21988158.156                    21988167.027
 110307702.450 8  85954158.95346  20990840.727                    20990846.473
 116533713.161 7  90805585.523 7  22175626.727                    22175638.027
 11  8 21  1 20 30.0000000  0  8G04G10G29G12G05G30G02G25
 124452087.867 7  96975759.88444  23682434.344                    23682444.707
 114772466.146 7  89433194.65045  21840458.219                    21840466.590
 127286339.176 6  99184214.893 6  24221792.133                    24221803.039
 109113511.825 8  85023564.867 7  20763605.430                    20763613.293
 107333862.129 8  83636918.428 8  20424932.969                    20424940.859
 115502618.699 7  90002126.61645  21979419.078                    21979428.332
 110334806.943 8  85975279.34246  20995998.352                    20996004.418
 116476708.372 7  90761166.221 7  22164778.969                    22164790.145
 11  8 21  1 21  0.0000000  0  8G04G10G29G12G05G30G02G25
 124533270.350 6  97039018.90744  23697882.875                    23697893.613
 114846203.459 7  89490652.29645  21854489.656                    21854497.887
 127204870.784 7  99120733.160 5  24206289.039                    24206299.441
 109121275.884 8  85029614.775 7  20765082.859                    20765090.625
 107303067.895 8  83612922.952 8  20419072.656                    20419080.887
 115457256.926 7  89966779.80345  21970787.313                    21970796.531
 110362054.063 8  85996510.86246  21001183.313                    21001189.188
 116420192.834 8  90717128.179 7  22154024.727                    22154035.730
 11  8 21  1 21 30.0000000  0  8G04G10G29G12G05G30G02G25
 124614413.844 6  97102247.55343  23713323.859                    23713334.496
 114920384.984 7  89548456.07945  21868606.289                    21868614.719
 127123341.665 7  99057204.096 5  24190774.711                    24190784.547
 109129622.805 8  85036118.861 7  20766671.375                    20766678.832
 107272840.028 8  83589368.807 8  20413320.555                    20413328.422
 115412457.756 7  89931871.39145  21962262.609                    21962271.875
 110389442.345 8  86017852.38646  21006395.297                    21006400.879
 116364168.019 8  90673472.491 7  22143363.828                    22143374.789
 11  8 21  1 22  0.0000000  0  8G04G10G29G12G05G30G02G25
 124695518.135 7  97165445.71843  23728757.289                    23728767.813
 114995008.476 7  89606604.24745  21882806.508                    21882814.992
 127041753.287 7  98993628.837 6  24175248.992                    24175259.004
 109138552.989 8  85043077.437 7  20768370.484                    20768378.496
 107243178.975 8  83566256.323 8  20407676.359                    20407684.266
 115368222.988 7  89897402.78545  21953844.359                    21953853.797
 110416971.363 8  86039303.57446  21011633.961                    21011640.168
 116308636.263 8  90630201.035 7  22132796.344                    22132807.063
 11  8 21  1 22 30.0000000  0  8G04G10G29G12G05G30G02G25
 124776582.229 7  97228612.55243  23744183.703                    23744193.512
 115070070.814 7  89665094.38445  21897090.344                    21897099.344
 126960106.220 6  98930007.875 6  24159712.047                    24159722.602
 109148065.314 8  85050489.633 7  20770181.008                    20770188.488
 107214085.706 8  83543586.277 8  20402140.109                    20402147.875
 115324554.074 7  89863375.11645  21945535.008                    21945543.438
 110444639.935 8  86060863.50946  21016898.984                    21016904.730
 116253599.342 8  90587315.168 7  22122322.867                    22122333.516
 11  8 21  1 23  0.0000000  0  8G04G10G29G12G05G30G02G25
 124857604.930 7  97291747.14243  23759602.516                    23759610.492
 115145569.055 7  89723924.18545  21911457.305                    21911465.543
 126878400.159 6  98866340.945 6  24144162.930                    24144175.090
 109158158.873 8  85058354.743 7  20772101.430                    20772109.082
 107185560.186 8  83521358.633 8  20396711.906                    20396719.250
 115281451.623 7  89829788.84545  21937332.656                    21937341.836
 110472445.941 8  86082530.54746  21022190.203                    21022195.922
 116199058.425 8  90544815.804 7  22111944.086                    22111955.090
 11  8 21  1 23 30.0000000  0  8G04G10G29G12G05G30G02G25
 124938586.385 7  97354849.52343  23775012.953                    23775020.797
 115221501.237 7  89783092.13045  21925906.414                    21925915.457
 126796637.180 6  98802629.639 6  24128604.211                    24128614.848
 109168834.442 8  85066673.366 7  20774133.383                    20774140.480
 107157603.786 8  83499574.459 8  20391392.102                    20391399.828
 115238917.782 7  89796645.65545  21929238.516                    21929247.656
 110500389.930 8  86104305.09446  21027507.922                    21027514.070
 116145016.163 8  90502704.996 7  22101660.281                    22101671.051
 11  8 21  1 24  0.0000000  0  8G04G10G29G12G05G30G02G25
 125019525.772 6  97417919.16243  23790415.008                    23790423.973
 115297864.536 7  89842596.01445  21940438.023                    21940446.414
 126714817.878 6  98738874.446 6  24113034.602                    24113044.844
 109180091.324 8  85075444.962 7  20776275.188                    20776282.637
 107130217.361 8  83478234.422 8  20386180.320                    20386187.906
 115196953.983 7  89763946.65445  21921252.945                    21921262.430
 110528470.964 8  86126186.44546  21032851.227                    21032857.559
 116091474.384 8  90460984.173 7  22091471.602                    22091482.391
 11  8 21  1 24 30.0000000  0  8G04G10G29G12G05G30G02G25
 125100422.562 6  97480955.64743  23805808.781                    23805818.875
 115374656.622 7  89902434.01045  21955051.008                    21955059.758
 126632943.518 6  98675076.347 6  24097454.125                    24097465.125
 109191929.364 8  85084669.409 7  20778528.133                    20778535.609
 107103401.640 8  83457339.090 8  20381077.445                    20381085.281
 115155561.652 7  89731692.96445  21913376.484                    21913384.934
 110556688.430 8  86148174.09746  21038220.984                    21038227.371
 116038435.135 8  90419654.949 7  22081378.000                    22081389.500
 11  8 21  1 25  0.0000000  0  8G04G10G29G12G05G30G02G25
 125181275.782 6  97543958.19443  23821194.289                    23821203.945
 115451873.966 7  89962603.37445  21969745.094                    21969753.844
 126551014.093 7  98611235.311 6  24081863.891                    24081874.340
 109204347.793 8  85094346.108 7  20780891.164                    20780898.445
 107077156.587 8  83436888.443 8  20376083.250                    20376090.883
 115114741.670 7  89699885.25445  21905608.680                    21905617.063
 110585040.577 8  86170266.69446  21043616.250                    21043622.320
 115985899.647 8  90378718.269 7  22071381.023                    22071392.168
 11  8 21  1 25 30.0000000  0  8G04G10G29G12G05G30G02G25
 125262085.386 6  97606926.76243  23836572.195                    23836581.754
 115529514.532 7  90023102.52145  21984519.484                    21984528.578
 126469031.494 7  98547352.855 6  24066263.102                    24066273.188
 109217346.220 8  85104474.754 7  20783364.617                    20783372.328
 107051483.649 8  83416883.583 8  20371197.492                    20371205.414
 115074496.099 7  89668525.13445  21897950.234                    21897959.043
 110613527.603 8  86192464.39946  21049037.039                    21049042.879
 115933870.521 8  90338176.156 7  22061480.313                    22061491.199
 11  8 21  1 26  0.0000000  0  8G04G10G29G12G05G30G02G25
 125342850.178 7  97669860.40143  23851941.266                    23851950.605
 115607574.970 7  90083928.85945  21999374.484                    21999382.715
 126386995.868 7  98483429.080 6  24050651.867                    24050662.129
 109230924.000 8  85115054.854 7  20785948.344                    20785955.457
 107026382.151 8  83397324.006 8  20366421.227                    20366428.613
 115034825.350 7  89637612.90545  21890401.133                    21890409.406
 110642147.557 8  86214765.66746  21054483.305                    21054489.406
 115882348.672 8  90298029.321 7  22051676.352                    22051687.055
 11  8 21  1 26 30.0000000  0  8G04G10G29G12G05G30G02G25
 125423569.718 7  97732758.76144  23867301.742                    23867310.820
 115686052.729 7  90145080.37945  22014308.008                    22014316.559
 126304908.494 6  98419464.977 6  24035031.180                    24035041.586
 109245081.181 8  85126086.428 7  20788642.570                    20788649.988
 107001853.357 8  83378210.697 8  20361753.617                    20361761.316
 114995731.074 7  89607149.88645  21882961.648                    21882970.199
 110670900.175 8  86237170.31946  21059954.602                    21059960.586
 115831336.304 8  90258279.475 7  22041968.953                    22041979.559
 11  8 21  1 27  0.0000000  0  8G04G10G29G12G05G30G02G25
 125504243.596 7  97795621.49744  23882653.031                    23882662.758
 115764945.159 7  90206555.00645  22029320.508                    22029329.203
 126222769.965 6  98355460.996 6  24019400.938                    24019411.035
 109259816.431 8  85137568.457 7  20791446.328                    20791453.785
 106977897.611 8  83359543.915 8  20357194.992                    20357202.344
 114957214.601 7  89577137.09945  21875631.813                    21875640.590
 110699784.417 8  86259677.53546  21065451.195                    21065457.117
 115780835.233 8  90218928.030 7  22032358.914                    22032369.094
 11  8 21  1 27 30.0000000  0  8G04G10G29G12G05G30G02G25
 125584870.875 6  97858447.95543  23897995.422                    23898005.434
 115844249.345 7  90268350.46245  22044411.719                    22044420.492
 126140581.286 6  98291417.942 6  24003760.594                    24003771.129
 109275129.950 8  85149501.087 7  20794360.125                    20794367.996
 106954515.345 8  83341323.996 8  20352745.305                    20352753.289
 114919276.806 7  89547575.21745  21868412.773                    21868421.398
 110728799.357 8  86282286.58446  21070972.656                    21070978.383
 115730846.801 8  90179976.054 7  22022846.477                    22022856.621
 11  8 21  1 28  0.0000000  0  8G04G10G29G12G05G30G02G25
 125665451.150 6  97921237.80843  23913329.242                    23913339.309
 115923962.456 7  90330464.55745  22059580.375                    22059589.082
 126058343.376 6  98227336.547 6  23988110.992                    23988121.832
 109291020.376 8  85161883.263 7  20797384.242                    20797391.742
 106931707.005 8  83323551.297 8  20348404.977                    20348412.395
 114881918.892 8  89518465.18645  21861303.750                    21861312.336
 110757944.021 8  86304996.70846  21076518.438                    21076524.316
 115681372.875 8  90141424.983 7  22013431.563                    22013441.965
 11  8 21  1 28 30.0000000  0  8G04G10G29G12G05G30G02G25
 125745984.028 6  97983990.70143  23928654.164                    23928664.094
 116004081.982 7  90392895.35545  22074826.656                    22074834.848
 125976057.205 6  98163217.558 6  23972451.906                    23972462.930
 109307487.511 8  85174714.808 7  20800518.039                    20800525.449
 106909472.953 8  83306226.099 8  20344173.906                    20344181.738
 114845142.176 7  89489808.03645  21854304.969                    21854314.199
 110787217.785 8  86327807.43846  21082088.852                    21082094.969
 115632415.183 8  90103276.167 7  22004115.219                    22004125.809
 11  8 21  1 29  0.0000000  0  8G04G10G29G12G05G30G02G25
 125826468.848 6  98046706.14543  23943970.773                    23943979.762
 116084605.437 7  90455640.90545  22090149.977                    22090157.988
 125893723.970 6  98099061.880 6  23956784.625                    23956795.137
 109324530.704 8  85187995.247 7  20803761.039                    20803768.473
 106887813.857 8  83289348.907 8  20340052.492                    20340060.148
 114808948.014 8  89461604.81645  21847417.805                    21847426.703
 110816620.029 8  86350718.27346  21087684.219                    21087690.273
 115583975.606 8  90065531.069 7  21994897.344                    21994907.445
 11  8 21  1 29 30.0000000  0  8G04G10G29G12G05G30G02G25
 125906904.788 7  98109383.48243  23959277.664                    23959286.441
 116165529.559 7  90518698.65845  22105549.055                    22105557.824
 125811344.556 6  98034870.198 6  23941108.891                    23941118.531
 109342148.949 8  85201723.775 7  20807113.523                    20807121.203
 106866729.868 8  83272919.859 8  20336040.039                    20336047.887
 114773336.994 8  89433856.00145  21840641.336                    21840649.836
 110846149.531 8  86373728.27846  21093303.352                    21093309.391
 115536055.443 8  90028190.687 7  21985778.570                    21985789.262
 11  8 21  1 30  0.0000000  0  8G04G10G29G12G05G30G02G25
 125987291.544 6  98172022.48943  23974574.484                    23974583.984
 116246851.871 7  90582066.69745  22121024.539                    22121033.039
 125728919.937 6  97970643.298 6  23925423.602                    23925433.832
 109360342.371 8  85215900.487 7  20810575.367                    20810583.535
 106846221.469 8  83256939.321 8  20332137.281                    20332145.184
 114738310.828 8  89406562.88845  21833976.242                    21833984.813
 110875806.027 8  86396837.23846  21098947.008                    21098952.859
 115488656.743 8  89991256.660 7  21976758.758                    21976769.578
 11  8 21  1 30 30.0000000  0  8G04G10G29G12G05G30G02G25
 126067628.501 6  98234622.65743  23989861.422                    23989871.715
 116328569.092 7  90645742.46045  22136574.883                    22136583.082
 125646450.695 6  97906381.641 6  23909730.250                    23909740.906
 109379109.787 8  85230524.464 7  20814146.797                    20814154.566
 106826288.856 8  83241407.443 8  20328344.477                    20328352.066
 114703870.119 8  89379725.97545  21827422.445                    21827430.668
 110905588.239 8  86420044.15646  21104614.320                    21104620.598
 115441780.751 8  89954729.928 7  21967838.648                    21967849.590
 11  8 21  1 31  0.0000000  0  8G04G10G29G12G05G30G02G25
 126147915.076 6  98297183.55443  24005138.766                    24005149.895
 116410678.305 7  90709723.65945  22152199.172                    22152207.750
 125563937.931 7  97842086.064 6  23894028.750                    23894039.039
 109398450.107 8  85245594.857 8  20817827.172                    20817835.137
 106806931.754 8  83226324.015 8  20324660.742                    20324668.398
 114670015.842 7  89353346.03345  21820980.063                    21820988.543
 110935495.173 8  86443348.26046  21110305.211                    21110311.281
 115395429.017 8  89918611.710 7  21959018.125                    21959029.051
 11  8 21  1 31 30.0000000  0  8G04G10G29G12G05G30G02G25
 126228151.312 6  98359705.28743  24020406.938                    24020418.324
 116493177.279 7  90774008.58245  22167898.398                    22167906.551
 125481383.004 7  97777757.623 6  23878319.023                    23878328.750
 109418362.893 8  85261111.341 7  20821616.547                    20821624.613
 106788151.351 8  83211689.965 8  20321087.172                    20321094.723
 114636749.552 7  89327424.25445  21814649.883                    21814658.000
 110965526.807 8  86466749.54446  21116020.266                    21116026.277
 115349603.683 8  89882903.679 7  21950297.750                    21950308.238
 11  8 21  1 32  0.0000000  0  8G04G10G29G12G05G30G02G25
 126308336.591 6  98422187.26043  24035666.813                    24035677.523
 116576063.519 7  90838595.25845  22183671.242                    22183679.539
 125398787.141 7  97713397.314 6  23862600.648                    23862611.332
 109438847.613 8  85277073.472 7  20825514.664                    20825522.387
 106769948.119 8  83197505.667 8  20317623.422                    20317630.738
 114604072.308 7  89301961.47545  21808431.242                    21808439.648
 110995682.589 8  86490247.55146  21121758.633                    21121764.309
 115304306.336 8  89847607.058 7  21941678.219                    21941688.719
 11  8 21  1 32 30.0000000  0  8G04G10G29G12G05G30G02G25
 126388469.817 6  98484628.74943  24050915.664                    24050926.160
 116659333.216 7  90903480.72345  22199517.047                    22199525.184
 125316150.604 7  97649005.334 6  23846875.938                    23846885.965
 109459903.060 8  85293480.331 7  20829521.188                    20829528.957
 106752321.375 8  83183770.567 8  20314268.719                    20314276.262
 114571984.338 7  89276957.89045  21802325.281                    21802333.266
 111025960.463 8  86513840.70346  21127520.047                    21127526.563
 115259537.822 8  89812722.522 7  21933158.945                    21933169.805
 11  8 21  1 33  0.0000000  0  8G04G10G29G12G05G30G02G25
 126468550.782 7  98547029.51343  24066154.961                    24066164.262
 116742983.730 7  90968662.94645  22215435.523                    22215443.590
 125233474.787 7  97584582.765 6  23831143.414                    23831153.516
 109481528.058 8  85310330.988 7  20833636.281                    20833643.801
 106735271.148 8  83170484.712 8  20311024.242                    20311032.043
 114540486.700 7  89252414.30445  21796331.141                    21796340.051
 111056360.129 8  86537528.77346  21133305.258                    21133310.832
 115215299.745 8  89778251.329 7  21924740.695                    21924751.336
 11  8 21  1 33 30.0000000  0  8G04G10G29G12G05G30G02G25
 126548579.136 6  98609389.23743  24081383.453                    24081393.492
 116827012.766 7  91034140.10445  22231425.500                    22231434.023
 125150760.832 7  97520130.485 6  23815403.289                    23815412.918
 109503722.014 8  85327624.995 7  20837859.805                    20837866.930
 106718798.188 8  83157648.674 8  20307889.641                    20307896.906
 114509580.573 8  89228331.62145  21790449.922                    21790458.512
 111086880.998 8  86561311.27446  21139113.016                    21139119.055
 115171593.928 8  89744194.870 7  21916423.672                    21916434.254
 11  8 21  1 34  0.0000000  0  8G04G10G29G12G05G30G02G25
 126628554.147 6  98671707.37343  24096602.008                    24096611.813
 116911417.049 7  91099909.66045  22247487.211                    22247495.219
 125068009.459 7  97455649.061 6  23799655.750                    23799666.426
 109526483.955 8  85345361.579 7  20842191.375                    20842198.711
 106702902.459 8  83145262.427 8  20304864.695                    20304872.309
 114479266.510 7  89204710.30645  21784682.023                    21784690.418
 111117522.093 8  86585187.47546  21144943.773                    21144949.754
 115128421.518 8  89710554.077 7  21908208.164                    21908218.555
 11  8 21  1 34 30.0000000  0  8G04G10G29G12G05G30G02G25
 126708475.550 6  98733983.75443  24111811.016                    24111821.098
 116996193.893 7  91165969.52745  22263619.531                    22263627.965
 124985221.888 7  97391139.445 6  23783901.867                    23783911.949
 109549813.203 8  85363540.229 7  20846630.656                    20846638.602
 106687584.169 8  83133326.129 8  20301949.453                    20301957.496
 114449545.662 8  89181551.21945  21779025.695                    21779033.734
 111148282.855 8  86609156.91846  21150797.492                    21150803.125
 115085784.197 8  89677330.228 7  21900094.461                    21900105.047
 11  8 21  1 35  0.0000000  0  8G04G10G29G12G05G30G02G25
 126788342.789 6  98796217.98944  24127008.758                    24127019.691
 117081340.372 7  91232317.41945  22279822.320                    22279831.102
 124902399.172 7  97326602.454 6  23768140.516                    23768150.352
 109573708.577 8  85382160.012 7  20851178.000                    20851185.566
 106672843.012 8  83121839.547 8  20299144.398                    20299152.418
 114420418.568 7  89158854.82045  21773483.117                    21773491.395
 111179162.295 8  86633218.83046  21156673.484                    21156679.555
 115043683.205 8  89644524.297 7  21892082.758                    21892093.293
 11  8 21  1 35 30.0000000  0  8G04G10G29G12G05G30G02G25
 126868155.729 6  98858409.88843  24142197.422                    24142207.922
 117166853.990 7  91298951.40245  22296095.398                    22296104.219
 124819542.675 7  97262039.104 6  23752373.773                    23752383.262
 109598169.508 8  85401220.487 7  20855832.586                    20855840.188
 106658679.428 8  83110803.028 8  20296449.188                    20296456.727
 114391886.474 7  89136622.03745  21768053.367                    21768061.563
 111210160.241 8  86657373.09846  21162572.375                    21162578.305
 115002120.363 8  89612137.710 7  21884173.820                    21884184.125
 11  8 21  1 36  0.0000000  0  8G04G10G29G12G05G30G02G25
 126947913.874 6  98920559.14843  24157374.531                    24157385.082
 117252731.573 7  91365868.97445  22312437.039                    22312446.145
 124736653.422 7  97197450.226 6  23736600.195                    23736610.578
 109623194.815 8  85420720.736 7  20860594.391                    20860602.047
 106645093.693 8  83100216.769 8  20293863.938                    20293871.621
 114363950.141 7  89114853.47645  21762737.133                    21762745.738
 111241275.910 8  86681619.09446  21168493.492                    21168499.586
 114961097.001 8  89580171.484 7  21876367.313                    21876377.949
 11  8 21  1 36 30.0000000  0  8G04G10G29G12G05G30G02G25
 127027616.668 6  98982665.26843  24172541.797                    24172551.336
 117338970.169 7  91433067.86345  22328847.898                    22328855.543
 124653732.068 7  97132836.323 6  23720820.531                    23720830.852
 109648783.218 8  85440659.748 7  20865463.891                    20865471.301
 106632085.590 8  83090080.620 8  20291388.477                    20291396.152
 114336610.011 7  89093549.50145  21757534.266                    21757542.805
 111272508.137 8  86705955.91846  21174436.578                    21174442.461
 114920614.217 8  89548626.482 7  21868663.477                    21868674.313
 11  8 21  1 37  0.0000000  0  8G04G10G29G12G05G30G02G25
 127107263.571 6  99044727.75343  24187698.063                    24187707.629
 117425566.956 7  91500545.86245  22345326.617                    22345334.789
 124570779.973 7  97068198.478 6  23705035.539                    23705045.234
 109674933.547 8  85461036.634 7  20870440.398                    20870447.746
 106619654.680 8  83080394.228 8  20289022.898                    20289030.898
 114309866.867 7  89072710.69245  21752445.398                    21752453.508
 111303856.056 8  86730382.89146  21180401.953                    21180408.125
 114880673.341 8  89517503.758 7  21861063.086                    21861073.449
 11  8 21  1 37 30.0000000  0  8G04G10G29G12G05G30G02G25
 127186854.548 6  99106746.71643  24202842.711                    24202853.559
 117512519.366 7  91568300.97544  22361873.477                    22361881.316
 124487798.502 7  97003537.733 6  23689243.813                    23689254.129
 109701645.256 8  85481850.950 7  20875523.008                    20875530.762
 106607801.378 8  83071157.918 8  20286766.984                    20286775.148
 114283721.488 7  89052337.70545  21747470.414                    21747478.680
 111335319.637 8  86754899.99146  21186389.555                    21186395.484
 114841275.925 8  89486804.496 7  21853565.953                    21853576.965
 11  8 21  1 38  0.0000000  0  8G04G10G29G12G05G30G02G25
 127266388.638 6  99168721.27943  24217979.102                    24217988.031
 117599824.094 7  91636330.61545  22378486.492                    22378495.066
 124404788.629 7  96938854.825 6  23673447.820                    23673457.414
 109728916.938 8  85503101.619 7  20880713.117                    20880720.414
 106596525.387 8  83062371.454 8  20284621.555                    20284629.461
 114258174.390 7  89032430.89345  21742608.688                    21742617.395
 111366897.641 8  86779506.24946  21192398.734                    21192404.328
 114802422.989 8  89456529.503 7  21846172.508                    21846183.691
 11  8 21  1 38 30.0000000  0  8G04G10G29G12G05G30G02G25
 127345865.967 6  99230651.71443  24233102.430                    24233112.773
 117687478.835 7  91704632.99245  22395166.641                    22395175.164
 124321751.476 6  96874150.666 6  23657646.586                    23657656.426
 109756747.658 8  85524787.880 7  20886009.023                    20886016.512
 106585826.880 8  83054034.984 8  20282585.688                    20282593.656
 114233226.575 7  89012991.05945  21737861.445                    21737870.043
 111398589.770 8  86804201.42246  21198429.430                    21198435.141
 114764116.207 8  89426680.096 7  21838882.773                    21838893.777
 11  8 21  1 39  0.0000000  0  9G04G10G29G12G26G05G30G02G25
 127425285.853 6  99292537.35943  24248215.875                    24248225.500
 117775480.275 7  91773205.52144  22411912.625                    22411921.328
 124238688.036 7  96809426.008 6  23641839.781                    23641849.730
 109785136.006 8  85546908.674 7  20891411.141                    20891418.613
 130538081.61016 101718072.74853  24840581.336                    24840592.750
 106575705.397 8  83046148.137 8  20280659.406                    20280667.148
 114208878.323 8  88994018.44145  21733227.961                    21733236.754
 111430394.996 8  86828984.72446  21204481.445                    21204487.500
 114726356.593 8  89397257.042 7  21831697.617                    21831708.109
 11  8 21  1 39 30.0000000  0  9G04G10G29G12G26G05G30G02G25
 127504647.716 6  99354377.76842  24263317.344                    24263327.387
 117863825.381 7  91842045.85844  22428724.398                    22428731.809
 124155599.291 7  96744681.628 6  23626028.719                    23626038.738
 109814080.561 7  85569462.869 7  20896919.008                    20896926.500
 130446396.997 6 101646630.40243  24823135.109                    24823146.629
 106566160.193 8  83038710.342 8  20278843.141                    20278850.832
 114185129.848 8  88975513.18845  21728708.898                    21728717.641
 111462312.214 7  86853855.28646  21210555.195                    21210561.461
 114689144.897 8  89368260.939 7  21824616.617                    21824627.055
 11  8 21  1 40  0.0000000  0  9G04G10G29G12G26G05G30G02G25
 127583951.439 6  99416172.86343  24278408.094                    24278418.523
 117952511.366 7  91911151.78444  22445600.250                    22445608.910
 124072486.821 7  96679918.759 6  23610212.875                    23610222.191
 109843580.481 8  85592449.811 7  20902532.531                    20902540.414
 130354574.529 6 101575080.58443  24805662.016                    24805673.043
 106557192.214 8  83031722.328 8  20277136.305                    20277144.301
 114161982.227 8  88957476.12145  21724304.391                    21724312.832
 111494341.567 8  86878813.22546  21216650.266                    21216656.020
 114652482.955 8  89339693.223 7  21817639.898                    21817650.934
 11  8 21  1 40 30.0000000  0  9G04G10G29G12G26G05G30G02G25
 127663196.756 5  99477922.46842  24293487.023                    24293497.832
 118041535.428 7  91980521.16444  22462541.484                    22462549.457
 123989351.585 7  96615138.155 6  23594393.727                    23594402.293
 109873634.374 8  85615868.433 7  20908252.016                    20908259.238
 130262616.629 6 101503425.25042  24788161.859                    24788173.125
 106548800.806 8  83025183.586 8  20275539.492                    20275547.383
 114139435.812 8  88939907.55145  21720013.398                    21720022.520
 111526481.749 8  86903857.53246  21222766.500                    21222772.180
 114616371.736 8  89311554.639 7  21810768.336                    21810778.773
 11  8 21  1 41  0.0000000  0  9G04G10G29G12G26G05G30G02G25
 127742383.341 6  99539626.34643  24308555.563                    24308566.363
 118130894.942 7  92050151.94344  22479546.547                    22479554.184
 123906195.072 7  96550340.952 6  23578568.508                    23578578.352
 109904241.367 8  85639718.040 7  20914076.102                    20914083.719
 130170526.539 5 101431666.91042  24770637.734                    24770648.992
 106540986.043 8  83019094.179 8  20274052.836                    20274059.918
 114117491.414 8  88922808.06445  21715837.344                    21715846.680
 111558732.787 7  86928988.21346  21228903.680                    21228909.148
 114580812.741 8  89283846.387 7  21804001.234                    21804012.078
 11  8 21  1 41 30.0000000  0  9G04G10G29G12G26G05G30G02G25
 127821511.069 6  99601284.31043  24323614.602                    24323624.934
 118220587.037 7  92120041.84744  22496614.000                    22496622.648
 123823018.671 7  96485528.240 6  23562740.867                    23562750.383
 109935400.234 8  85663997.681 7  20920005.539                    20920012.930
 130078306.849 5 101359807.52542  24753089.461                    24753100.277
 106533747.846 8  83013454.044 8  20272675.219                    20272682.816
 114096149.516 8  88906178.06746  21711776.180                    21711784.945
 111591094.075 8  86954204.81446  21235061.484                    21235067.383
 114545807.095 8  89256569.292 7  21797339.961                    21797350.746
 11  8 21  1 42  0.0000000  0  9G04G10G29G12G26G05G30G02G25
 127900579.428 7  99662896.04743  24338661.180                    24338671.059
 118310608.542 7  92190188.47844  22513744.547                    22513752.777
 123739823.298 7  96420700.743 6  23546908.875                    23546918.609
 109967109.382 8  85688706.102 7  20926039.508                    20926047.605
 129985960.638 5 101287849.63742  24735515.633                    24735527.293
 106527085.686 8  83008262.768 8  20271407.227                    20271414.664
 114075410.469 8  88890017.82245  21707829.711                    21707838.566
 111623564.635 8  86979506.55446  21241240.422                    21241246.957
 114511355.870 8  89229724.225 7  21790784.188                    21790794.480
 11  8 21  1 42 30.0000000  0  9G04G10G29G12G26G05G30G02G25
 127979587.952 7  99724461.11244  24353696.125                    24353705.973
 118400956.494 7  92260589.47544  22530937.414                    22530945.375
 123656610.167 7  96355859.395 6  23531074.055                    23531083.504
 109999367.583 8  85713842.368 7  20932178.094                    20932185.902
 129893490.590 5 101215795.15742  24717919.383                    24717930.297
 106520998.992 8  83003519.917 8  20270249.125                    20270256.973
 114055274.569 8  88874327.54245  21703997.695                    21704006.539
 111656143.733 8  87004892.86846  21247440.313                    21247445.672
 114477459.982 8  89203311.878 7  21784333.844                    21784344.145
 11  8 21  1 43  0.0000000  0  9G04G10G29G12G26G05G30G02G25
 128058536.507 7  99785979.44643  24368719.453                    24368728.828
 118491627.924 7  92331242.55644  22548191.555                    22548199.375
 123573380.584 7  96291005.218 6  23515236.211                    23515245.742
 110032173.436 8  85739405.374 7  20938420.961                    20938428.242
 129800899.20915 101143646.20552  24700299.469                    24700311.148
 106515487.474 7  82999225.241 8  20269200.242                    20269207.910
 114035742.156 8  88859107.50645  21700281.000                    21700289.289
 111688830.773 8  87030363.30146  21253660.438                    21253666.266
 114444120.510 7  89177333.119 7  21777989.547                    21777999.734
 11  8 21  1 43 30.0000000  0  9G04G10G29G12G26G05G30G02G25
 128137424.862 6  99847450.89043  24383731.219                    24383740.180
 118582620.569 6  92402145.90344  22565506.836                    22565515.215
 123490136.023 7  96226139.389 6  23499395.031                    23499404.996
 110065525.728 8  85765394.174 7  20944767.258                    20944775.102
 129708189.94615 101071405.34752  24682656.133                    24682669.199
 106510551.354 8  82995378.942 8  20268260.977                    20268268.598
 114016813.906 8  88844358.25045  21696679.250                    21696687.578
 111721625.406 8  87055917.56846  21259901.008                    21259906.582
 114411338.806 8  89151788.968 7  21771751.570                    21771761.652
 11  8 21  1 44  0.0000000  0  9G04G10G29G12G26G05G30G02G25
 128216252.714 6  99908875.21143  24398730.789                    24398740.938
 118673931.234 7  92473297.04644  22582882.344                    22582891.063
 123406877.463 7  96161262.677 6  23483551.352                    23483560.543
 110099423.134 8  85791807.748 7  20951217.844                    20951225.566
 129615365.58615 100999074.81652  24664991.703                    24665004.922
 106506190.136 8  82991980.611 8  20267431.031                    20267438.617
 113998490.081 8  88830079.95545  21693192.016                    21693200.500
 111754527.000 8  87081555.18046  21266161.602                    21266167.234
 114379115.809 7  89126680.178 7  21765619.641                    21765630.410
 11  8 21  1 44 30.0000000  0  9G04G10G29G12G26G05G30G02G25
 128295019.634 7  99970252.01043  24413719.750                    24413729.949
 118765556.854 7  92544693.61044  22600318.180                    22600326.520
 123323606.413 7  96096376.202 6  23467705.297                    23467714.137
 110133863.929 7  85818644.731 7  20957771.977                    20957779.410
 129522428.67615 100926656.60152  24647304.367                    24647319.641
 106502402.922 8  82989029.561 8  20266710.563                    20266717.750
 113980770.904 8  88816272.80745  21689820.578                    21689828.504
 111787534.641 7  87107275.43246  21272443.195                    21272448.773
 114347452.392 8  89102007.420 7  21759594.180                    21759605.117
 11  8 21  1 45  0.0000000  0  9G04G10G29G12G26G05G30G02G25
 128373725.503 7 100031581.26343  24428697.563                    24428707.625
 118857494.519 7  92616333.32044  22617812.914                    22617822.223
 123240323.962 7  96031480.839 6  23451857.039                    23451865.547
 110168846.830 8  85845904.148 7  20964428.742                    20964436.184
 129429382.438 5 100854153.20843  24629602.227                    24629613.344
 106499189.496 8  82986525.621 8  20266098.578                    20266106.113
 113963656.619 8  88802937.00545  21686563.617                    21686571.680
 111820647.951 8  87133078.02446  21278744.086                    21278750.129
 114316349.546 8  89077771.461 7  21753675.438                    21753686.313
 11  8 21  1 45 30.0000000  0  9G04G10G29G12G26G05G30G02G25
 128452369.717 7 100092862.46443  24443663.734                    24443673.289
 118949741.143 6  92688213.77944  22635367.250                    22635376.266
 123157031.066 7  95966577.365 6  23436007.039                    23436015.660
 110204370.435 8  85873584.891 7  20971188.836                    20971196.281
 129336229.665 5 100781566.72142  24611875.117                    24611886.113
 106496549.495 8  82984468.503 8  20265596.375                    20265604.293
 113947147.404 8  88790072.67945  21683422.398                    21683430.363
 111853866.304 7  87158962.47046  21285065.445                    21285071.055
 114285808.172 8  89053973.009 7  21747863.844                    21747874.230
 11  8 21  1 46  0.0000000  0  9G04G10G29G12G26G05G30G02G25
 128530951.982 7 100154095.42843  24458617.563                    24458627.082
 119042294.019 6  92760332.88044  22652979.258                    22652988.406
 123073729.371 7  95901667.017 6  23420155.398                    23420164.219
 110240432.962 8  85901685.564 7  20978051.102                    20978059.016
 129242972.95214 100708899.38852  24594126.023                    24594140.285
 106494482.191 8  82982857.654 8  20265203.141                    20265210.535
 113931243.438 8  88777679.97646  21680395.672                    21680403.777
 111887188.937 7  87184928.16746  21291406.836                    21291412.137
 114255829.119 8  89030612.730 7  21742158.797                    21742169.695
 11  8 21  1 46 30.0000000  0  9G04G10G29G12G26G05G30G02G25
 128609472.440 6 100215280.19643  24473558.844                    24473569.125
 119135150.718 6  92832688.72144  22670649.750                    22670658.379
 122990420.342 7  95836750.992 6  23404301.117                    23404311.578
 110277033.164 8  85930205.207 7  20985015.750                    20985023.531
 129149615.917 5 100636153.75042  24576362.500                    24576374.867
 106492987.528 8  82981693.015 8  20264918.703                    20264926.152
 113915945.347 8  88765759.38045  21677484.398                    21677492.859
 111920615.696 7  87210975.00946  21297767.594                    21297773.000
 114226413.733 7  89007691.651 7  21736561.219                    21736572.141
 11  8 21  1 47  0.0000000  0  9G04G10G29G12G26G05G30G02G25
 128687930.649 6 100276416.47243  24488488.875                    24488498.676
 119228307.801 7  92905278.63444  22688376.938                    22688384.629
 122907105.078 7  95771830.118 6  23388447.227                    23388457.164
 110314169.772 8  85959142.830 7  20992082.898                    20992090.750
 129056161.152 6 100563331.99243  24558579.406                    24558591.410
 106492064.662 8  82980973.932 8  20264743.078                    20264750.609
 113901252.956 8  88754310.76045  21674688.359                    21674697.035
 111954145.827 7  87237102.39546  21304148.078                    21304154.098
 114197562.541 8  88985210.219 7  21731071.258                    21731081.938
 11  8 21  1 47 30.0000000  0  9G04G10G29G12G26G05G30G02G25
 128766326.136 6 100337503.83343  24503407.328                    24503416.992
 119321762.222 7  92978100.22344  22706160.727                    22706168.992
 122823784.702 6  95706905.253 6  23372591.305                    23372601.301
 110351840.454 8  85988496.601 7  20999251.492                    20999259.195
 128962611.525 6 100490436.34243  24540777.625                    24540789.367
 106491712.825 8  82980699.813 8  20264675.859                    20264683.156
 113887166.230 8  88743334.09845  21672008.250                    21672016.598
 111987778.270 7  87263309.50546  21310547.938                    21310553.855
 114169276.254 8  88963168.975 7  21725688.047                    21725698.316
 11  8 21  1 48  0.0000000  0  9G04G10G29G12G26G05G30G02G25
 128844658.738 6 100398542.23743  24518313.000                    24518322.270
 119415511.258 7  93051151.38944  22724001.445                    22724008.641
 122740460.747 6  95641977.597 6  23356736.359                    23356744.895
 110390043.735 8  86018265.400 7  21006521.180                    21006529.004
 128868969.966 6 100417468.98942  24522958.344                    24522969.508
 106491931.576 8  82980870.301 8  20264717.578                    20264725.145
 113873685.344 8  88732829.51646  21669442.531                    21669451.566
 112021512.579 7  87289595.98746  21316967.320                    21316973.684
 114141555.794 8  88941568.626 7  21720413.063                    21720423.758
 11  8 21  1 48 30.0000000  0  9G04G10G29G12G26G05G30G02G25
 128922928.375 6 100459531.49543  24533208.211                    24533217.797
 119509551.948 7  93124429.83344  22741896.273                    22741904.453
 122657134.445 6  95577048.106 6  23340879.453                    23340888.465
 110428778.501 8  86048448.330 7  21013891.906                    21013899.484
 128775239.523 6 100344432.41943  24505123.086                    24505133.145
 106492720.431 8  82981485.023 8  20264867.602                    20264875.352
 113860810.514 8  88722797.18746  21666992.625                    21667001.316
 112055348.454 8  87315961.60446  21323405.992                    21323412.223
 114114402.068 8  88920409.896 7  21715245.984                    21715256.645
 11  8 21  1 49  0.0000000  0  9G04G10G29G12G26G05G30G02G25
 129001134.758 6 100520471.50043  24548090.039                    24548099.922
 119603881.397 7  93197933.26144  22759846.469                    22759855.367
 122573807.340 7  95512117.983 7  23325022.820                    23325032.055
 110468042.874 8  86079043.941 7  21021363.992                    21021371.328
 128681423.327 6 100271329.03042  24487269.102                    24487279.988
 106494078.709 8  82982543.458 8  20265126.063                    20265133.602
 113848541.737 8  88713237.09945  21664658.070                    21664666.867
 112089285.364 7  87342405.94146  21329863.945                    21329870.051
 114087815.843 8  88899693.374 7  21710186.859                    21710197.430
 11  8 21  1 49 30.0000000  0  9G04G10G29G12G26G05G30G02G25
 129079277.618 6 100581362.01143  24562959.641                    24562970.102
 119698496.929 7  93271659.66144  22777851.586                    22777859.262
 122490480.744 7  95447188.262 7  23309166.023                    23309175.875
 110507835.022 8  86110050.815 7  21028936.094                    21028943.863
 128587524.084 6 100198160.92643  24469400.648                    24469412.355
 106496005.687 8  82984045.029 8  20265492.750                    20265500.523
 113836878.964 8  88704149.24145  21662438.445                    21662447.102
 112123322.565 7  87368928.41146  21336340.938                    21336346.684
 114061797.732 8  88879419.534 7  21705235.711                    21705246.141
 11  8 21  1 50  0.0000000  0  9G04G10G29G12G26G05G30G02G25
 129157356.703 6 100642202.91042  24577817.508                    24577828.184
 119793395.455 7  93345606.56944  22795909.445                    22795918.109
 122407155.968 7  95382259.933 6  23293310.242                    23293319.199
 110548153.545 8  86141467.848 7  21036608.523                    21036616.000
 128493545.270 6 100124930.78342  24451517.180                    24451528.598
 106498500.831 8  82985989.310 8  20265967.750                    20265974.934
 113825822.446 8  88695533.79546  21660334.383                    21660343.320
 112157459.686 7  87395528.74646  21342837.094                    21342843.184
 114036348.740 7  88859589.172 7  21700393.156                    21700403.363
 11  8 21  1 50 30.0000000  0  9G04G10G29G12G26G05G30G02G25
 129235372.299 6 100702994.28942  24592662.625                    24592673.918
 119888574.234 7  93419771.83044  22814021.750                    22814030.809
 122323834.461 7  95317334.167 7  23277453.891                    23277463.656
 110588996.950 8  86173293.894 7  21044380.719                    21044388.297
 128399489.844 6 100051640.95943  24433619.133                    24433629.285
 106501563.841 8  82988376.095 8  20266550.547                    20266558.012
 113815372.284 8  88687390.83346  21658345.742                    21658354.500
 112191696.438 7  87422206.72046  21349352.469                    21349358.426
 114011469.740 7  88840202.948 7  21695658.820                    21695669.113
 11  8 21  1 51  0.0000000  0  9G04G10G29G12G26G05G30G02G25
 129313323.676 6 100763735.62442  24607496.758                    24607507.320
 119984030.023 6  93494152.92744  22832185.898                    22832195.004
 122240517.621 6  95252412.016 7  23261600.266                    23261608.797
 110630363.271 8  86205527.398 7  21052252.539                    21052259.777
 128305360.599 6  99978293.60943  24415706.375                    24415716.738
 106505193.159 8  82991204.149 8  20267241.188                    20267248.754
 113805528.089 8  88679720.05246  21656472.938                    21656481.785
 112226031.917 7  87448961.63446  21355886.023                    21355892.039
 113987161.076 8  88821261.135 7  21691032.758                    21691043.449
 11  8 21  1 51 30.0000000  0  9G04G10G29G12G26G05G30G02G25
 129391211.181 6 100824427.16442  24622318.102                    24622328.090
 120079760.322 6  93568747.94944  22850403.125                    22850411.660
 122157207.130 6  95187494.843 6  23245746.039                    23245755.270
 110672251.248 8  86238167.381 7  21060223.273                    21060230.938
 128211161.077 6  99904891.50343  24397781.039                    24397791.738
 106509389.157 8  82994473.760 8  20268039.359                    20268047.137
 113796290.211 8  88672521.73345  21654714.758                    21654723.414
 112260466.255 7  87475793.59046  21362439.234                    21362445.305
 113963423.882 8  88802764.625 7  21686516.203                    21686526.523
 11  8 21  1 52  0.0000000  0  9G04G10G29G12G26G05G30G02G25
 129469034.345 6 100885068.58442  24637127.227                    24637138.496
 120175762.406 6  93643554.76344  22868671.195                    22868680.586
 122073904.253 7  95122583.532 6  23229894.313                    23229902.930
 110714658.674 8  86271212.133 7  21068293.125                    21068300.715
 128116893.941 6  99831436.65443  24379842.211                    24379852.813
 106514150.283 8  82998183.739 8  20268945.563                    20268953.148
 113787658.171 8  88665795.49846  21653072.141                    21653080.742
 112294998.582 7  87502701.90146  21369009.898                    21369016.195
 113940258.414 8  88784713.644 7  21682107.641                    21682117.773
 11  8 21  1 52 30.0000000  0  9G04G10G29G12G26G05G30G02G25
 129546793.040 6 100945659.77942  24651924.539                    24651935.047
 120272033.157 7  93718570.91144  22886991.945                    22887000.453
 121990610.465 6  95057679.324 6  23214043.430                    23214052.246
 110757584.176 8  86304660.577 7  21076461.547                    21076469.543
 128022562.497 6  99757931.73243  24361891.719                    24361902.363
 106519476.179 8  83002333.799 8  20269959.109                    20269966.703
 113779632.046 8  88659541.39845  21651544.281                    21651552.992
 112329628.621 8  87529686.34046  21375599.977                    21375606.105
 113917665.454 8  88767108.759 7  21677808.164                    21677818.613
 11  8 21  1 53  0.0000000  0  9G04G10G29G12G26G05G30G02G25
 129624487.164 7 101006200.63443  24666709.656                    24666719.906
 120368569.697 7  93793794.17544  22905362.047                    22905370.953
 121907327.183 7  94992783.312 6  23198194.984                    23198204.625
 110801025.343 8  86338510.840 7  21084728.367                    21084736.422
 127928169.775 6  99684379.05343  24343928.883                    24343939.871
 106525365.862 8  83006923.169 8  20271079.961                    20271087.309
 113772211.516 8  88653759.20245  21650132.266                    21650140.988
 112364355.546 7  87556746.28546  21382208.313                    21382214.242
 113895645.487 8  88749950.356 7  21673617.633                    21673628.551
 11  8 21  1 53 30.0000000  0  8G10G29G12G26G05G30G02G25
 120465369.496 7  93869222.56944  22923782.445                    22923791.480
 121824056.026 7  94927896.723 6  23182349.484                    23182358.625
 110844981.379 8  86372762.288 7  21093092.758                    21093100.664
 127833719.107 6  99610781.25043  24325955.539                    24325966.293
 106531818.920 8  83011951.543 8  20272307.531                    20272315.406
 113765396.878 8  88648449.11845  21648835.750                    21648844.215
 112399179.613 7  87583881.93746  21388835.000                    21388840.984
 113874199.532 8  88733239.255 7  21669537.094                    21669547.406
 11  8 21  1 54  0.0000000  0  8G10G29G12G26G05G30G02G25
 120562429.037 7  93944853.34744  22942252.266                    22942261.305
 121740798.074 7  94863020.449 6  23166506.141                    23166514.781
 110889449.261 8  86407412.586 7  21101554.781                    21101562.590
 127739213.087 6  99537140.34242  24307971.258                    24307981.594
 106538833.690 8  83017417.609 8  20273642.805                    20273650.078
 113759187.334 8  88643610.53345  21647654.117                    21647662.641
 112434099.536 7  87611092.26446  21395480.016                    21395485.930
 113853327.611 8  88716975.427 7  21665564.883                    21665575.313
 11  8 21  1 54 30.0000000  0  8G10G29G12G26G05G30G02G25
 120659745.567 7  94020684.39244  22960771.297                    22960779.578
 121657555.178 6  94798155.888 6  23150664.844                    23150674.168
 110934427.734 8  86442460.748 7  21110114.094                    21110121.148
 127644655.236 6  99463459.01443  24289977.258                    24289988.145
 106546409.752 8  83023321.049 8  20275084.617                    20275091.473
 113753582.795 8  88639243.38645  21646587.539                    21646595.906
 112469114.964 8  87638377.02846  21402143.180                    21402149.398
 113833030.393 8  88701159.434 7  21661702.563                    21661712.969
 11  8 21  1 55  0.0000000  0  8G10G29G12G26G05G30G02G25
 120757316.263 7  94096713.49544  22979338.250                    22979346.813
 121574328.629 7  94733304.087 6  23134827.914                    23134835.895
 110979914.734 8  86477905.151 7  21118769.719                    21118777.586
 127550048.425 6  99389739.57443  24271974.258                    24271985.086
 106554546.047 8  83029661.036 8  20276632.711                    20276640.145
 113748582.900 8  88635347.37545  21645636.023                    21645644.707
 112504225.808 7  87665736.14446  21408824.391                    21408830.539
 113813308.253 8  88685791.545 7  21657949.500                    21657959.691
 11  8 21  1 55 30.0000000  0  8G10G29G12G26G05G30G02G25
 120855138.196 7  94172938.37544  22997953.211                    22997961.016
 121491119.775 7  94668466.042 6  23118993.625                    23119002.137
 111025908.517 8  86513744.465 7  21127522.188                    21127530.086
 127455395.834 6  99315984.43643  24253962.766                    24253973.160
 106563241.423 8  83036436.675 8  20278287.188                    20278294.699
 113744187.283 8  88631922.24046  21644799.727                    21644808.309
 112539431.245 7  87693168.96246  21415523.547                    21415529.945
 113794161.616 8  88670872.110 7  21654305.906                    21654316.598
 11  8 21  1 56  0.0000000  0  8G10G29G12G26G05G30G02G25
 120953208.310 7  94249356.66544  23016615.102                    23016623.363
 121407930.361 6  94603643.150 6  23103163.164                    23103172.398
 111072407.229 8  86549977.213 7  21136370.789                    21136378.383
 127360700.645 6  99242196.16143  24235943.281                    24235953.063
 106572495.357 8  83043647.554 8  20280048.344                    20280055.766
 113740395.705 8  88628967.76745  21644077.922                    21644086.684
 112574731.057 8  87720675.30946  21422241.445                    21422247.348
 113775590.970 8  88656401.481 7  21650772.211                    21650782.426
 11  8 21  1 56 30.0000000  0  8G10G29G12G26G05G30G02G25
 121051524.299 6  94325966.48644  23035324.023                    23035332.418
 121324761.767 7  94538836.525 6  23087336.125                    23087345.563
 111119408.798 8  86586601.805 7  21145314.617                    21145322.277
 127265966.130 6  99168377.20343  24217914.563                    24217926.102
 106582306.985 8  83051292.998 8  20281915.414                    20281922.402
 113737208.022 8  88626483.85245  21643471.578                    21643479.543
 112610124.792 8  87748254.84646  21428976.891                    21428982.723
 113757597.015 8  88642380.221 7  21647347.945                    21647358.402
 11  8 21  1 57  0.0000000  0  8G10G29G12G26G05G30G02G25
 121150082.829 6  94402765.28444  23054079.273                    23054087.438
 121241615.517 7  94474047.278 6  23071514.609                    23071523.625
 111166911.015 8  86623616.527 7  21154354.070                    21154361.910
 127171195.395 6  99094530.02943  24199880.000                    24199891.656
 106592675.013 8  83059372.010 8  20283888.219                    20283895.684
 113734623.448 8  88624469.89546  21642979.492                    21642987.801
 112645611.967 8  87775907.18946  21435729.477                    21435735.828
 113740179.804 8  88628808.385 7  21644033.461                    21644044.207
 11  8 21  1 57 30.0000000  0  8G10G29G12G26G05G30G02G25
 121248880.946 6  94479750.80044  23072880.695                    23072888.234
 121158493.325 7  94409276.756 6  23055697.336                    23055705.500
 111214912.273 8  86661020.100 7  21163488.547                    21163495.703
 127076391.403 6  99020656.92243  24181839.984                    24181850.551
 106603598.260 8  83067883.653 8  20285967.039                    20285974.273
 113732641.775 7  88622925.73746  21642603.047                    21642611.617
 112681192.034 8  87803631.91646  21442500.109                    21442506.203
 113723339.728 8  88615686.249 7  21640829.211                    21640839.551
 11  8 21  1 58  0.0000000  0  8G10G29G12G26G05G30G02G25
 121347915.968 6  94556920.93043  23091725.492                    23091733.574
 121075396.137 7  94344525.728 6  23039883.953                    23039892.723
 111263410.369 8  86698810.815 7  21172717.555                    21172724.879
 126981557.470 7  98946760.46343  24163793.703                    24163803.727
 106615075.655 8  83076827.097 8  20288151.023                    20288158.164
 113731262.358 7  88621850.84945  21642340.117                    21642348.395
 112716864.665 8  87831428.77746  21449288.055                    21449294.023
 113707077.020 8  88603014.003 7  21637734.664                    21637744.984
 11  8 21  1 58 30.0000000  0  8G10G29G12G26G05G30G02G25
 121447184.934 6  94634273.39043  23110615.367                    23110623.535
 120992326.040 7  94279795.833 6  23024076.047                    23024085.043
 111312403.057 8  86736986.919 7  21182040.492                    21182048.133
 126886696.847 7  98872843.21043  24145742.297                    24145753.344
 106627106.531 8  83086201.824 8  20290440.242                    20290447.531
 113730484.890 8  88621245.02245  21642191.938                    21642199.973
 112752629.596 8  87859297.55946  21456094.641                    21456100.453
 113691392.147 8  88590792.019 7  21634749.906                    21634760.207
 11  8 21  1 59  0.0000000  0  8G10G29G12G26G05G30G02G25
 121546685.061 6  94711805.92843  23129549.406                    23129557.699
 120909284.597 7  94215088.266 6  23008274.016                    23008283.047
 111361888.808 8  86775547.237 7  21191457.164                    21191464.883
 126791812.906 7  98798907.78643  24127686.305                    24127696.867
 106639689.778 8  83096006.976 8  20292834.906                    20292842.305
 113730308.960 7  88621107.92845  21642158.914                    21642167.094
 112788486.584 8  87887238.08646  21462917.445                    21462923.211
 113676285.562 8  88579020.652 7  21631874.992                    21631885.379
 11  8 21  1 59 30.0000000  0  8G10G29G12G26G05G30G02G25
 121646413.732 6  94789516.59943  23148527.641                    23148535.508
 120826273.315 7  94150404.190 6  22992477.344                    22992485.934
 111411865.696 8  86814490.263 7  21200967.430                    21200974.824
 126696908.817 7  98724956.68943  24109627.406                    24109637.168
 106652824.295 8  83106241.683 8  20295334.219                    20295341.801
 113730734.077 8  88621439.17345  21642239.633                    21642248.055
 112824435.232 8  87915250.02846  21469758.250                    21469763.891
 113661757.469 8  88567700.058 7  21629110.250                    21629120.898
 11  8 21  2  0  0.0000000  0  8G10G29G12G26G05G30G02G25
 121746367.850 7  94867402.91944  23167548.313                    23167556.504
 120743293.881 7  94085744.918 6  22976686.688                    22976695.273
 111462331.079 8  86853813.925 7  21210570.594                    21210578.402
 126601987.385 7  98650992.07143  24091563.727                    24091573.785
 106666508.544 8  83116904.755 8  20297938.406                    20297945.484
 113731759.396 8  88622238.10546  21642434.906                    21642443.352
 112860474.603 8  87943332.66046  21476616.422                    21476621.887
 113647807.808 8  88556830.181 7  21626455.711                    21626466.559
 11  8 21  2  0 30.0000000  0  8G10G29G12G26G05G30G02G25
 121846544.462 7  94945462.61344  23186611.070                    23186619.547
 120660347.771 7  94021111.647 6  22960902.641                    22960911.445
 111513283.047 8  86893516.747 7  21220266.820                    21220274.512
 126507052.386 7  98577016.83643  24073498.688                    24073507.746
 106680741.791 8  83127995.617 8  20300646.859                    20300653.941
 113733384.452 8  88623504.38945  21642743.797                    21642752.152
 112896604.877 8  87971486.12046  21483491.797                    21483497.504
 113634436.971 8  88546411.347 7  21623911.625                    21623922.051
 11  8 21  2  1  0.0000000  0  8G10G29G12G26G05G30G02G25
 121946941.204 7  95023693.82444  23205715.547                    23205725.148
 120577436.694 7  93956505.658 6  22945125.250                    22945134.176
 111564719.797 8  86933597.319 7  21230054.766                    21230062.441
 126412106.893 7  98503033.44143  24055430.422                    24055439.754
 106695522.889 8  83139513.374 8  20303459.195                    20303466.754
 113735608.865 8  88625237.68446  21643167.383                    21643175.641
 112932825.547 8  87999710.02346  21490384.445                    21490389.824
 113621645.329 8  88536443.825 7  21621477.469                    21621488.023
 11  8 21  2  1 30.0000000  0  8G10G29G12G26G05G30G02G25
 122047554.881 7  95102094.05344  23224862.563                    23224871.234
 120494562.164 7  93891928.171 6  22929354.414                    22929363.688
 111616638.744 8  86974053.638 7  21239934.922                    21239942.234
 126317154.144 6  98429044.36143  24037361.539                    24037370.957
 106710850.439 8  83151456.938 8  20306376.125                    20306383.492
 113738431.729 8  88627437.30945  21643704.742                    21643713.047
 112969136.412 8  88028004.20046  21497294.180                    21497299.813
 113609432.773 8  88526927.546 7  21619153.703                    21619164.113
 11  8 21  2  2  0.0000000  0  8G10G29G12G26G05G30G02G25
 122148382.954 7  95180661.40044  23244049.031                    23244058.664
 120411725.889 7  93827380.491 6  22913591.359                    22913599.930
 111669037.914 8  87014884.162 7  21249905.695                    21249913.270
 126222197.403 6  98355052.19943  24019291.516                    24019301.379
 106726723.441 8  83163825.521 8  20309396.414                    20309403.953
 113741852.548 8  88630102.88746  21644355.977                    21644364.031
 113005537.151 8  88056368.41346  21504220.938                    21504226.344
 113597799.622 8  88517862.765 7  21616939.727                    21616950.805
 11  8 21  2  2 30.0000000  0  8G10G29G12G26G05G30G02G25
 122249422.298 7  95259393.36844  23263276.383                    23263285.566
 120328929.643 7  93762864.000 6  22897835.648                    22897844.328
 111721915.448 8  87056087.432 7  21259967.875                    21259975.793
 126127240.046 6  98281059.59543  24001221.219                    24001231.684
 106743140.560 8  83176618.101 8  20312520.703                    20312528.480
 113745870.547 8  88633233.80646  21645120.258                    21645128.398
 113042027.349 8  88084802.33346  21511164.883                    21511170.586
 113586745.962 8  88509249.557 7  21614836.070                    21614846.699
 11  8 21  2  3  0.0000000  0  8G10G29G12G26G05G30G02G25
 122350670.019 7  95338287.68044  23282543.625                    23282552.750
 120246174.727 7  93698379.737 6  22882088.023                    22882096.621
 111775268.898 8  87097661.540 7  21270120.867                    21270128.516
 126032285.333 6  98207069.01543  23983151.711                    23983162.953
 106760100.390 8  83189833.570 8  20315747.883                    20315755.410
 113750485.027 8  88636829.51546  21645998.102                    21646006.688
 113078606.613 8  88113305.65846  21518125.609                    21518131.441
 113576271.759 8  88501087.847 7  21612843.594                    21612853.668
 11  8 21  2  3 30.0000000  0  8G10G29G12G26G05G30G02G25
 122452123.417 7  95417342.28044  23301848.758                    23301858.438
 120163463.086 7  93633929.169 6  22866348.305                    22866356.891
 111829096.064 8  87139604.779 7  21280363.695                    21280371.742
 125937336.602 6  98133083.12343  23965083.445                    23965094.578
 106777601.876 8  83203471.114 8  20319078.414                    20319085.930
 113755695.323 8  88640889.49846  21646989.547                    21646998.016
 113115274.846 8  88141878.31646  21525103.266                    21525108.992
 113566377.215 8  88493377.837 7  21610959.984                    21610970.559
 11  8 21  2  4  0.0000000  0  8G10G29G12G26G05G30G02G25
 122553779.568 7  95496554.83643  23321193.375                    23321202.461
 120080796.406 7  93569513.659 6  22850617.375                    22850626.188
 111883394.645 8  87181915.350 7  21290696.422                    21290704.336
 125842396.979 6  98059104.30443  23947017.414                    23947027.621
 106795643.642 8  83217529.642 8  20322511.648                    20322519.238
 113761500.395 8  88645412.94445  21648094.586                    21648102.824
 113152031.370 8  88170519.75646  21532097.516                    21532103.793
 113557062.101 8  88486119.337 7  21609187.727                    21609198.020
 11  8 21  2  4 30.0000000  0  8G10G29G12G26G05G30G02G25
 122655636.312 7  95575923.67244  23340576.203                    23340585.316
 119998176.214 7  93505134.355 6  22834895.258                    22834903.691
 111938162.858 8  87224591.865 7  21301118.648                    21301125.773
 125747470.009 6  97985135.33043  23928953.609                    23928963.441
 106814224.698 8  83232008.406 8  20326047.531                    20326054.895
 113767899.784 8  88650399.51145  21649311.797                    21649320.535
 113188876.051 8  88199229.89946  21539109.367                    21539115.328
 113548326.750 8  88479312.604 7  21607525.180                    21607535.660
 11  8 21  2  5  0.0000000  0  8G10G29G12G26G05G30G02G25
 122757690.092 7  95655446.09844  23359996.938                    23360005.414
 119915603.832 7  93440792.309 7  22819182.211                    22819190.605
 111993397.807 8  87267632.083 7  21311629.578                    21311637.277
 125652558.742 6  97911178.62244  23910892.727                    23910902.926
 106833342.950 8  83246905.762 8  20329685.289                    20329693.109
 113774892.107 8  88655848.09845  21650642.492                    21650650.707
 113225808.390 8  88228008.34446  21546136.773                    21546142.984
 113540170.689 8  88472957.266 7  21605972.992                    21605983.781
 11  8 21  2  5 30.0000000  0  8G10G29G12G26G05G30G02G25
 122859938.329 6  95735120.03443  23379453.719                    23379462.090
 119833081.424 7  93376489.237 7  22803478.500                    22803487.406
 112049097.412 8  87311034.363 7  21322228.586                    21322236.504
 125557666.664 6  97837236.84144  23892834.719                    23892844.785
 106852997.636 8  83262221.118 8  20333425.656                    20333432.887
 113782476.939 8  88661758.38445  21652085.781                    21652094.223
 113262828.365 8  88256855.07646  21553182.008                    21553187.422
 113532594.144 8  88467053.510 7  21604531.398                    21604541.723
 11  8 21  2  6  0.0000000  0  8G10G29G12G26G05G30G02G25
 122962378.241 7  95814943.33843  23398947.438                    23398955.379
 119750610.812 7  93312226.490 7  22787785.164                    22787793.496
 112105259.670 8  87354797.152 7  21332916.195                    21332923.648
 125462797.249 6  97763312.72044  23874781.922                    23874791.910
 106873187.566 8  83277953.541 8  20337267.570                    20337274.695
 113790653.355 8  88668129.63545  21653641.961                    21653649.945
 113299935.719 8  88285769.88846  21560243.477                    21560249.074
 113525597.076 8  88461601.280 7  21603199.930                    21603210.066
 11  8 21  2  6 30.0000000  0  8G10G29G12G26G05G30G02G25
 123065006.853 7  95894913.74343  23418477.570                    23418484.977
 119668193.453 7  93248005.254 7  22772101.297                    22772110.020
 112161881.947 8  87398918.394 7  21343690.648                    21343698.234
 125367953.638 6  97689408.68944  23856733.625                    23856744.195
 106893910.869 8  83294101.587 8  20341211.008                    20341218.363
 113799420.291 8  88674961.04245  21655310.195                    21655318.031
 113337129.903 8  88314752.38346  21567321.008                    21567327.145
 113519179.203 8  88456600.376 7  21601978.508                    21601988.840
 11  8 21  2  7  0.0000000  0  8G10G29G12G26G05G30G02G25
 123167821.685 7  95975029.12243  23438041.930                    23438050.504
 119585830.717 7  93183826.587 7  22756427.977                    22756437.234
 112218962.023 8  87443396.365 7  21354553.281                    21354560.719
 125273138.979 6  97615527.20944  23838691.031                    23838701.414
 106915165.921 8  83310663.982 8  20345255.617                    20345263.266
 113808776.734 8  88682251.80145  21657090.602                    21657098.250
 113374410.720 7  88343802.37145  21574415.586                    21574421.504
 113513340.293 8  88452050.604 7  21600867.406                    21600877.898
 11  8 21  2  7 30.0000000  0  8G10G29G12G26G05G30G02G25
 123270819.882 7  96055287.44143  23457642.242                    23457650.547
 119503524.977 7  93119692.333 7  22740765.609                    22740774.762
 112276497.838 8  87488229.460 7  21365501.375                    21365509.055
 125178357.036 6  97541671.22844  23820654.984                    23820664.152
 106936951.727 8  83327639.952 8  20349401.586                    20349408.910
 113818721.822 7  88690001.25545  21658983.148                    21658991.379
 113411777.958 7  88372919.71545  21581525.875                    21581532.039
 113508080.336 8  88447951.967 7  21599866.508                    21599876.688
 11  8 21  2  8  0.0000000  0  8G10G29G12G26G05G30G02G25
 123373998.279 7  96135686.18143  23477276.617                    23477284.352
 119421277.565 7  93055603.514 7  22725114.086                    22725123.027
 112334486.508 8  87533415.434 7  21376536.555                    21376544.156
 125083611.022 6  97467843.24244  23802625.008                    23802634.852
 106959266.436 8  83345028.056 8  20353647.680                    20353655.684
 113829254.449 7  88698208.51445  21660987.281                    21660995.543
 113449231.536 8  88402104.31145  21588653.344                    21588659.211
 113503399.023 8  88444304.215 7  21598975.484                    21598985.828
 11  8 21  2  8 30.0000000  0  8G10G29G12G26G05G30G02G25
 123477354.435 6  96216223.45043  23496943.969                    23496953.109
 119339090.655 7  92991561.850 7  22709474.500                    22709484.051
 112392926.130 7  87578952.796 7  21387657.211                    21387664.625
 124988904.801 6  97394046.27143  23784602.664                    23784612.547
 106982109.469 8  83362827.829 8  20357994.727                    20358002.320
 113840374.134 8  88706873.21345  21663103.586                    21663111.426
 113486771.597 8  88431356.29646  21595797.563                    21595802.641
 113499296.668 8  88441107.590 7  21598194.852                    21598205.086
 11  8 21  2  9  0.0000000  0  8G10G29G12G26G05G30G02G25
 123580885.565 6  96296897.02943  23516645.867                    23516653.758
 119256965.600 7  92927568.363 7  22693846.625                    22693855.848
 112451814.351 7  87624839.711 7  21398863.391                    21398871.219
 124894241.406 6  97320282.68443  23766588.703                    23766598.188
 107005478.525 8  83381037.500 8  20362441.578                    20362449.043
 113852079.437 8  88715994.24045  21665330.938                    21665338.914
 113524397.173 8  88460674.90646  21602956.859                    21602962.508
 113495772.578 8  88438361.563 7  21597524.313                    21597534.582
 11  8 21  2  9 30.0000000  0  8G10G29G12G26G05G30G02G25
 123684589.036 6  96377704.92643  23536379.961                    23536388.031
 119174904.510 7  92863624.718 7  22678230.914                    22678239.410
 112511148.676 8  87671074.235 7  21410153.961                    21410162.000
 124799624.129 6  97246555.04143  23748583.297                    23748593.578
 107029372.605 8  83399656.290 8  20366988.375                    20366995.801
 113864369.364 8  88725570.82145  21667669.273                    21667677.504
 113562108.629 8  88490060.43946  21610133.297                    21610138.828
 113492826.726 8  88436066.107 7  21596963.742                    21596974.125
 11  8 21  2 10  0.0000000  0  8G10G29G12G26G05G30G02G25
 123788461.920 6  96458644.84443  23556145.563                    23556154.570
 119092908.953 7  92799732.124 7  22662627.859                    22662636.191
 112570926.349 7  87717654.229 7  21421529.852                    21421537.406
 124705056.429 6  97172866.00343  23730587.664                    23730597.277
 107053789.620 8  83418682.545 8  20371634.859                    20371642.262
 113877242.463 8  88735601.82045  21670118.836                    21670127.031
 113599905.150 8  88519512.26745  21617325.734                    21617331.398
 113490458.363 8  88434220.635 7  21596513.156                    21596523.250
 11  8 21  2 10 30.0000000  0  8G10G29G12G26G05G30G02G25
 123892501.668 6  96539714.72443  23575944.680                    23575953.254
 119010980.766 7  92735892.027 7  22647037.555                    22647045.656
 112631145.283 8  87764578.067 7  21432988.977                    21432996.988
 124610541.725 6  97099218.27443  23712602.594                    23712611.699
 107078728.363 8  83438115.336 8  20376380.742                    20376388.031
 113890697.804 8  88746086.50845  21672679.352                    21672688.168
 113637786.693 8  88549030.35846  21624533.789                    21624539.828
 113488667.451 7  88432825.130 7  21596172.094                    21596182.520
 11  8 21  2 11  0.0000000  0  8G10G29G12G26G05G30G02G25
 123996705.519 7  96620912.48544  23595773.797                    23595782.695
 118929121.873 7  92672105.914 7  22631460.438                    22631468.695
 112691802.591 7  87811843.486 7  21444531.914                    21444539.328
 124516083.308 6  97025614.42543  23694627.227                    23694636.840
 107104187.049 8  83457953.281 8  20381225.414                    20381232.992
 113904734.141 8  88757023.91845  21675350.320                    21675358.953
 113675752.967 8  88578614.47545  21631758.773                    21631765.023
 113487453.406 8  88431879.133 7  21595941.023                    21595951.293
 11  8 21  2 11 30.0000000  0  8G10G29G12G26G05G30G02G25
 124101070.664 6  96702235.99543  23615632.641                    23615642.504
 118847333.849 7  92608375.037 7  22615896.484                    22615905.004
 112752896.688 7  87859449.284 7  21456157.242                    21456165.109
 124421684.929 6  96952057.33643  23676662.953                    23676674.020
 107130164.332 8  83478195.333 8  20386168.461                    20386176.188
 113919350.592 8  88768413.36445  21678132.008                    21678139.887
 113713804.066 8  88608264.67346  21638999.328                    21639005.551
 113486816.264 8  88431382.660 7  21595819.859                    21595830.262
 11  8 21  2 12  0.0000000  0  9G15G10G29G12G26G05G30G02G25
 129080426.17115                  24563194.141
 124205594.472 6  96783683.04343  23635523.859                    23635532.023
 118765618.610 7  92544700.866 7  22600346.359                    22600355.094
 112814424.398 7  87907392.938 7  21467865.750                    21467872.922
 124327349.963 7  96878549.65444  23658712.156                    23658722.457
 107156658.784 8  83498840.356 8  20391210.203                    20391217.797
 113934545.955 8  88780253.90945  21681023.508                    21681032.219
 113751939.938 8  88637980.93346  21646256.727                    21646262.832
 113486755.616 8  88431335.405 7  21595808.438                    21595818.570
 11  8 21  2 12 30.0000000  0  9G15G10G29G12G26G05G30G02G25
 128987112.88815 100509495.81414  24545433.758
 124310274.057 7  96865251.53644  23655444.102                    23655451.801
 118683977.880 7  92481084.749 6  22584810.539                    22584818.980
 112876383.352 7  87955672.637 7  21479656.016                    21479663.996
 124233081.769 7  96805093.99244  23640774.203                    23640783.758
 107183668.454 8  83519886.865 8  20396350.180                    20396357.598
 113950318.688 8  88792544.35845  21684024.875                    21684033.223
 113790160.386 8  88667763.07846  21653529.797                    21653535.637
 113487270.734 8  88431736.806 7  21595906.109                    21595916.602
 11  8 21  2 13  0.0000000  0  9G15G10G29G12G26G05G30G02G25
 128893677.30415 100436689.01315  24527654.633
 124415106.892 7  96946939.47744  23675393.141                    23675401.215
 118602413.830 7  92417528.392 6  22569289.008                    22569297.559
 112938771.645 7  88004286.887 7  21491528.133                    21491535.777
 124138883.979 7  96731693.18744  23622848.570                    23622858.344
 107211192.223 8  83541333.966 8  20401587.469                    20401594.926
 113966667.890 8  88805283.99545  21687136.031                    21687144.598
 113828464.939 8  88697610.76745  21660818.953                    21660824.961
 113488361.553 8  88432586.795 7  21596114.320                    21596124.820
 11  8 21  2 13 30.0000000  0  9G15G10G29G12G26G05G30G02G25
 128800121.06615 100363788.15814  24509851.594
 124520090.225 7  97028744.62243  23695370.492                    23695378.863
 118520928.336 7  92354033.222 7  22553783.273                    22553791.813
 113001585.970 7  88053233.104 7  21503481.336                    21503489.023
 124044759.962 7  96658349.88544  23604937.602                    23604947.047
 107239228.170 8  83563180.158 8  20406922.906                    20406930.266
 113983592.013 8  88818471.61545  21690356.875                    21690365.055
 113866853.222 8  88727523.69645  21668124.133                    21668129.883
 113490027.247 8  88433884.727 7  21596430.828                    21596441.309
 11  8 21  2 14  0.0000000  0  9G15G10G29G12G26G05G30G02G25
 128706446.04115 100290794.78914  24492025.414
 124625220.919 7  97110664.59143  23715376.125                    23715384.730
 118439522.700 7  92290600.308 7  22538292.563                    22538300.227
 113064823.914 8  88102509.422 7  21515515.195                    21515522.609
 123950712.757 7  96585066.43744  23587040.805                    23587050.754
 107267773.893 8  83585423.594 8  20412354.813                    20412362.258
 114001089.322 8  88832105.87045  21693686.617                    21693694.703
 113905325.225 8  88757501.86445  21675444.953                    21675450.695
 113492266.959 8  88435629.960 7  21596857.539                    21596868.113
 11  8 21  2 14 30.0000000  0  9G15G10G29G12G26G05G30G02G25
 128612655.594 5 100217711.495 5  24474177.625
 124730496.645 7  97192697.58043  23735410.453                    23735418.160
 118358198.991 7  92227231.217 7  22522817.445                    22522825.223
 113128483.000 8  88152113.899 7  21527629.352                    21527637.066
 123856746.396 7  96511845.97844  23569159.773                    23569169.242
 107296828.332 8  83608063.414 8  20417883.633                    20417891.012
 114019158.992 8  88846186.14645  21697124.469                    21697133.074
 113943880.891 8  88787545.22945  21682781.703                    21682787.781
 113495080.696 8  88437822.476 7  21597392.719                    21597403.348
 11  8 21  2 15  0.0000000  0  9G15G10G29G12G26G05G30G02G25
 128518752.028 5 100144540.008 5  24456308.156
 124835914.538 7  97274841.35943  23755470.570                    23755479.207
 118276958.878 7  92163927.286 7  22507357.367                    22507365.516
 113192560.699 8  88202044.564 7  21539822.703                    21539830.340
 123762864.045 7  96438690.99944  23551294.563                    23551304.051
 107326389.203 8  83631097.861 8  20423509.055                    20423515.973
 114037799.481 8  88860711.19145  21700671.922                    21700680.242
 113982520.262 8  88817653.81246  21690134.922                    21690140.992
 113498467.693 8  88440461.689 7  21598037.102                    21598047.547
 11  8 21  2 15 30.0000000  0  9G15G10G29G12G26G05G30G02G25
 128424737.638 5 100071282.192 5  24438417.086
 124941472.191 7  97357094.05143  23775557.461                    23775565.699
 118195804.606 7  92100690.234 7  22491914.328                    22491922.113
 113257054.023 8  88252299.107 7  21552095.422                    21552102.930
 123669069.356 7  96365604.33944  23533445.977                    23533455.336
 107356455.281 8  83654525.979 8  20429230.578                    20429237.906
 114057009.452 8  88875680.00445  21704327.852                    21704335.984
 114021242.911 8  88847827.31446  21697503.563                    21697509.496
 113502427.335 8  88443547.125 7  21598790.875                    21598800.934
 11  8 21  2 16  0.0000000  0  9G15G10G29G12G26G05G30G02G25
 128330615.47314  99997940.41614  24420506.906
 125047166.934 7  97439453.62543  23795670.289                    23795678.414
 118114738.328 7  92037521.756 7  22476487.953                    22476495.621
 113321961.024 8  88302875.990 7  21564446.586                    21564454.223
 123575366.122 7  96292588.92644  23515614.781                    23515623.797
 107387025.246 8  83678346.739 8  20435047.922                    20435054.883
 114076787.833 8  88891091.72645  21708091.570                    21708099.816
 114060048.907 8  88878065.76146  21704888.273                    21704894.035
 113506959.450 8  88447078.633 7  21599653.336                    21599663.258
 11  8 21  2 16 30.0000000  0  9G15G10G29G12G26G05G30G02G25
 128236387.679 5  99924516.333 4  24402575.406
 125152995.953 6  97521917.84743  23815808.031                    23815816.637
 118033761.411 7  91974422.906 7  22461078.211                    22461086.871
 113387279.015 7  88353773.113 7  21576876.359                    21576884.004
 123481757.249 6  96219647.05743  23497800.500                    23497809.824
 107418096.529 8  83702558.139 8  20440960.383                    20440967.859
 114097132.542 8  88906944.74345  21711962.688                    21711970.668
 114098937.904 7  88908368.89346  21712288.719                    21712294.242
 113512062.831 8  88451055.291 7  21600624.203                    21600634.215
 11  8 21  2 17  0.0000000  0  9G15G10G29G12G26G05G30G02G25
 128142057.23714  99851012.16015  24384622.906
 125258956.909 6  97604484.77243  23835971.867                    23835981.734
 117952876.225 7  91911395.537 7  22445686.242                    22445694.879
 113453005.856 8  88404988.827 7  21589383.797                    21589390.996
 123388246.949 6  96146781.99543  23480006.578                    23480015.738
 107449668.114 8  83727159.382 8  20446968.367                    20446974.848
 114118042.818 8  88923238.46545  21715942.102                    21715949.887
 114137910.133 7  88938736.87245  21719704.445                    21719710.535
 113517737.314 8  88455476.967 7  21601704.219                    21601714.484
 11  8 21  2 17 30.0000000  0  9G15G10G29G12G26G05G30G02G25
 128047626.965 4  99777430.329 4  24366652.500
 125365046.724 6  97687152.11943  23856160.281                    23856170.363
 117872084.334 7  91848440.853 7  22430312.133                    22430320.605
 113519138.026 7  88456520.382 7  21601968.141                    21601975.645
 123294838.221 7  96073996.05143  23462231.492                    23462240.484
 107481737.636 8  83752148.630 8  20453070.688                    20453077.949
 114139516.669 8  88939971.33945  21720028.148                    21720037.004
 114176965.296 7  88969169.46045  21727136.867                    21727142.125
 113523981.872 8  88460342.860 7  21602892.297                    21602902.641
 11  8 21  2 18  0.0000000  0  9G15G10G29G12G26G05G30G02G25
 127953098.951 5  99703772.318 5  24348667.000
 125471263.324 6  97769918.26243  23876372.680                    23876382.574
 117791388.093 7  91785560.692 7  22414956.141                    22414964.625
 113585673.258 7  88508366.006 7  21614629.477                    21614637.105
 123201534.996 7  96001292.31843  23444476.156                    23444484.969
 107514304.091 8  83777525.098 8  20459267.906                    20459274.969
 114161553.081 8  88957142.56945  21724221.633                    21724229.602
 114216103.514 7  88999666.76945  21734584.406                    21734589.648
 113530796.208 8  88465652.730 7  21604189.492                    21604199.547
 11  8 21  2 18 30.0000000  0  9G15G10G29G12G26G05G30G02G25
 127858475.568 5  99630040.009 5  24330660.477
 125577603.782 6  97852780.96543  23896608.758                    23896617.926
 117710789.114 7  91722756.341 7  22399618.320                    22399627.223
 113652608.806 7  88560523.569 7  21627367.031                    21627374.301
 123108340.571 7  95928673.37243  23426741.898                    23426751.180
 107547365.193 8  83803287.009 8  20465559.188                    20465566.754
 114184150.143 8  88974750.65845  21728521.938                    21728530.273
 114255324.577 7  89030228.63945  21742047.734                    21742053.488
 113538179.205 8  88471405.704 7  21605594.125                    21605604.535
 11  8 21  2 19  0.0000000  0  9G15G10G29G12G26G05G30G02G25
 127763759.458 5  99556235.403 5  24312636.922
 125684065.348 6  97935738.00943  23916867.398                    23916876.453
 117630289.213 7  91660029.179 7  22384299.914                    22384308.566
 113719942.069 7  88612991.036 7  21640180.078                    21640187.738
 123015258.126 7  95856141.64544  23409028.977                    23409039.035
 107580918.491 8  83829432.448 8  20471944.055                    20471951.770
 114207305.952 8  88992794.14745  21732928.484                    21732936.363
 114294627.966 7  89060854.66146  21749527.039                    21749532.484
 113546129.821 8  88477600.989 7  21607107.273                    21607116.871
 11  8 21  2 19 30.0000000  0  9G15G10G29G12G26G05G30G02G25
 127668953.491 5  99482360.840 5  24294595.313                    24294604.980
 125790645.281 7  98018787.26544  23937149.313                    23937158.215
 117549890.474 7  91597380.854 7  22369000.633                    22369008.688
 113787670.537 7  88665766.441 7  21653068.297                    21653076.031
 122922291.619 7  95783700.27744  23391338.172                    23391347.527
 107614962.561 8  83855960.297 8  20478422.469                    20478429.555
 114231019.251 8  89011272.03645  21737440.375                    21737448.938
 114334013.834 8  89091544.95445  21757021.641                    21757027.813
 113554647.607 8  88484238.223 7  21608728.070                    21608738.086
 11  8 21  2 20  0.0000000  0  9G15G10G29G12G26G05G30G02G25
 127574060.378 5  99408418.346 6  24276538.523                    24276547.949
 125897341.143 7  98101926.86343  23957453.195                    23957462.344
 117469594.698 7  91534812.760 7  22353720.789                    22353729.047
 113855791.048 7  88718847.356 7  21666031.195                    21666038.863
 122829444.607 7  95711352.01144  23373669.852                    23373678.996
 107649495.705 8  83882869.258 8  20484993.836                    20485001.172
 114255288.516 8  89030183.14545  21742058.891                    21742067.285
 114373482.173 7  89122299.52845  21764532.164                    21764538.148
 113563731.805 8  88491316.810 7  21610456.719                    21610466.930
 11  8 21  2 20 30.0000000  0  9G15G10G29G12G26G05G30G02G25
 127479082.458 5  99334409.752 5  24258463.719                    24258474.793
 126004150.204 7  98185154.63943  23977778.539                    23977787.207
 117389404.085 7  91472326.601 7  22338461.125                    22338469.414
 113924301.214 7  88772231.883 7  21679068.328                    21679075.773
 122736720.523 7  95639099.53744  23356024.813                    23356034.324
 107684515.778 8  83910157.642 8  20491658.102                    20491665.621
 114280111.974 8  89049526.09445  21746782.578                    21746790.863
 114413032.902 8  89153118.30245  21772058.297                    21772064.605
 113573381.372 8  88498835.957 7  21612292.883                    21612302.805
 11  8 21  2 21  0.0000000  0  9G15G10G29G12G26G05G30G02G25
 127384022.52815  99260337.29115  24240374.242                    24240385.590
 126111070.007 7  98268468.75543  23998124.531                    23998132.660
 117309320.680 7  91409924.002 7  22323221.555                    22323230.406
 113993198.282 7  88825917.905 7  21692178.922                    21692186.480
 122644123.113 7  95566945.77244  23338404.469                    23338413.477
 107720021.197 8  83937824.215 8  20498414.641                    20498421.574
 114305488.036 8  89069299.63245  21751611.477                    21751620.473
 114452666.101 8  89184001.32945  21779600.438                    21779606.063
 113583595.583 8  88506795.090 7  21614236.836                    21614246.621
 11  8 21  2 21 30.0000000  0  9G15G10G29G12G26G05G30G02G25
 127288882.965 5  99186202.744 5  24222270.383                    24222280.910
 126218097.879 7  98351867.11943  24018491.617                    24018498.813
 117229346.327 7  91347606.376 7  22308002.898                    22308011.395
 114062479.522 7  88879903.262 7  21705362.133                    21705370.094
 122551655.705 7  95494893.30144  23320808.625                    23320818.309
 107756009.531 8  83965867.082 8  20505262.750                    20505270.316
 114331414.807 8  89089502.30345  21756545.445                    21756553.473
 114492381.526 8  89214948.40845  21787158.094                    21787163.660
 113594373.375 8  88515193.354 7  21616287.305                    21616297.488
 11  8 21  2 22  0.0000000  0  9G15G10G29G12G26G05G30G02G25
 127193667.28514  99112008.46915  24204149.047                    24204161.973
 126325231.203 7  98435347.58243  24038877.453                    24038885.980
 117149483.130 7  91285375.387 7  22292805.258                    22292813.371
 114132142.486 7  88934186.077 7  21718619.508                    21718626.977
 122459322.089 7  95422945.10544  23303237.758                    23303247.242
 107792479.350 8  83994285.138 8  20512202.719                    20512210.070
 114357890.909 7  89110133.01945  21761583.523                    21761591.863
 114532179.186 8  89245959.56445  21794731.523                    21794737.168
 113605714.045 8  88524030.244 7  21618445.609                    21618455.625
 11  8 21  2 22 30.0000000  0  9G15G10G29G12G26G05G30G02G25
 127098376.711 5  99037756.675 5  24186016.148                    24186028.840
 126432467.930 6  98518908.61943  24059283.648                    24059292.520
 117069733.281 7  91223232.692 7  22277629.922                    22277637.703
 114202184.712 8  88988764.414 7  21731947.609                    21731955.645
 122367126.068 6  95351104.13944  23285693.258                    23285702.934
 107829429.067 8  84023077.130 8  20519234.242                    20519241.266
 114384914.786 7  89131190.56845  21766726.234                    21766734.559
 114572059.295 7  89277034.97345  21802319.617                    21802326.402
 113617616.842 8  88533305.150 7  21620710.398                    21620720.445
 11  8 21  2 23  0.0000000  0  9G15G10G29G12G26G05G30G02G25
 127003015.102 5  98963449.020 5  24167870.117                    24167881.813
 126539805.174 6  98602548.06343  24079709.281                    24079717.973
 116990098.607 7  91161179.782 7  22262475.484                    22262483.594
 114272602.645 7  89043635.517 7  21745348.172                    21745355.883
 122275071.111 6  95279373.08944  23268175.039                    23268185.172
 107866856.302 7  84052241.225 8  20526356.383                    20526363.480
 114412484.380 8  89152673.35845  21771972.719                    21771980.719
 114612021.817 7  89308174.60545  21809925.219                    21809931.270
 113630080.644 8  88543017.202 7  21623082.313                    21623092.445
 11  8 21  2 23 30.0000000  0  9G15G10G29G12G26G05G30G02G25
 126907584.967 5  98889087.996 5  24149710.297                    24149722.203
 126647240.340 6  98686263.75543  24100154.250                    24100162.770
 116910581.150 7  91099218.185 7  22247343.445                    22247351.738
 114343393.677 8  89098797.349 7  21758819.125                    21758826.738
 122183160.625 6  95207754.60944  23250685.508                    23250694.820
 107904758.949 8  84081775.771 8  20533569.344                    20533576.453
 114440597.842 7  89174579.93945  21777322.375                    21777330.559
 114652066.496 7  89339378.25445  21817544.914                    21817551.277
 113643104.212 8  88553165.430 7  21625560.805                    21625571.117
 11  8 21  2 24  0.0000000  0  9G15G10G29G12G26G05G30G02G25
 126812088.885 5  98814675.618 5  24131538.180                    24131548.523
 126754771.215 6  98770054.07843  24120616.102                    24120625.020
 116831182.880 7  91037349.476 7  22232234.414                    22232243.148
 114414555.919 7  89154248.436 7  21772360.648                    21772368.781
 122091398.290 6  95136251.57944  23233223.227                    23233233.219
 107943135.384 8  84111679.498 8  20540871.680                    20540879.023
 114469253.713 8  89196909.18245  21782775.172                    21782783.594
 114692193.489 7  89370646.05145  21825180.664                    21825187.332
 113656686.878 8  88563749.326 7  21628145.352                    21628155.922
 11  8 21  2 24 30.0000000  0  9G15G10G29G12G26G05G30G02G25
 126716529.528 6  98740213.832 5  24113354.531                    24113364.859
 126862394.766 6  98853916.56342  24141095.813                    24141104.711
 116751905.710 7  90975575.134 7  22217148.727                    22217156.500
 114486085.624 7  89209985.863 7  21785972.547                    21785980.043
 121999787.626 6  95064866.74144  23215789.820                    23215799.980
 107981983.250 8  84141950.579 8  20548264.070                    20548271.332
 114498449.700 8  89219659.29745  21788330.992                    21788339.191
 114732402.580 7  89401977.81345  21832832.422                    21832838.059
 113670827.260 8  88574767.804 7  21630836.469                    21630846.152
 11  8 21  2 25  0.0000000  0  9G15G10G29G12G26G05G30G02G25
 126620909.338 6  98665704.671 5  24095158.547                    24095168.371
 126970108.550 6  98937849.36042  24161593.445                    24161602.270
 116672751.794 7  90913896.819 7  22202085.977                    22202094.328
 114557979.934 7  89266007.388 7  21799653.711                    21799661.285
 121908332.202 7  94993602.85544  23198387.375                    23198396.102
 108021300.527 8  84172587.437 8  20555746.117                    20555753.008
 114528184.056 8  89242828.92245  21793989.227                    21793997.758
 114772693.670 7  89433373.45645  21840499.945                    21840505.254
 113685524.232 8  88586219.986 7  21633633.039                    21633642.766
 11  8 21  2 25 30.0000000  0  9G15G10G29G12G26G05G30G02G25
 126525231.088 6  98591150.269 5  24076952.039                    24076961.363
 127077910.032 6  99021850.50442  24182106.508                    24182115.992
 116593722.917 7  90852315.949 7  22187047.281                    22187055.438
 114630236.182 7  89322310.950 7  21813403.625                    21813411.035
 121817035.637 7  94922462.71944  23181014.039                    23181023.117
 108061084.979 8  84203588.317 8  20563316.570                    20563324.309
 114558454.823 7  89266416.53945  21799749.234                    21799757.398
 114813066.753 7  89464832.99545  21848182.297                    21848188.262
 113700776.684 8  88598105.025 7  21636535.031                    21636545.418
 11  8 21  2 26  0.0000000  0  9G15G10G29G12G26G05G30G02G25
 126429497.472 6  98516552.744 5  24058733.359                    24058743.398
 127185796.406 6  99105917.86242  24202637.727                    24202645.910
 116514821.141 7  90790834.121 7  22172032.531                    22172040.949
 114702851.687 7  89378894.453 7  21827221.891                    21827229.207
 121725901.319 7  94851449.01144  23163671.242                    23163680.426
 108101334.226 8  84234951.384 8  20570975.742                    20570983.055
 114589259.975 7  89290420.54345  21805611.180                    21805620.246
 114853521.696 7  89496356.32245  21855881.078                    21855886.598
 113716583.341 8  88610421.909 7  21639543.125                    21639553.492
 11  8 21  2 26 30.0000000  0  9G15G10G29G12G26G05G30G02G25
 126333711.569 6  98441914.406 5  24040506.477                    24040515.168
 127293765.861 6  99190049.86743  24223182.594                    24223192.898
 116436049.093 7  90729453.366 7  22157043.000                    22157050.703
 114775823.731 7  89435755.789 7  21841107.609                    21841115.191
 121634933.298 7  94780564.88044  23146361.078                    23146369.461
 108142047.367 8  84266675.920 8  20578723.234                    20578730.711
 114620598.185 7  89314839.92545  21811574.813                    21811583.281
 114894059.033 8  89527943.85046  21863595.141                    21863600.648
 113732943.625 8  88623170.182 7  21642656.297                    21642666.801
 11  8 21  2 27  0.0000000  0  9G15G10G29G12G26G05G30G02G25
 126237875.942 6  98367237.389 5  24022269.219                    24022278.887
 127401815.724 6  99274244.53843  24243744.984                    24243753.801
 116357408.925 7  90668175.369 7  22142077.914                    22142086.348
 114849149.560 7  89492892.777 7  21855061.148                    21855068.957
 121544135.164 7  94709813.13944  23129082.336                    23129091.238
 108183222.246 8  84298760.245 8  20586558.727                    20586565.543
 114652467.416 7  89339673.10745  21817639.688                    21817647.957
 114934678.934 7  89559595.71845  21871324.773                    21871330.414
 113749856.311 8  88636348.893 7  21645874.906                    21645885.168
 11  8 21  2 27 30.0000000  0  9G15G10G29G12G26G05G30G02G25
 126141993.665 6  98292524.030 5  24004023.719                    24004032.707
 127509943.551 7  99358499.95043  24264320.992                    24264330.477
 116278902.127 7  90607001.305 7  22127138.867                    22127147.313
 114922826.250 7  89550303.195 7  21869081.445                    21869088.813
 121453510.737 7  94639196.76244  23111837.586                    23111846.332
 108224856.504 8  84331202.529 8  20594481.563                    20594488.387
 114684865.502 7  89364918.37645  21823804.609                    21823813.473
 114975380.908 8  89591311.54245  21879069.930                    21879076.113
 113767319.978 8  88649956.949 7  21649198.180                    21649208.629
 11  8 21  2 28  0.0000000  0  9G15G10G29G12G26G05G30G02G25
 126046066.855 6  98217775.999 5  23985769.203                    23985778.965
 127618146.853 7  99442814.18043  24284911.438                    24284920.500
 116200530.965 7  90545932.926 7  22112225.555                    22112233.566
 114996850.884 7  89607984.712 7  21883168.086                    21883175.672
 121363063.211 7  94568718.22344  23094625.742                    23094634.570
 108266947.845 8  84364000.994 8  20602491.141                    20602498.367
 114717790.408 7  89390574.15445  21830070.516                    21830078.773
 115016164.958 7  89623091.33345  21886830.820                    21886836.883
 113785333.359 8  88663993.358 7  21652626.063                    21652636.156
 11  8 21  2 28 30.0000000  0  9G15G10G29G12G26G05G30G02G25
 125950098.586 6  98142995.656 6  23967506.094                    23967516.477
 127726422.958 7  99527185.13543  24305516.508                    24305524.094
 116122297.427 7  90484971.770 7  22097337.422                    22097346.258
 115071220.407 8  89665934.974 7  21897319.734                    21897327.836
 121272796.249 7  94498380.42544  23077448.672                    23077457.527
 108309493.971 8  84397153.817 8  20610587.547                    20610594.359
 114751239.959 8  89416638.74545  21836435.563                    21836443.719
 115057031.292 8  89654935.25145  21894607.000                    21894613.379
 113803895.105 8  88678457.060 7  21656158.578                    21656168.133
 11  8 21  2 29  0.0000000  0  9G15G10G29G12G26G05G30G02G25
 125854091.821 6  98068185.284 6  23949237.570                    23949247.457
 127834769.672 6  99611611.11543  24326133.438                    24326141.613
 116044203.674 7  90424119.535 7  22082477.188                    22082484.699
 115145932.279 7  89724152.012 7  21911537.320                    21911545.035
 121182713.745 7  94428186.34544  23060305.898                    23060315.277
 108352493.337 7  84430659.824 8  20618769.891                    20618777.215
 114785212.638 8  89443110.98145  21842900.047                    21842908.578
 115097980.389 7  89686843.64345  21902399.836                    21902405.605
 113823004.217 8  88693347.291 7  21659794.727                    21659804.848
 11  8 21  2 29 30.0000000  0  9G15G10G29G12G26G05G30G02G25
 125758048.941 6  97993346.754 6  23930960.461                    23930969.680
 127943184.409 6  99696090.13243  24346763.602                    24346772.707
 115966251.876 7  90363377.917 7  22067643.172                    22067651.590
 115220983.572 7  89782633.528 7  21925818.914                    21925826.434
 121092818.830 7  94358138.46244  23043198.984                    23043209.180
 108395943.277 7  84464516.928 8  20627038.250                    20627045.395
 114819705.891 7  89469988.84245  21849463.883                    21849472.523
 115139011.485 7  89718815.93345  21910208.289                    21910213.328
 113842659.148 8  88708662.831 7  21663535.016                    21663544.199
 11  8 21  2 30  0.0000000  0  9G15G10G29G12G26G05G30G02G25
 125661972.977 6  97918482.493 6  23912678.602                    23912687.098
 128051664.980 6  99780620.37843  24367407.680                    24367415.797
 115888444.382 7  90302748.760 7  22052836.805                    22052845.414
 115296371.849 7  89841377.632 7  21940164.922                    21940172.406
 121003115.627 7  94288239.94044  23026129.320                    23026139.188
 108439842.270 8  84498723.947 8  20635391.961                    20635399.266
 114854718.068 7  89497271.07945  21856126.570                    21856135.344
 115180124.935 8  89750852.37545  21918031.758                    21918037.367
 113862858.867 8  88724402.869 7  21667378.250                    21667388.301
 11  8 21  2 30 30.0000000  0  9G15G10G29G12G26G05G30G02G25
 125565866.835 6  97843594.688 6  23894389.273                    23894398.734
 128160208.732 6  99865199.93143  24388061.813                    24388071.199
 115810783.470 7  90242233.811 7  22038058.563                    22038066.715
 115372093.465 8  89900381.473 7  21954574.203                    21954581.969
 120913608.045 7  94218493.85844  23009096.695                    23009106.328
 108484188.220 8  84533279.236 8  20643830.797                    20643838.152
 114890247.040 8  89524956.00445  21862887.359                    21862895.586
 115221321.200 8  89782953.37345  21925871.008                    21925876.723
 113883602.026 8  88740566.390 7  21671325.914                    21671336.203
 11  8 21  2 31  0.0000000  0  9G15G10G29G12G26G05G30G02G25
 125469733.011 6  97768685.317 6  23876095.492                    23876105.438
 128268812.849 5  99949826.46743  24408728.563                    24408738.461
 115733270.428 7  90181834.081 7  22023308.258                    22023316.215
 115448145.310 7  89959642.630 7  21969046.383                    21969054.277
 120824298.958 7  94148902.43545  22992102.023                    22992111.273
 108528977.875 8  84568180.271 8  20652353.664                    20652360.918
 114926290.215 7  89553041.62145  21869746.211                    21869754.633
 115262599.900 8  89815118.60245  21933725.672                    21933731.949
 113904886.785 8  88757151.928 7  21675376.250                    21675386.465
 11  8 21  2 31 30.0000000  0  9G15G10G29G12G26G05G30G02G25
 125373574.141 6  97693756.427 6  23857797.539                    23857806.191
 128377475.034 5 100034498.24642  24429405.586                    24429416.285
 115655907.730 7  90121551.505 7  22008587.016                    22008594.504
 115524524.579 8  90019158.931 7  21983580.820                    21983588.301
 120735192.367 7  94079468.78044  22975145.945                    22975154.633
 108574209.164 8  84603425.441 7  20660960.867                    20660968.129
 114962845.529 7  89581526.29245  21876702.383                    21876710.176
 115303960.810 8  89847347.89345  21941596.641                    21941602.363
 113926711.793 8  88774158.433 7  21679529.352                    21679539.375
 11  8 21  2 32  0.0000000  0  9G15G10G29G12G26G05G30G02G25
 125277393.977 6  97618810.930 6  23839495.273                    23839503.801
 128486193.378 6 100119213.76942  24450094.836                    24450104.266
 115578697.981 7  90061388.096 7  21993894.367                    21993901.770
 115601229.326 7  90078928.857 7  21998177.234                    21998185.039
 120646292.077 7  94010195.89745  22958228.492                    22958237.895
 108619881.126 8  84639013.997 8  20669651.984                    20669659.398
 114999911.367 7  89610408.78545  21883755.961                    21883764.141
 115345404.827 7  89879641.94645  21949483.055                    21949488.523
 113949076.160 8  88791585.222 7  21683785.008                    21683795.387
 11  8 21  2 32 30.0000000  0  9G15G10G29G12G26G05G30G02G25
 125181194.831 6  97543850.659 6  23821188.875                    23821197.539
 128594965.467 6 100203971.25242  24470793.266                    24470803.035
 115501643.412 7  90001345.610 7  21979231.227                    21979239.082
 115678256.304 8  90138949.864 7  22012835.141                    22012843.203
 120557602.066 7  93941086.86544  22941351.117                    22941360.199
 108665991.537 8  84674944.193 8  20678426.508                    20678434.184
 115037485.645 7  89639687.45745  21890905.578                    21890914.988
 115386932.117 7  89912000.87745  21957385.664                    21957391.176
 113971978.558 8  88809431.255 7  21688142.938                    21688153.652
 11  8 21  2 33  0.0000000  0  9G15G10G29G12G26G05G30G02G25
 125084979.223 6  97468877.549 6  23802878.961                    23802888.305
 128703788.854 6 100288768.65442  24491502.227                    24491511.785
 115424745.563 7  89941425.256 7  21964597.500                    21964605.543
 115755601.958 7  90199219.179 7  22027553.516                    22027561.109
 120469125.496 7  93872144.13144  22924514.617                    22924523.246
 108712537.472 8  84711213.764 8  20687283.742                    20687291.219
 115075565.630 7  89669360.17445  21898152.094                    21898160.609
 115428542.325 7  89944424.43645  21965303.977                    21965309.465
 113995416.990 8  88827694.970 7  21692603.320                    21692614.113
 11  8 21  2 33 30.0000000  0  9G15G10G29G12G26G05G30G02G25
 124988750.026 6  97393893.864 6  23784567.430                    23784576.867
 128812660.948 6 100373604.05742  24512220.531                    24512228.680
 115348006.993 7  89881629.012 7  21949994.781                    21950003.184
 115833263.545 8  90259734.687 7  22042332.469                    22042340.066
 120380865.897 7  93803370.47044  22907719.680                    22907728.094
 108759516.694 8  84747820.962 8  20696223.797                    20696230.840
 115114149.153 7  89699425.26545  21905494.531                    21905503.570
 115470235.464 8  89976912.59645  21973237.664                    21973243.488
 114019389.970 8  88846375.213 7  21697165.492                    21697176.105
 11  8 21  2 34  0.0000000  0 10G15G10G29G12G26G05G30G02G25G21
 124892510.422 6  97318902.069 6  23766253.656                    23766262.469
 128921579.456 6 100458475.59143  24532946.305                    24532955.246
 115271429.480 7  89821958.272 7  21935422.984                    21935430.676
 115911238.367 7  90320494.271 7  22057170.242                    22057177.633
 120292827.156 7  93734768.90544  22890966.148                    22890974.828
 108806927.067 8  84784764.113 8  20705245.750                    20705253.074
 115153234.157 7  89729881.12745  21912932.125                    21912940.730
 115512011.768 8  90009465.57045  21981187.609                    21981193.176
 114043896.164 8  88865470.950 7  21701828.836                    21701839.066
 132343720.89716 103125044.34853  25184181.938                    25184189.945
 11  8 21  2 34 30.0000000  0 10G15G10G29G12G26G05G30G02G25G21
 124796262.985 6  97243904.151 6  23747938.063                    23747946.719
 129030541.969 6 100543381.37342  24553681.320                    24553689.918
 115195015.466 7  89762414.917 7  21920881.000                    21920888.996
 115989523.344 8  90381495.534 7  22072067.023                    22072074.617
 120205012.720 7  93666342.11844  22874256.023                    22874264.246
 108854766.158 8  84822041.340 7  20714349.125                    20714356.266
 115192818.091 7  89760725.74845  21920464.547                    21920473.320
 115553870.876 8  90042083.05845  21989153.242                    21989158.320
 114068933.818 8  88884980.817 7  21706593.375                    21706603.398
 132287751.400 6 103081431.90943  25173530.961                    25173540.801
 11  8 21  2 35  0.0000000  0 10G15G10G29G12G26G05G30G02G25G21
 124700010.827 6  97168902.583 6  23729621.898                    23729630.820
 129139546.483 7 100628319.99142  24574425.438                    24574431.758
 115118767.360 8  89703000.838 7  21906371.961                    21906379.777
 116068115.531 8  90442736.194 7  22087022.414                    22087030.258
 120117426.690 7  93598093.32244  22857588.305                    22857596.887
 108903032.274 8  84859651.320 7  20723533.750                    20723540.871
 115232899.065 7  89791957.68045  21928092.086                    21928100.086
 115595813.773 7  90074765.84645  21997133.992                    21997139.637
 114094501.729 8  88904903.864 7  21711458.523                    21711468.742
 132231790.657 6 103037826.26043  25162881.547                    25162891.172
 11  8 21  2 35 30.0000000  0  9G15G29G12G26G05G30G02G25G21
 124603757.395 6  97093900.013 6  23711305.000                    23711314.305
 115042687.429 7  89643717.819 7  21891894.148                    21891902.527
 116147012.693 7  90504214.478 7  22102036.406                    22102044.570
 120030073.270 7  93530025.77744  22840965.484                    22840973.402
 108951723.793 8  84897592.771 7  20732799.539                    20732806.754
 115273475.304 7  89823575.52845  21935813.430                    21935822.000
 115637840.929 7  90107514.29745  22005131.516                    22005137.320
 114120598.816 8  88925239.264 7  21716424.930                    21716434.781
 132175838.724 6 102994227.48743  25152234.109                    25152244.320
 11  8 21  2 36  0.0000000  0  9G15G29G12G26G05G30G02G25G21
 124507504.815 6  97018898.136 6  23692988.797                    23692998.250
 114966777.579 7  89584567.326 7  21877449.297                    21877457.070
 116226211.158 7  90565927.548 7  22117107.844                    22117115.176
 119942955.598 7  93462141.95144  22824387.117                    22824395.297
 109000837.678 8  84935863.341 7  20742145.148                    20742152.520
 115314543.895 7  89855577.02945  21943628.398                    21943637.012
 115679951.856 7  90140327.99745  22013144.734                    22013151.609
 114147222.888 8  88945985.301 7  21721491.070                    21721501.691
 132119894.549 6 102950634.83443  25141588.695                    25141598.383
 11  8 21  2 36 30.0000000  0  9G15G29G12G26G05G30G02G25G21
 124411256.130 6  96943899.251 6  23674672.875                    23674682.141
 114891040.399 7  89525551.378 7  21863036.938                    21863044.871
 116305708.122 7  90627873.224 7  22132235.828                    22132243.184
 119856077.010 7  93394444.40944  22807854.727                    22807863.484
 109050371.710 8  84974461.298 7  20751571.836                    20751578.203
 115356102.644 7  89887960.46445  21951536.789                    21951545.480
 115722146.607 7  90173207.01545  22021174.672                    22021180.973
 114174372.391 8  88967140.747 7  21726657.539                    21726667.785
 132063957.382 6 102907047.53043  25130943.430                    25130953.750
 11  8 21  2 37  0.0000000  0  9G15G29G12G26G05G30G02G25G21
 124315013.962 6  96868905.435 6  23656358.734                    23656367.805
 114815477.800 8  89466671.477 7  21848657.664                    21848665.590
 116385500.780 7  90690049.316 7  22147419.164                    22147427.066
 119769441.445 7  93326936.24044  22791368.109                    22791377.832
 109100323.438 8  85013384.721 7  20761077.266                    20761084.238
 115398149.119 7  89920723.94845  21959537.898                    21959546.555
 115764425.574 7  90206151.67145  22029219.984                    22029226.020
 114202045.673 8  88988704.345 7  21731923.695                    21731933.996
 132008026.527 6 102863465.23243  25120299.891                    25120310.047
 11  8 21  2 37 30.0000000  0  9G15G29G12G26G05G30G02G25G21
 124218781.694 6  96793919.358 6  23638046.422                    23638055.496
 114740092.026 8  89407929.364 7  21834312.469                    21834320.309
 116465585.888 7  90752453.295 7  22162659.047                    22162666.711
 119683052.682 7  93259620.39144  22774929.000                    22774938.207
 109150690.890 8  85052632.087 8  20770661.930                    20770669.098
 115440681.084 7  89953865.73145  21967631.289                    21967639.539
 115806788.758 7  90239161.92645  22037281.563                    22037287.277
 114230241.075 8  89010674.788 7  21737289.016                    21737299.516
 131952101.445 6 102819887.35043  25109657.813                    25109668.453
 11  8 21  2 38  0.0000000  0  9G15G29G12G26G05G30G02G25G21
 124122561.738 6  96718942.845 6  23619736.172                    23619745.484
 114664885.158 8  89349326.650 7  21820001.000                    21820008.828
 116545959.954 7  90815082.412 7  22177953.375                    22177961.582
 119596913.902 7  93192499.33444  22758537.781                    22758546.551
 109201471.295 8  85092201.234 7  20780324.969                    20780332.602
 115483695.771 7  89987383.65045  21975816.656                    21975825.523
 115849236.031 7  90272237.72645  22045358.477                    22045364.793
 114258956.614 8  89033050.545 7  21742753.266                    21742763.660
 131896181.345 6 102776313.36943  25099016.508                    25099026.672
 11  8 21  2 38 30.0000000  0  9G15G29G12G26G05G30G02G25G21
 124026357.004 6  96643978.203 6  23601429.078                    23601438.285
 114589859.332 8  89290864.997 7  21805723.875                    21805731.742
 116626620.090 7  90877934.456 7  22193302.617                    22193310.680
 119511028.858 7  93125575.97944  22742194.258                    22742203.023
 109252662.092 8  85132090.161 7  20790066.281                    20790073.426
 115527190.655 8  90021275.75445  21984094.258                    21984102.598
 115891767.587 7  90305379.20445  22053452.227                    22053458.641
 114288190.475 8  89055830.168 7  21748315.891                    21748326.742
 131840265.402 6 102732742.58043  25088376.234                    25088385.473
 11  8 21  2 39  0.0000000  0  9G15G29G12G26G05G30G02G25G21
 123930170.854 6  96569028.041 6  23583125.570                    23583134.391
 114515016.929 8  89232546.308 7  21791481.883                    21791490.031
 116707564.026 7  90941007.648 7  22208706.313                    22208713.621
 119425401.521 7  93058853.42445  22725899.844                    22725908.742
 109304261.960 8  85172297.850 7  20799885.656                    20799892.297
 115571163.862 7  90055540.59545  21992461.719                    21992470.152
 115934383.915 7  90338586.74345  22061562.008                    22061567.559
 114317941.467 8  89079012.759 7  21753977.555                    21753987.992
 131784353.810 6 102689175.20943  25077736.297                    25077745.633
 11  8 21  2 39 30.0000000  0  9G15G29G12G26G05G30G02G25G21
 123834005.610 6  96494094.157 6  23564825.688                    23564834.395
 114440360.148 8  89174372.226 7  21777275.000                    21777282.938
 116788788.243 7  91004299.248 7  22224162.672                    22224169.738
 119340035.286 7  92992334.33745  22709655.313                    22709664.457
 109356267.851 8  85212821.923 7  20809781.766                    20809788.633
 115615612.472 8  90090175.86045  22000920.039                    22000928.344
 115977084.980 7  90371860.29245  22069687.250                    22069692.770
 114348207.302 8  89102596.516 7  21759737.422                    21759747.523
 131728445.355 6 102645610.30243  25067097.563                    25067106.711
 11  8 21  2 40  0.0000000  0  9G15G29G12G26G05G30G02G25G21
 123737864.506 6  96419179.090 6  23546530.531                    23546539.188
 114365891.257 7  89116344.569 7  21763104.125                    21763111.836
 116870289.804 7  91067806.954 7  22239671.320                    22239679.457
 119254933.987 7  92926021.68444  22693460.961                    22693469.398
 109408677.641 8  85253660.725 7  20819755.055                    20819761.934
 115660534.342 8  90125179.91145  22009468.633                    22009476.387
 116019870.980 7  90405200.01845  22077829.500                    22077834.965
 114378986.468 8  89126580.303 7  21765594.172                    21765604.422
 131672539.768 6 102602047.51142  25056459.609                    25056467.156
 11  8 21  2 40 30.0000000  0  9G15G29G12G26G05G30G02G25G21
 123641750.384 7  96344285.049 6  23528240.297                    23528249.516
 114291612.652 8  89058465.174 7  21748969.469                    21748977.254
 116952065.913 7  91131528.603 7  22255233.273                    22255240.965
 119170101.307 7  92859918.35945  22677317.695                    22677326.480
 109461489.177 8  85294812.562 7  20829804.625                    20829811.656
 115705927.007 7  90160550.80645  22018106.047                    22018114.691
 116062742.337 7  90438606.25145  22085987.891                    22085992.680
 114410277.270 8  89150962.755 7  21771548.688                    21771559.012
 131616636.313 6 102558486.49343  25045820.117                    25045829.422
 11  8 21  2 41  0.0000000  0  9G15G29G12G26G05G30G02G25G21
 123545666.977 7  96269414.964 6  23509956.844                    23509965.621
 114217527.032 7  89000736.169 7  21734871.031                    21734878.664
 117034113.713 7  91195461.941 7  22270846.453                    22270854.309
 119085541.432 7  92794027.61144  22661226.320                    22661235.418
 109514700.644 8  85336276.041 7  20839930.672                    20839937.664
 115751788.501 7  90196287.03045  22026833.352                    22026841.391
 116105699.217 7  90472079.13745  22094162.438                    22094167.566
 114442078.360 8  89175742.830 7  21777600.281                    21777610.352
 131560734.829 6 102514927.01043  25035182.906                    25035192.277
 11  8 21  2 41 30.0000000  0  9G15G29G12G26G05G30G02G25G21
 123449616.268 7  96194570.325 6  23491678.852                    23491687.648
 114143636.051 8  88943158.820 7  21720810.297                    21720817.797
 117116429.593 7  91259604.166 7  22286510.633                    22286518.395
 119001257.252 7  92728351.66544  22645187.539                    22645196.270
 109568308.579 8  85378048.452 8  20850131.820                    20850138.785
 115798115.484 8  90232385.97945  22035649.109                    22035657.309
 116148741.454 7  90505618.53645  22102353.117                    22102358.523
 114474387.015 8  89200918.417 7  21783748.648                    21783758.828
 131504834.122 6 102471368.08943  25024543.852                    25024554.766
 11  8 21  2 42  0.0000000  0  9G15G29G12G26G05G30G02G25G21
 123353601.497 7  96119753.697 6  23473407.523                    23473415.980
 114069941.717 8  88885734.712 7  21706786.859                    21706794.563
 117199010.922 7  91323953.251 7  22302225.266                    22302232.785
 118917252.746 7  92662893.64744  22629202.102                    22629210.270
 109622311.003 8  85420128.271 8  20860408.219                    20860415.504
 115844905.644 8  90268845.82845  22044553.008                    22044561.504
 116191869.662 7  90539224.94045  22110559.844                    22110565.484
 114507201.666 8  89226488.283 7  21789992.781                    21790002.957
 131448933.824 6 102427809.48143  25013907.375                    25013917.664
 11  8 21  2 42 30.0000000  0  9G15G29G12G26G05G30G02G25G21
 123257625.667 7  96044967.433 6  23455144.070                    23455152.539
 113996446.484 8  88828465.733 7  21692801.234                    21692808.766
 117281854.234 7  91388506.470 7  22317989.758                    22317997.859
 118833531.251 7  92597656.16944  22613270.531                    22613278.738
 109676705.678 8  85462513.727 8  20870759.055                    20870766.500
 115892156.256 7  90305664.48245  22053544.563                    22053553.176
 116235083.557 7  90572898.12045  22118783.359                    22118789.293
 114540520.211 8  89252450.785 7  21796333.414                    21796343.734
 131393033.421 6 102384250.84742  25003269.789                    25003280.055
 11  8 21  2 43  0.0000000  0  9G15G29G12G26G05G30G02G25G21
 123161691.793 7  95970213.842 6  23436888.617                    23436897.543
 113923153.039 8  88771353.983 7  21678853.609                    21678861.609
 117364956.939 7  91453261.808 7  22333803.555                    22333811.535
 118750096.992 7  92532642.49944  22597393.195                    22597401.707
 109731490.736 8  85505203.375 8  20881183.891                    20881191.582
 115939865.201 7  90342840.27645  22062623.438                    22062631.559
 116278383.850 7  90606638.62245  22127023.117                    22127028.840
 114574341.124 8  89278804.739 7  21802768.906                    21802779.016
 131337132.83015 102340691.72152  24992632.063                    24992642.121
 11  8 21  2 43 30.0000000  0  9G15G29G12G26G05G30G02G25G21
 123065802.498 7  95895494.991 6  23418641.484                    23418649.840
 113850063.115 8  88714400.846 7  21664944.891                    21664953.180
 117448315.521 7  91518216.528 7  22349666.445                    22349674.117
 118666952.999 7  92467855.01444  22581571.547                    22581579.648
 109786662.641 8  85548194.477 8  20891683.203                    20891690.703
 115988029.437 7  90380370.84145  22071788.711                    22071797.129
 116321770.436 8  90640446.35645  22135279.367                    22135284.816
 114608662.113 8  89305548.363 7  21809300.008                    21809310.484
 131281229.833 6 102297131.43242  24981993.750                    24982004.242
 11  8 21  2 44  0.0000000  0  9G15G29G12G26G05G30G02G25G21
 122969961.310 7  95820813.645 6  23400403.266                    23400411.668
 113777179.698 8  88657608.595 7  21651075.578                    21651083.207
 117531927.633 7  91583368.802 7  22365577.633                    22365585.039
 118584103.773 7  92403297.20744  22565805.602                    22565814.016
 109842220.103 8  85591486.010 8  20902255.461                    20902262.988
 116036647.007 7  90418254.66045  22081039.977                    22081048.492
 116365244.149 7  90674321.97145  22143552.250                    22143557.516
 114643481.718 8  89332680.522 7  21815926.164                    21815936.176
 131225325.458 6 102253569.57742  24971355.469                    24971364.680
 11  8 21  2 44 30.0000000  0  9G15G29G12G26G05G30G02G25G21
 122874170.906 7  95746171.835 6  23382174.656                    23382183.555
 113704504.708 7  88600978.769 7  21637245.914                    21637253.980
 117615790.332 7  91648716.355 7  22381535.758                    22381543.547
 118501552.317 7  92338971.43745  22550096.891                    22550105.137
 109898160.427 8  85635075.882 8  20912900.516                    20912907.840
 116085714.926 8  90456489.38645  22090377.469                    22090385.512
 116408804.720 8  90708265.26845  22151841.508                    22151846.930
 114678797.743 8  89360199.497 7  21822646.516                    21822656.672
 131169418.854 6 102210006.12942  24960717.539                    24960726.559
 11  8 21  2 45  0.0000000  0  9G15G29G12G26G05G30G02G25G21
 122778434.186 7  95671571.881 6  23363956.711                    23363965.352
 113632040.410 8  88544513.104 7  21623456.477                    21623464.047
 117699899.873 7  91714256.239 7  22397541.227                    22397549.105
 118419302.820 7  92274880.95945  22534444.992                    22534453.738
 109954481.094 8  85678962.123 7  20923618.047                    20923625.328
 116135230.796 8  90495073.18245  22099799.984                    22099808.348
 116452452.300 8  90742276.35745  22160147.547                    22160152.355
 114714608.250 8  89388103.794 7  21829461.336                    21829471.457
 131113509.118 6 102166440.16342  24950077.781                    24950086.848
 11  8 21  2 45 30.0000000  0  9G15G29G12G26G05G30G02G25G21
 122682754.039 7  95597016.011 6  23345749.281                    23345758.105
 113559788.842 8  88488213.206 7  21609707.695                    21609715.230
 117784252.917 7  91779985.888 7  22413593.000                    22413600.910
 118337358.296 7  92211028.12845  22518851.617                    22518860.289
 110011179.618 8  85723142.800 7  20934407.109                    20934414.582
 116185191.538 8  90534003.61645  22109307.461                    22109315.742
 116496187.264 8  90776355.52645  22168469.555                    22168474.855
 114750910.888 8  89416391.555 7  21836369.336                    21836379.523
 131057595.421 6 102122871.10942  24939438.016                    24939445.844
 11  8 21  2 46  0.0000000  0  9G15G29G12G26G05G30G02G25G21
 122587133.241 7  95522506.391 6  23327552.727                    23327562.074
 113487752.130 8  88432080.737 7  21595999.500                    21596007.191
 117868846.316 7  91845902.782 7  22429690.766                    22429698.395
 118255722.200 7  92147415.63145  22503317.008                    22503325.363
 110068253.364 8  85767615.853 8  20945268.258                    20945275.504
 116235594.270 7  90573278.47545  22118898.906                    22118907.406
 116540009.372 8  90810502.62145  22176809.227                    22176813.840
 114787703.402 8  89445061.038 7  21843370.578                    21843380.895
 131001677.372 6 102079298.67142  24928796.813                    24928805.750
 11  8 21  2 46 30.0000000  0  9G15G29G12G26G05G30G02G25G21
 122491575.360 7  95448045.769 6  23309368.992                    23309377.500
 113415933.241 8  88376118.001 7  21582332.742                    21582340.215
 117953677.677 7  91912005.124 7  22445833.547                    22445841.371
 118174398.470 7  92084046.53645  22487841.727                    22487849.781
 110125700.216 8  85812379.636 7  20956200.117                    20956207.539
 116286436.919 7  90612896.10045  22128574.008                    22128582.129
 116583919.367 8  90844718.18845  22185164.602                    22185169.898
 114824984.306 8  89474111.079 7  21850464.922                    21850475.168
 130945754.516 6 102035722.50943  24918155.344                    24918163.879
 11  8 21  2 47  0.0000000  0  9G15G29G12G26G05G30G02G25G21
 122396083.419 7  95373636.536 6  23291197.227                    23291205.758
 113344334.431 8  88320326.743 7  21568708.188                    21568715.516
 118038744.464 7  91978290.906 7  22462021.227                    22462029.141
 118093391.183 7  92020924.00945  22472426.039                    22472434.539
 110183517.895 8  85857432.369 7  20967202.336                    20967209.668
 116337716.845 8  90652854.47845  22138332.180                    22138340.059
 116627917.569 7  90879002.51045  22193537.219                    22193543.164
 114862751.530 8  89503540.069 7  21857651.953                    21857662.023
 130889826.329 6 101992142.20443  24907512.672                    24907522.305
 11  8 21  2 47 30.0000000  0  9G15G29G12G26G05G30G02G25G21
 122300660.191 7  95299280.837 6  23273038.648                    23273047.754
 113272958.016 8  88264708.791 7  21555125.148                    21555132.977
 118124043.021 7  92044757.314 7  22478253.133                    22478260.660
 118012703.990 7  91958050.90645  22457072.086                    22457080.148
 110241704.036 8  85902772.214 7  20978274.758                    20978281.801
 116389431.295 7  90693151.45945  22148172.883                    22148181.012
 116672004.258 7  90913355.79945  22201926.367                    22201932.215
 114901003.054 8  89533346.433 7  21864930.625                    21864941.207
 130833892.293 6 101948557.34743  24896868.617                    24896878.586
 11  8 21  2 48  0.0000000  0  9G15G29G12G26G05G30G02G25G21
 122205308.411 7  95224980.839 6  23254893.664                    23254902.746
 113201805.941 8  88209265.652 7  21541585.531                    21541593.242
 118209570.220 7  92111401.876 7  22494528.883                    22494536.281
 117932339.994 7  91895429.67145  22441779.211                    22441788.102
 110300255.922 8  85948397.061 7  20989416.719                    20989423.820
 116441577.475 7  90733784.84345  22158095.938                    22158104.344
 116716179.466 7  90947778.04745  22210333.102                    22210338.500
 114939736.536 8  89563528.341 7  21872301.125                    21872311.715
 130777951.897 6 101904967.52843  24886223.047                    24886232.922
 11  8 21  2 48 30.0000000  0  9G15G29G12G26G05G30G02G25G21
 122110031.798 7  95150739.386 6  23236763.414                    23236771.578
 113130881.039 8  88153999.519 7  21528089.031                    21528096.633
 118295323.254 7  92178222.404 7  22510846.102                    22510854.563
 117852303.464 7  91833063.59145  22426548.984                    22426557.668
 110359171.490 8  85994305.308 7  21000627.820                    21000635.063
 116494152.895 7  90774752.69945  22168100.727                    22168109.090
 116760443.819 8  90982269.74845  22218756.148                    22218762.125
 114978950.170 8  89594084.401 7  21879763.492                    21879773.777
 130722004.381 6 101861372.14643  24875576.461                    24875585.977
 11  8 21  2 49  0.0000000  0  9G15G29G12G26G05G30G02G25G21
 122014833.389 7  95076558.876 6  23218647.305                    23218655.859
 113060185.325 8  88098911.994 7  21514636.016                    21514643.527
 118381298.705 7  92245216.243 7  22527207.281                    22527215.234
 117772597.629 7  91770955.20644  22411381.188                    22411389.613
 110418448.546 8  86040495.209 7  21011908.039                    21011914.844
 116547154.625 7  90816052.74445  22178186.508                    22178194.516
 116804797.523 7  91016831.05645  22227196.328                    22227201.793
 115018641.611 8  89625012.778 7  21887316.758                    21887327.223
 130666049.304 7 101817770.89843  24864929.352                    24864938.266
 11  8 21  2 49 30.0000000  0  9G15G29G12G26G05G30G02G25G21
 121919715.513 7  95002441.110 6  23200547.055                    23200555.895
 112989720.856 8  88044004.648 7  21501226.906                    21501234.438
 118467493.593 7  92312381.069 7  22543609.758                    22543617.352
 117693225.907 7  91709107.15944  22396277.273                    22396285.449
 110478083.907 8  86086964.323 7  21023256.164                    21023263.348
 116600579.638 7  90857682.62445  22188352.930                    22188361.191
 116849240.436 7  91051461.87445  22235653.328                    22235659.094
 115058808.452 8  89656311.612 7  21894960.031                    21894970.309
 130610086.154 6 101774163.33443  24854279.656                    24854287.922
 11  8 21  2 50  0.0000000  0  9G15G29G12G26G05G30G02G25G21
 121824681.627 7  94928388.817 6  23182462.953                    23182471.379
 112919490.590 8  87989279.795 7  21487862.633                    21487870.055
 118553905.011 7  92379714.641 7  22560053.031                    22560061.258
 117614192.383 7  91647522.64444  22381237.039                    22381245.746
 110538075.500 8  86133711.014 7  21034672.484                    21034679.398
 116654425.578 7  90899640.48545  22198599.672                    22198607.887
 116893773.421 7  91086162.88245  22244127.625                    22244133.313
 115099448.848 8  89687979.429 7  21902693.836                    21902704.293
 130554114.150 6 101730548.90743  24843628.367                    24843636.480
 11  8 21  2 50 30.0000000  0  9G15G29G12G26G05G30G02G25G21
 121729734.943 7  94854404.446 6  23164394.984                    23164403.270
 112849496.658 8  87934739.122 7  21474542.867                    21474550.773
 118640529.739 7  92447214.407 7  22576537.219                    22576545.250
 117535500.452 7  91586204.30745  22366262.547                    22366271.527
 110598421.082 8  86180733.527 7  21046155.898                    21046162.957
 116708689.668 7  90941924.19445  22208925.633                    22208934.012
 116938396.596 7  91120934.18345  22252619.500                    22252624.758
 115140560.619 8  89720014.567 7  21910516.969                    21910527.402
 130498132.803 6 101686927.18843  24832975.188                    24832984.160
 11  8 21  2 51  0.0000000  0  9G15G29G12G26G05G30G02G25G21
 121634878.380 7  94780490.305 6  23146344.539                    23146352.598
 112779741.579 8  87880384.550 7  21461269.000                    21461276.758
 118727365.207 7  92514878.375 7  22593061.516                    22593069.688
 117457154.181 7  91525155.29945  22351353.797                    22351362.590
 110659118.416 8  86228030.146 7  21057706.023                    21057712.988
 116763369.341 8  90984531.72145  22219331.039                    22219339.418
 116983110.292 7  91155776.03145  22261127.961                    22261133.723
 115182141.735 8  89752415.418 7  21918429.539                    21918439.809
 130442142.064 6 101643298.12943  24822320.555                    24822329.313
 11  8 21  2 51 30.0000000  0  9G15G29G12G26G05G30G02G25G21
 121540114.743 7  94706648.577 6  23128310.898                    23128319.934
 112710227.622 8  87826217.870 7  21448041.219                    21448049.016
 118814407.982 7  92582703.910 7  22609625.227                    22609633.590
 117379156.893 7  91464378.23845  22336511.531                    22336519.961
 110720164.622 8  86275598.602 7  21069322.813                    21069329.531
 116818461.532 7  91027460.68545  22229814.672                    22229823.293
 117027914.806 7  91190688.63945  22269654.344                    22269659.727
 115224189.771 8  89785180.112 7  21926431.305                    21926441.359
 130386141.004 6 101599661.06343  24811663.055                    24811671.898
 11  8 21  2 52  0.0000000  0  9G15G29G12G26G05G30G02G25G21
 121445447.160 7  94632881.673 6  23110296.805                    23110305.277
 112640956.556 8  87772240.454 7  21434859.094                    21434866.949
 118901654.559 7  92650688.209 7  22626227.680                    22626236.176
 117301511.788 7  91403875.61745  22321736.406                    22321744.660
 110781557.155 8  86323436.932 7  21081005.250                    21081012.262
 116873963.132 7  91070708.66745  22240376.328                    22240384.879
 117072810.065 7  91225671.96345  22278197.523                    22278203.012
 115266702.210 8  89818306.666 7  21934521.258                    21934531.402
 130330129.065 6 101556015.48543  24801005.383                    24801013.688
 11  8 21  2 52 30.0000000  0  9G15G29G12G26G05G30G02G25G21
 121350878.878 7  94559192.160 6  23092300.383                    23092308.785
 112571931.119 8  87718454.458 7  21421724.094                    21421731.574
 118989102.541 7  92718829.492 7  22642868.359                    22642876.594
 117224222.744 7  91343650.43845  22307028.578                    22307036.875
 110843293.633 8  86371543.262 7  21092753.477                    21092760.449
 116929871.637 7  91114273.73745  22251015.148                    22251023.699
 117117796.770 7  91260726.53845  22286758.250                    22286764.055
 115309676.950 8  89851793.463 7  21942699.102                    21942709.695
 130274105.571 6 101512360.96543  24790343.547                    24790352.902
 11  8 21  2 53  0.0000000  0  9G15G29G12G26G05G30G02G25G21
 121256413.477 7  94485582.777 6  23074324.844                    23074332.953
 112503154.477 8  87664862.311 7  21408636.305                    21408644.063
 119076748.970 7  92787125.362 7  22659547.430                    22659555.148
 117147293.845 7  91283705.87345  22292389.758                    22292397.668
 110905372.316 8  86419916.257 7  21104566.414                    21104573.355
 116986184.670 7  91158154.01145  22261731.414                    22261739.793
 117162875.449 7  91295852.79745  22295336.047                    22295341.453
 115353112.296 8  89885639.183 7  21950964.102                    21950974.684
 130218070.400 6 101468697.36143  24779680.063                    24779689.859
 11  8 21  2 53 30.0000000  0  9G15G29G12G26G05G30G02G25G21
 121162053.019 7  94412055.179 6  23056368.852                    23056377.406
 112434627.883 8  87611465.002 7  21395596.672                    21395603.770
 119164589.763 7  92855572.732 7  22676262.516                    22676270.742
 117070727.880 7  91224044.12345  22277819.766                    22277827.980
 110967789.647 8  86468553.135 7  21116443.773                    21116451.367
 117042898.420 7  91202346.54045  22272523.797                    22272531.813
 117208045.727 7  91331050.42445  22303931.961                    22303937.031
 115397004.859 8  89919841.177 7  21959316.773                    21959326.977
 130162022.616 6 101425023.87143  24769014.000                    24769023.953
 11  8 21  2 54  0.0000000  0  9G15G29G12G26G05G30G02G25G21
 121067801.120 7  94338612.198 6  23038433.141                    23038441.379
 112366354.253 8  87558264.812 7  21382604.383                    21382611.852
 119252622.848 7  92924169.910 7  22693015.156                    22693023.035
 116994529.202 7  91164668.57445  22263319.406                    22263327.246
 111030544.035 8  86517452.657 7  21128385.539                    21128392.699
 117100010.842 7  91246849.71145  22283391.805                    22283399.844
 117253308.686 7  91366320.24845  22312545.445                    22312550.598
 115441353.271 8  89954398.385 7  21967756.063                    21967765.902
 130105961.872 6 101381340.36243  24758346.383                    24758355.746
 11  8 21  2 54 30.0000000  0  9G15G29G12G26G05G30G02G25G21
 120973660.643 7  94265256.008 6  23020518.492                    23020526.715
 112298335.572 8  87505263.295 7  21369660.445                    21369668.203
 119340844.584 7  92992914.107 6  22709802.930                    22709810.563
 116918700.768 7  91105581.52745  22248889.781                    22248897.500
 111093632.693 8  86566612.650 7  21140391.289                    21140398.301
 117157518.604 7  91291660.96145  22294335.086                    22294342.996
 117298664.344 8  91401662.28845  22321176.344                    22321180.891
 115486154.698 8  89989308.574 7  21976281.680                    21976292.340
 130049887.463 6 101337646.15543  24747676.344                    24747684.578
 11  8 21  2 55  0.0000000  0  9G15G29G12G26G05G30G02G25G21
 120879634.685 7  94191989.076 6  23002626.344                    23002634.500
 112230574.433 8  87452462.441 7  21356765.969                    21356773.500
 119429251.882 7  93061802.904 7  22726626.672                    22726633.992
 116843246.290 7  91046785.88945  22234531.516                    22234538.926
 111157053.068 8  86616031.119 7  21152459.734                    21152467.406
 117215418.876 7  91336778.05045  22305352.891                    22305361.051
 117344112.908 8  91437076.75045  22329825.078                    22329830.133
 115531406.809 8  90024569.960 7  21984892.531                    21984903.559
 129993798.835 6 101293940.85043  24737002.352                    24737011.715
 11  8 21  2 55 30.0000000  0  9G15G29G12G26G05G30G02G25G21
 120785726.493 7  94118813.908 6  22984756.164                    22984764.395
 112163073.339 8  87399864.224 7  21343920.727                    21343928.625
 119517841.858 7  93130834.053 6  22743484.508                    22743492.098
 116768169.123 7  90988284.24045  22220244.313                    22220252.691
 111220802.564 8  86665706.042 7  21164591.000                    21164598.094
 117273708.622 7  91382198.61745  22316445.086                    22316453.266
 117389654.622 8  91472563.79245  22338490.898                    22338496.555
 115577107.175 8  90060180.645 7  21993589.133                    21993599.527
 129937695.546 6 101250224.14943  24726326.742                    24726335.449
 11  8 21  2 56  0.0000000  0 10G15G18G29G12G26G05G30G02G25G21
 120691938.834 7  94045732.664 6  22966909.047                    22966916.695
 129730375.05816 101088669.39753  24686875.320                    24686885.738
 112095833.857 8  87347469.856 7  21331125.555                    21331133.309
 119606611.210 7  93200004.960 6  22760376.555                    22760384.625
 116693472.868 7  90930079.42045  22206030.398                    22206038.391
 111284878.505 8  86715635.337 7  21176784.289                    21176791.391
 117332385.087 7  91427920.53345  22327611.195                    22327619.145
 117435289.632 7  91508123.56045  22347174.781                    22347180.480
 115623253.368 8  90096138.709 7  22002370.602                    22002380.617
 129881576.981 7 101206495.53343  24715647.289                    24715655.809
 11  8 21  2 56 30.0000000  0 10G15G18G29G12G26G05G30G02G25G21
 120598275.096 7  93972747.983 6  22949085.281                    22949093.543
 129640793.712 6 101018865.92043  24669828.242                    24669838.254
 112028859.134 8  87295281.795 7  21318380.695                    21318388.840
 119695557.141 7  93269313.462 6  22777302.813                    22777310.426
 116619161.460 7  90872174.48345  22191888.922                    22191897.367
 111349279.332 8  86765817.802 7  21189039.664                    21189046.680
 117391445.518 7  91473941.63745  22338849.992                    22338857.762
 117481018.949 7  91543756.80745  22355876.758                    22355882.602
 115669843.268 8  90132442.541 7  22011236.484                    22011246.199
 129825442.755 6 101162754.74043  24704964.977                    24704974.469
 11  8 21  2 57  0.0000000  0 10G15G18G29G12G26G05G30G02G25G21
 120504738.198 6  93899862.136 6  22931285.633                    22931293.836
 129551376.364 6 100949190.26643  24652813.219                    24652822.582
 111962151.307 8  87243301.692 7  21305686.453                    21305694.406
 119784676.356 7  93338756.988 6  22794261.016                    22794269.375
 116545238.045 7  90814571.86945  22177821.695                    22177829.906
 111414001.994 8  86816251.041 7  21201355.570                    21201362.871
 117450886.817 7  91520259.51945  22350161.164                    22350169.957
 117526842.516 7  91579463.49845  22364596.898                    22364602.484
 115716874.255 8  90169090.072 7  22020185.883                    22020196.207
 129769292.439 6 101119001.41143  24694279.570                    24694289.457
 11  8 21  2 57 30.0000000  0 10G15G18G29G12G26G05G30G02G25G21
 120411331.197 7  93827077.520 6  22913509.766                    22913518.656
 129462124.198 6 100879643.27643  24635828.086                    24635838.207
 111895712.759 8  87191531.419 7  21293043.563                    21293051.348
 119873965.839 7  93408333.176 6  22811252.539                    22811260.531
 116471706.291 7  90757274.43945  22163829.133                    22163837.434
 111479043.832 8  86866932.990 7  21213732.336                    21213739.676
 117510706.036 7  91566871.87345  22361544.367                    22361552.863
 117572760.840 8  91615243.99045  22373335.367                    22373340.609
 115764343.963 8  90206079.447 7  22029219.211                    22029228.977
 129713125.308 6 101075234.97344  24683592.016                    24683601.625
 11  8 21  2 58  0.0000000  0 10G15G18G29G12G26G05G30G02G25G21
 120318057.461 6  93754396.737 6  22895760.844                    22895769.137
 129373038.822 6 100810226.26643  24618875.758                    24618885.766
 111829546.036 8  87139972.969 7  21280452.406                    21280460.375
 119963422.922 7  93478039.977 6  22828275.953                    22828283.715
 116398569.925 7  90700285.10345  22149912.063                    22149919.672
 111544402.806 8  86917862.052 7  21226170.008                    21226177.410
 117570900.435 7  91613776.58445  22372999.492                    22373007.660
 117618774.318 7  91651098.65045  22382091.141                    22382096.766
 115812250.053 8  90243408.856 7  22038335.367                    22038345.762
 129656941.016 6 101031455.16643  24672899.813                    24672909.531
 11  8 21  2 58 30.0000000  0 10G15G18G29G12G26G05G30G02G25G21
 120224920.154 6  93681822.263 6  22878037.469                    22878046.020
 129284121.412 6 100740940.14443  24601955.633                    24601964.922
 111763653.630 8  87088628.260 7  21267913.484                    21267921.082
 120053043.928 7  93547874.491 6  22845330.367                    22845337.961
 116325832.181 7  90643606.38345  22136070.461                    22136078.391
 111610076.258 8  86969036.163 7  21238667.375                    21238674.699
 117631466.906 7  91660971.22945  22384524.797                    22384533.676
 117664883.197 7  91687027.64545  22390865.180                    22390870.988
 115860589.985 8  90281076.341 7  22047534.266                    22047544.336
 129600738.946 6 100987661.49643  24662205.727                    24662214.344
 11  8 21  2 59  0.0000000  0 10G15G18G29G12G26G05G30G02G25G21
 120131921.954 6  93609356.189 6  22860340.555                    22860348.934
 129195373.113 6 100671785.76543  24585067.305                    24585076.746
 111698037.564 8  87037498.883 7  21255427.242                    21255434.848
 120142825.754 7  93617834.336 7  22862415.016                    22862423.063
 116253496.722 7  90587241.13745  22122305.547                    22122313.496
 111676061.677 8  87020453.380 7  21251224.164                    21251231.270
 117692402.468 7  91708453.45845  22396120.414                    22396128.656
 117711087.664 7  91723031.11645  22399657.891                    22399663.738
 115909361.161 7  90319079.849 7  22056814.945                    22056825.816
 129544518.571 6 100943853.51443  24651507.141                    24651515.289
 11  8 21  2 59 30.0000000  0 10G15G18G29G12G26G05G30G02G25G21
 120039065.828 6  93537000.808 6  22842670.945                    22842679.234
 129106795.193 6 100602764.15243  24568211.547                    24568220.422
 111632700.410 8  86986586.844 7  21242994.047                    21243001.344
 120232765.593 7  93687917.303 6  22879529.969                    22879538.375
 116181566.886 7  90531191.94945  22108617.352                    22108625.574
 111742356.733 8  87072111.852 7  21263839.500                    21263846.973
 117753704.134 7  91756220.98445  22407785.188                    22407793.988
 117757388.419 7  91759109.62945  22408467.727                    22408473.961
 115958561.171 8  90357417.519 7  22066177.398                    22066187.707
 129488279.275 6 100900030.82743  24640805.883                    24640812.508
 11  8 21  3  0  0.0000000  0 10G15G18G29G12G26G05G30G02G25G21
 119946355.564 7  93464759.099 6  22825028.578                    22825036.734
 129018389.238 6 100533876.54943  24551387.555                    24551397.203
 111567644.584 8  86935894.013 7  21230614.398                    21230621.473
 120322860.792 7  93758121.326 6  22896674.594                    22896682.285
 116110046.370 7  90475461.71645  22095007.641                    22095016.379
 111808958.748 8  87124009.530 7  21276513.375                    21276520.676
 117815369.103 7  91804271.58045  22419519.992                    22419528.496
 117803785.616 7  91795263.31345  22417297.031                    22417302.703
 116008187.640 8  90396087.487 7  22075621.391                    22075631.242
 129432020.778 6 100856193.10743  24630098.992                    24630106.793
 11  8 21  3  0 30.0000000  0 10G15G18G29G12G26G05G30G02G25G21
 119853794.219 7  93392633.443 6  22807414.539                    22807422.941
 128930156.429 6 100465123.82043  24534598.141                    24534607.703
 111502872.517 8  86885422.293 7  21218288.586                    21218296.223
 120413107.877 7  93828443.709 6  22913848.234                    22913855.891
 116038938.732 7  90420053.19945  22081475.992                    22081484.051
 111875865.762 8  87176144.857 7  21289245.500                    21289252.918
 117877394.533 7  91852603.07445  22431323.078                    22431330.789
 117850279.994 7  91831492.69445  22426145.141                    22426150.480
 116058238.179 8  90435087.905 7  22085145.414                    22085155.637
 129375742.743 6 100812340.21143  24619388.797                    24619397.094
 11  8 21  3  1  0.0000000  0 10G15G18G29G12G26G05G30G02G25G21
 119761384.537 7  93320625.951 6  22789829.805                    22789837.531
 128842098.038 6 100396507.02743  24517840.445                    24517851.121
 111438386.259 8  86835173.298 7  21206017.328                    21206025.055
 120503503.770 7  93898882.059 6  22931050.070                    22931057.629
 115968247.131 7  90364968.87045  22068023.688                    22068032.023
 111943074.903 8  87228515.623 7  21302034.594                    21302042.121
 117939777.018 7  91901212.79145  22443194.016                    22443201.957
 117896871.789 7  91867797.99745  22435010.953                    22435016.262
 116108709.870 8  90474416.493 7  22094749.727                    22094760.336
 129319444.375 6 100768471.43943  24608675.477                    24608682.840
 11  8 21  3  1 30.0000000  0 10G15G18G29G12G26G05G30G02G25G21
 119669130.101 7  93248739.432 6  22772274.094                    22772282.156
 128754215.287 6 100328027.15543  24501117.219                    24501126.777
 111374188.920 8  86785149.410 7  21193801.000                    21193808.121
 120594045.816 7  93969434.278 6  22948279.750                    22948287.605
 115897975.491 7  90310211.77245  22054651.992                    22054659.484
 112010583.898 8  87281120.052 7  21314881.367                    21314888.547
 118002514.060 7  91950098.78345  22455132.422                    22455140.293
 117943561.611 8  91904179.68645  22443896.195                    22443901.438
 116159600.711 8  90514071.690 7  22104434.289                    22104444.414
 129263125.608 6 100724586.79743  24597957.844                    24597966.465
 11  8 21  3  2  0.0000000  0 10G15G18G29G12G26G05G30G02G25G21
 119577033.864 7  93176976.187 6  22754748.891                    22754757.039
 128666509.329 6 100259684.96843  24484427.375                    24484436.430
 111310282.420 8  86735352.167 7  21181639.875                    21181647.832
 120684730.543 7  94040097.682 6  22965536.164                    22965543.477
 115828127.107 7  90255784.48745  22041360.188                    22041367.715
 112078390.178 8  87333956.121 7  21327784.102                    21327791.492
 118065602.364 7  91999258.50645  22467137.906                    22467146.012
 117990349.618 7  91940637.87245  22452799.703                    22452804.648
 116210907.816 8  90554051.239 7  22114197.563                    22114207.777
 129206785.672 6 100680685.61343  24587237.289                    24587245.480
 11  8 21  3  2 30.0000000  0 10G15G18G29G12G26G05G30G02G25G21
 119485098.475 7  93105338.262 6  22737253.758                    22737261.512
 128578981.410 6 100191481.54442  24467770.070                    24467779.941
 111246669.047 8  86685783.330 7  21169534.844                    21169541.809
 120775554.606 7  94110869.650 6  22982819.188                    22982827.395
 115758704.985 7  90201689.36945  22028149.359                    22028157.418
 112146491.163 8  87387021.830 7  21340743.641                    21340751.121
 118129038.690 7  92048689.40945  22479209.820                    22479217.324
 118037236.004 7  91977172.72645  22461721.438                    22461726.719
 116262628.401 8  90594352.992 7  22124039.570                    22124050.094
 129150423.956 6 100636767.50543  24576511.805                    24576520.398
 11  8 21  3  3  0.0000000  0 10G15G18G29G12G26G05G30G02G25G21
 119393327.101 7  93033828.153 6  22719790.531                    22719798.363
 128491632.774 6 100123417.76642  24451148.867                    24451157.898
 111183350.887 8  86636444.522 7  21157485.711                    21157493.219
 120866515.068 7  94181747.925 6  23000128.602                    23000136.422
 115689712.641 7  90147929.13845  22015020.602                    22015028.559
 112214884.023 8  87440314.962 7  21353758.375                    21353765.262
 118192819.879 7  92098389.03745  22491346.469                    22491354.605
 118084220.952 7  92013784.37645  22470662.328                    22470668.336
 116314759.774 8  90634974.834 7  22133960.016                    22133970.090
 129094040.013 7 100592831.99443  24565783.430                    24565791.535
 11  8 21  3  3 30.0000000  0 10G15G18G29G12G26G05G30G02G25G21
 119301722.659 7  92962448.117 6  22702358.852                    22702366.531
 128404464.386 6 100055494.42043  24434561.102                    24434569.984
 111120330.221 8  86587337.542 7  21145493.008                    21145500.922
 120957608.611 7  94252729.874 6  23017463.078                    23017471.316
 115621153.395 7  90094506.37545  22001974.195                    22001982.000
 112283566.440 8  87493833.741 7  21366828.172                    21366835.395
 118256942.791 7  92148354.93845  22503548.453                    22503556.738
 118131304.759 7  92050473.06345  22479622.102                    22479627.754
 116367299.189 8  90675914.628 7  22143957.984                    22143967.613
 129037633.126 6 100548878.65943  24555049.117                    24555057.324
 11  8 21  3  4  0.0000000  0 10G15G18G29G12G26G05G30G02G25G21
 119210288.179 7  92891200.521 6  22684959.469                    22684967.477
 128317477.348 6  99987712.40743  24418008.180                    24418017.363
 111057609.294 8  86538464.125 7  21133557.875                    21133565.047
 121048832.153 7  94323813.133 6  23034822.555                    23034829.859
 115553030.295 7  90041423.46345  21989010.828                    21989018.695
 112352535.559 8  87547575.909 7  21379952.375                    21379959.660
 118321404.277 7  92198584.65845  22515815.961                    22515824.074
 118178487.936 7  92087239.19745  22488600.773                    22488606.184
 116420243.943 8  90717170.287 7  22154032.773                    22154043.102
 128981202.661 6 100504906.91343  24544311.398                    24544318.840
 11  8 21  3  4 30.0000000  0 10G15G18G29G12G26G05G30G02G25G21
 119119027.227 7  92820088.133 6  22667592.961                    22667600.945
 128230673.574 6  99920073.20843  24401489.922                    24401498.711
 110995191.127 8  86489826.628 7  21121680.055                    21121687.105
 121140183.041 7  94394995.625 6  23052206.000                    23052214.184
 115485347.120 7  89988683.35545  21976130.977                    21976138.566
 112421789.599 8  87601540.121 7  21393131.273                    21393138.480
 118386201.601 7  92249076.07145  22528146.250                    22528154.230
 118225770.994 7  92124083.15445  22497598.250                    22497603.734
 116473591.717 8  90758739.985 7  22164184.914                    22164194.891
 128924748.574 6 100460916.79343  24533567.445                    24533576.168
 11  8 21  3  5  0.0000000  0 10G15G18G29G12G26G05G30G02G25G21
 119027943.366 7  92749113.756 6  22650260.070                    22650268.234
 128144053.987 6  99852577.53043  24385006.867                    24385015.656
 110933078.498 8  86441427.201 7  21109859.930                    21109867.832
 121231658.523 7  94466275.192 6  23069613.594                    23069621.305
 115418107.965 8  89936289.23745  21963335.875                    21963343.734
 112491326.298 8  87655724.577 7  21406363.570                    21406370.832
 118451332.196 7  92299827.18245  22540539.703                    22540548.344
 118273154.815 7  92161005.61745  22506615.555                    22506621.000
 116527340.368 8  90800622.049 7  22174412.484                    22174422.820
 128868270.807 6 100416908.22843  24522820.359                    24522827.977
 11  8 21  3  5 30.0000000  0 10G15G18G29G12G26G05G30G02G25G21
 118937039.579 7  92678279.682 7  22632961.555                    22632969.867
 128057619.839 6  99785226.32843  24368558.719                    24368567.883
 110871273.521 8  86393267.507 7  21098099.359                    21098106.715
 121323255.486 7  94537649.442 6  23087044.078                    23087051.305
 115351315.751 7  89884243.38145  21950625.703                    21950633.891
 112561142.959 8  87710127.185 7  21419649.313                    21419656.566
 118516792.841 7  92350835.46645  22552996.750                    22553005.188
 118320639.840 7  92198006.94245  22515651.555                    22515656.992
 116581487.067 8  90842814.277 7  22184716.844                    22184726.727
 128811768.715 6 100372880.70643  24512067.992                    24512075.156
 11  8 21  3  6  0.0000000  0 10G15G18G29G12G26G05G30G02G25G21
 118846318.748 7  92607588.164 6  22615697.945                    22615705.852
 127971372.063 6  99718020.39243  24352146.070                    24352156.012
 110809778.238 8  86345349.140 7  21086396.844                    21086404.262
 121414970.456 6  94609115.632 6  23104496.203                    23104504.445
 115284973.627 8  89832548.24945  21938001.070                    21938008.922
 112631236.757 8  87764745.737 7  21432987.516                    21432994.430
 118582580.017 7  92402098.20345  22565515.336                    22565523.395
 118368226.277 7  92235087.28745  22524707.039                    22524713.055
 116636028.756 8  90885314.305 7  22195095.547                    22195105.355
 128755241.413 6 100328833.55043  24501311.656                    24501319.207
 11  8 21  3  6 30.0000000  0 10G15G18G29G12G26G05G30G02G25G21
 118755783.699 7  92537041.419 7  22598469.695                    22598477.750
 127885312.228 6  99650960.86843  24335769.750                    24335778.711
 110748595.178 8  86297674.066 7  21074754.195                    21074761.496
 121506800.729 7  94680671.660 6  23121971.125                    23121979.609
 115219085.181 8  89781206.64045  21925462.906                    21925470.766
 112701605.696 8  87819578.689 7  21446378.453                    21446385.348
 118648690.863 7  92453613.15045  22578096.031                    22578104.156
 118415914.241 7  92272246.75145  22533781.695                    22533787.715
 116690962.946 8  90928120.158 7  22205549.383                    22205559.391
 128698688.871 6 100284766.76543  24490548.656                    24490557.355
 11  8 21  3  7  0.0000000  0 10G15G18G29G12G26G05G30G02G25G21
 118665437.749 7  92466642.023 7  22581277.961                    22581285.547
 127799441.129 6  99584048.41143  24319428.898                    24319438.102
 110687726.288 8  86250243.788 7  21063171.109                    21063178.563
 121598742.814 7  94752314.804 7  23139466.469                    23139475.375
 115153653.263 8  89730220.75245  21913011.680                    21913019.742
 112772247.057 8  87874623.905 7  21459820.977                    21459828.352
 118715122.057 7  92505377.71745  22590737.164                    22590746.117
 118463704.259 7  92309485.72245  22542876.039                    22542881.777
 116746286.707 8  90971229.593 7  22216076.336                    22216086.805
 128642110.281 6 100240679.68243  24479782.992                    24479791.281
 11  8 21  3  7 30.0000000  0 10G15G18G29G12G26G05G30G02G25G21
 118575283.952 7  92396392.370 7  22564122.250                    22564129.879
 127713760.197 6  99517284.13743  24303124.180                    24303132.941
 110627174.695 8  86203060.760 7  21051648.430                    21051655.852
 121690793.931 7  94824042.881 6  23156983.844                    23156992.402
 115088681.743 8  89679593.62645  21900647.930                    21900656.000
 112843158.346 8  87929879.471 7  21473314.352                    21473322.102
 118781870.685 7  92557389.63445  22603439.508                    22603447.734
 118511596.862 7  92346804.62745  22551989.492                    22551995.195
 116801997.552 8  91014640.644 7  22226678.164                    22226688.441
 128585505.469 7 100196572.15543  24469011.367                    24469019.641
 11  8 21  3  8  0.0000000  0 10G15G18G29G12G26G05G30G02G25G21
 118485326.147 7  92326295.418 6  22547003.594                    22547010.891
 127628270.492 6  99450668.89143  24286855.680                    24286864.617
 110566942.329 8  86156126.474 7  21040186.961                    21040194.379
 121782951.069 7  94895853.633 6  23174521.133                    23174529.082
 115024173.696 7  89629327.65845  21888372.836                    21888380.430
 112914337.368 8  87985343.655 7  21486860.094                    21486867.352
 118848933.868 7  92609646.67045  22616200.758                    22616209.410
 118559592.564 7  92384203.87245  22561122.438                    22561127.875
 116858092.872 7  91058351.273 7  22237352.813                    22237362.750
 128528873.884 6 100152443.74543  24458234.586                    24458241.957
 11  8 21  3  8 30.0000000  0 10G15G18G29G12G26G05G30G02G25G21
 118395566.971 7  92256353.256 7  22529922.758                    22529930.465
 127542973.122 6  99384203.52343  24270622.828                    24270632.648
 110507031.773 8  86109442.959 7  21028786.023                    21028793.203
 121875211.210 7  94967744.626 6  23192077.273                    23192085.633
 114960132.559 8  89579425.51645  21876185.789                    21876193.734
 112985781.629 8  88041014.526 7  21500455.148                    21500462.648
 118916308.309 7  92662146.22945  22629021.445                    22629030.543
 118607691.774 7  92421683.77045  22570275.531                    22570280.688
 116914569.871 8  91102359.312 7  22248100.234                    22248110.371
 128472215.233 6 100108294.25343  24447452.461                    24447460.680
 11  8 21  3  9  0.0000000  0 10G15G18G29G12G26G05G30G02G25G21
 118306009.237 7  92186568.054 6  22512880.500                    22512888.145
 127457869.321 6  99317888.95543  24254429.117                    24254437.691
 110447444.914 8  86063011.675 7  21017446.914                    21017454.422
 121967571.376 7  95039713.550 6  23209653.602                    23209660.875
 114896561.266 8  89529889.46845  21864088.797                    21864096.426
 113057488.067 8  88096889.689 7  21514100.508                    21514107.941
 118983990.726 7  92714885.77345  22641901.359                    22641910.047
 118655894.582 7  92459244.39245  22579448.305                    22579453.215
 116971425.552 7  91146662.435 7  22258919.414                    22258929.250
 128415528.893 6 100064123.18043  24436665.820                    24436673.340
 11  8 21  3  9 30.0000000  0 10G15G18G29G12G26G05G30G02G25G21
 118216656.437 7  92116942.535 7  22495877.500                    22495884.871
 127372960.226 6  99251726.08843  24238271.328                    24238280.527
 110388184.545 8  86016834.798 7  21006170.234                    21006177.730
 122060028.343 7  95111757.910 6  23227247.328                    23227255.203
 114833463.267 8  89480722.22045  21852081.992                    21852089.086
 113129454.880 8  88152967.746 7  21527795.258                    21527802.285
 119051978.065 7  92767862.90745  22654838.656                    22654847.730
 118704201.633 7  92496886.25545  22588641.172                    22588645.785
 117028657.383 7  91191258.660 7  22269809.859                    22269820.230
 128358814.646 6 100019930.35843  24425872.453                    24425881.469
 11  8 21  3 10  0.0000000  0 10G15G18G29G12G26G05G30G02G25G21
 118127511.606 7  92047479.070 6  22478913.133                    22478921.160
 127288246.891 6  99185715.79343  24222150.797                    24222159.641
 110329253.151 8  85970914.260 7  20994956.031                    20994963.074
 122152579.267 7  95183875.487 6  23244859.016                    23244867.203
 114770841.908 7  89431926.37945  21840165.547                    21840173.000
 113201679.700 8  88209246.832 7  21541538.969                    21541545.957
 119120267.456 7  92821075.39245  22667833.930                    22667842.840
 118752613.658 7  92534609.89545  22597853.773                    22597859.289
 117086262.661 7  91236145.869 7  22280772.320                    22280782.676
 128302071.917 6  99975715.33143  24415074.883                    24415083.098
 11  8 21  3 10 30.0000000  0 10G15G18G29G12G26G05G30G02G25G21
 118038578.270 7  91978180.413 7  22461990.031                    22461997.660
 127203730.802 6  99119859.16143  24206067.734                    24206076.574
 110270653.268 8  85925252.035 7  20983804.977                    20983812.453
 122245221.034 7  95256063.872 6  23262488.047                    23262496.250
 114708700.664 8  89383504.65745  21828340.219                    21828347.664
 113274160.090 8  88265725.059 7  21555331.703                    21555339.016
 119188855.783 7  92874520.82545  22680885.891                    22680894.680
 118801131.019 7  92572415.63545  22607086.203                    22607092.004
 117144238.728 8  91281322.018 7  22291804.656                    22291814.977
 128245300.432 6  99931477.88343  24404271.586                    24404279.766
 11  8 21  3 11  0.0000000  0 10G15G18G29G12G26G05G30G02G25G21
 117949858.992 7  91909048.538 7  22445106.906                    22445115.160
 127119412.575 6  99054156.72443  24190022.945                    24190032.109
 110212386.817 7  85879849.631 7  20972716.984                    20972724.242
 122337950.584 7  95328320.629 6  23280133.570                    23280142.129
 114647042.402 7  89335459.28945  21816606.750                    21816614.359
 113346892.891 8  88322399.982 7  21569171.992                    21569179.133
 119257739.485 7  92928196.44145  22693993.859                    22694002.484
 118849753.925 7  92610303.59145  22616338.406                    22616344.625
 117202582.395 7  91326784.601 7  22302907.320                    22302917.102
 128188499.607 6  99887217.55944  24393463.000                    24393471.469
 11  8 21  3 11 30.0000000  0 10G15G18G29G12G26G05G30G02G25G21
 117861356.808 7  91840085.848 7  22428265.625                    22428273.625
 127035293.524 6  98988609.51643  24174015.313                    24174024.273
 110154455.970 8  85834708.749 7  20961693.008                    20961700.352
 122430764.826 7  95400643.371 6  23297795.914                    23297804.063
 114585870.183 7  89287792.66545  21804966.281                    21804973.852
 113419875.894 8  88379269.854 7  21583060.359                    21583067.438
 119326915.506 7  92982099.81845  22707157.664                    22707166.727
 118898482.606 7  92648273.98845  22625611.594                    22625616.918
 117261290.962 7  91372531.528 7  22314079.320                    22314089.043
 128131669.017 7  99842934.07143  24382648.430                    24382656.707
 11  8 21  3 12  0.0000000  0 10G15G18G29G12G26G05G30G02G25G21
 117773075.280 7  91771295.084 7  22411466.109                    22411474.141
 126951374.773 6  98923218.38943  24158045.445                    24158055.098
 110096863.544 8  85789831.562 7  20950733.398                    20950740.895
 122523661.232 6  95473030.147 6  23315473.250                    23315481.133
 114525187.273 7  89240507.32345  21793418.789                    21793426.500
 113493107.063 8  88436333.118 7  21596995.617                    21597003.320
 119396380.919 7  93036228.69345  22720376.773                    22720385.422
 118947317.853 7  92686327.40144  22634904.453                    22634909.180
 117320361.717 8  91418560.663 7  22325319.617                    22325330.027
 128074808.144 6  99798626.98543  24371827.547                    24371836.484
 11  8 21  3 12 30.0000000  0 10G15G18G29G12G26G05G30G02G25G21
 117685016.920 7  91702678.231 7  22394709.000                    22394717.246
 126867657.106 6  98857983.97543  24142114.656                    24142123.789
 110039611.424 8  85745219.542 7  20939838.797                    20939846.109
 122616636.224 6  95545478.156 6  23333166.156                    23333174.359
 114464996.852 8  89193605.74145  21781964.367                    21781972.340
 113566583.544 8  88493587.528 7  21610978.203                    21610985.164
 119466132.272 7  93090580.36245  22733649.938                    22733658.828
 118996259.948 7  92724464.07444  22644217.633                    22644222.301
 117379791.636 8  91464869.667 7  22336628.930                    22336638.719
 128017916.696 6  99754296.05743  24361002.406                    24361010.258
 11  8 21  3 13  0.0000000  0 10G15G18G29G12G26G05G30G02G25G21
 117597185.297 7  91634238.060 7  22377995.258                    22378003.359
 126784141.785 6  98792907.22643  24126222.742                    24126231.020
 109982702.214 8  85700874.719 7  20929009.383                    20929016.441
 122709686.760 6  95617985.036 6  23350873.305                    23350881.250
 114405302.126 7  89147090.40845  21770604.594                    21770612.672
 113640303.034 8  88551031.298 7  21625006.250                    21625013.203
 119536166.456 7  93145152.44645  22746977.555                    22746985.621
 119045309.394 7  92762684.40845  22653551.688                    22653556.480
 117439578.038 8  91511456.454 7  22348006.172                    22348016.039
 127960994.409 6  99709941.11043  24350169.398                    24350178.148
 11  8 21  3 13 30.0000000  0 10G15G18G29G12G26G05G30G02G25G21
 117509583.460 7  91565976.922 7  22361324.852                    22361333.152
 126700829.670 6  98727988.77943  24110368.875                    24110377.277
 109926137.932 8  85656798.681 7  20918245.773                    20918252.773
 122802809.673 6  95690548.329 6  23368593.883                    23368602.176
 114346106.011 7  89100963.59645  21759340.109                    21759347.625
 113714262.998 8  88608662.454 7  21639080.664                    21639087.617
 119606480.226 7  93199942.39245  22760357.508                    22760365.375
 119094466.581 7  92800988.67245  22662905.867                    22662911.684
 117499717.743 7  91558318.558 7  22359449.938                    22359460.027
 127904040.729 6  99665561.67243  24339332.469                    24339339.797
 11  8 21  3 14  0.0000000  0 10G15G18G29G12G26G05G30G02G25G21
 117422214.294 7  91497897.103 7  22344699.422                    22344707.301
 126617721.857 6  98663229.53543  24094553.461                    24094562.258
 109869921.132 7  85612993.404 7  20907547.750                    20907555.125
 122896002.328 7  95763165.965 6  23386327.828                    23386335.898
 114287411.752 7  89055227.84845  21748171.320                    21748178.918
 113788460.967 8  88666479.053 7  21653200.000                    21653206.629
 119677070.614 7  93254947.88045  22773790.188                    22773799.016
 119143732.172 7  92839377.42245  22672280.914                    22672287.766
 117560208.288 7  91605454.027 7  22370960.766                    22370971.098
 127847055.016 6  99621157.29043  24328487.563                    24328496.293
 11  8 21  3 14 30.0000000  0 10G15G18G29G12G26G05G30G02G25G21
 117335081.225 7  91430001.254 7  22328118.406                    22328126.566
 126534819.666 6  98598630.55143  24078777.844                    24078786.414
 109814054.352 8  85569460.861 7  20896916.406                    20896924.266
 122989261.895 6  95835835.724 6  23404074.156                    23404082.676
 114229222.577 7  89009885.66945  21737097.891                    21737105.695
 113862894.736 8  88724479.414 7  21667364.320                    21667371.434
 119747934.544 7  93310166.49844  22787275.172                    22787284.031
 119193106.385 7  92877850.83145  22681676.219                    22681683.734
 117621046.885 7  91652860.700 7  22382538.156                    22382548.168
 127790037.580 6  99576728.18743  24317636.992                    24317645.469
 11  8 21  3 15  0.0000000  0 10G15G18G29G12G26G05G30G02G25G21
 117248187.863 7  91362292.184 7  22311583.156                    22311591.082
 126452124.254 6  98534192.66543  24063041.063                    24063050.430
 109758540.380 8  85526203.231 7  20886353.055                    20886360.129
 123082585.286 7  95908555.223 6  23421833.672                    23421841.230
 114171541.784 7  88964939.62445  21726121.672                    21726129.242
 113937562.123 8  88782661.792 7  21681573.211                    21681580.391
 119819068.871 7  93365595.80544  22800812.016                    22800820.520
 119242589.871 7  92916409.38345  22691092.859                    22691099.426
 117682230.748 7  91700536.423 7  22394180.977                    22394191.395
 127732988.305 6  99532274.26143  24306781.242                    24306789.379
 11  8 21  3 15 30.0000000  0 10G15G18G29G12G26G05G30G02G25G21
 117161536.780 7  91294771.906 7  22295094.289                    22295101.953
 126369636.390 6  98469916.55043  24047344.398                    24047353.102
 109703381.238 8  85483222.097 7  20875856.031                    20875863.418
 123175969.965 6  95981322.467 6  23439604.281                    23439612.207
 114114372.176 8  88920391.91645  21715242.641                    21715250.496
 114012460.466 8  88841024.143 7  21695825.570                    21695832.484
 119890470.373 7  93421233.31345  22814399.023                    22814407.613
 119292183.178 7  92955053.49245  22700530.219                    22700536.590
 117743756.868 7  91748478.821 7  22405889.070                    22405899.219
 127675906.153 6  99487794.70743  24295918.969                    24295926.535
 11  8 21  3 16  0.0000000  0 10G15G18G29G12G26G05G30G02G25G21
 117075130.775 7  91227442.602 7  22278651.406                    22278659.605
 126287356.849 6  98405802.71243  24031687.117                    24031695.848
 109648578.328 7  85440518.541 7  20865427.531                    20865434.992
 123269412.093 7  96054134.496 6  23457385.391                    23457393.383
 114057716.442 7  88876244.62145  21704461.305                    21704469.000
 114087587.115 8  88899564.393 7  21710121.977                    21710128.965
 119962135.465 7  93477076.22645  22828036.117                    22828044.758
 119341886.383 7  92993783.23845  22709987.992                    22709994.727
 117805622.011 7  91796685.402 7  22417661.414                    22417672.105
 127618790.536 6  99443289.07643  24285050.094                    24285058.227
 11  8 21  3 16 30.0000000  0 10G15G18G29G12G26G05G30G02G25G21
 116988973.366 7  91160307.007 7  22262256.102                    22262263.895
 126205286.721 6  98341852.11443  24016069.133                    24016078.203
 109594134.931 8  85398095.124 7  20855067.320                    20855074.297
 123362909.102 7  96126989.272 6  23475177.273                    23475185.230
 114001578.442 8  88832500.75145  21693778.742                    21693786.344
 114162940.134 8  88958281.036 7  21724461.180                    21724468.094
 120034061.555 7  93533122.51544  22841723.664                    22841732.141
 119391700.611 7  93032599.48245  22719467.969                    22719472.898
 117867823.835 7  91845154.340 7  22429498.711                    22429508.988
 127561641.502 7  99398757.39444  24274175.766                    24274182.664
 11  8 21  3 17  0.0000000  0 10G15G18G29G12G26G05G30G02G25G21
 116903067.215 7  91093367.179 7  22245908.750                    22245916.484
 126123427.177 6  98278065.57643  24000492.586                    24000500.891
 109540052.695 7  85355953.129 7  20844776.125                    20844782.969
 123456457.687 6  96199884.231 6  23492979.195                    23492987.449
 113945960.420 7  88789162.06645  21683195.094                    21683202.660
 114238516.435 8  89017171.668 7  21738842.523                    21738849.645
 120106244.883 7  93589369.22544  22855459.297                    22855467.801
 119441625.483 7  93071501.96145  22728968.055                    22728973.652
 117930358.883 7  91893882.927 7  22441398.375                    22441408.605
 127504458.292 6  99354199.08343  24263293.805                    24263301.395
 11  8 21  3 17 30.0000000  0 10G15G18G29G12G26G05G30G02G25G21
 116817415.796 7  91026625.860 7  22229610.102                    22229617.582
 126041779.377 7  98214443.98243  23984956.313                    23984963.211
 109486334.435 7  85314094.746 7  20834553.617                    20834560.461
 123550055.380 6  96272817.490 6  23510790.117                    23510798.090
 113890865.788 7  88746231.22345  21672710.563                    21672718.469
 114314313.964 8  89076234.693 7  21753266.039                    21753273.230
 120178682.566 7  93645814.16345  22869243.680                    22869252.504
 119491661.869 7  93110491.30245  22738489.477                    22738495.391
 117993224.534 7  91942869.139 7  22453361.484                    22453371.531
 127447240.810 7  99309614.09144  24252405.406                    24252413.398
